GFSSGP_con_mlcape_000.txt.gz
CAPE
0 0 0 0 0 0 0 0 0 0 0 0 0 0 0 0 0 0 0 25 1 11 14 479 530 204 313 225 121 38 6 0 0 0 1 1 8 8 12 17 15 8 2 0 0 0 11 21 19
0 0 0 0 0 0 0 0 0 0 0 0 0 0 0 0 0 0 0 16 17 19 26 118 454 302 357 203 126 63 29 9 0 0 10 6 19 10 16 11 9 3 2 0 0 0 1 7 11
0 0 0 0 0 0 0 0 0 0 0 0 0 0 0 0 0 0 1 34 44 41 63 160 719 348 301 209 148 130 78 48 0 0 8 20 35 23 14 8 5 0 0 0 0 0 6 6 6
0 0 0 0 0 0 0 0 0 0 0 0 0 0 0 0 0 0 9 43 58 63 105 270 688 289 331 256 259 165 116 64 36 0 0 14 28 39 15 12 1 0 0 0 0 0 0 0 0
0 0 0 0 0 0 0 0 0 0 0 0 0 0 0 0 0 0 34 61 58 85 136 139 476 363 552 262 224 167 155 57 42 1 11 27 26 98 25 8 7 3 1 0 4 11 5 1 0
0 0 0 0 0 0 0 0 0 0 0 0 0 0 0 0 0 1 86 78 81 125 200 136 251 590 558 283 250 188 143 118 52 2 9 18 32 109 36 30 13 9 12 7 4 15 19 22 19
0 0 0 0 0 0 0 0 0 0 0 0 0 0 0 0 0 6 100 96 127 180 248 190 201 558 510 352 265 194 184 104 66 10 0 1 2 1 15 12 17 13 17 11 2 13 17 32 32
0 0 0 0 0 0 0 0 0 0 0 0 0 0 0 0 0 0 41 95 148 246 311 345 360 476 472 452 296 235 200 119 42 0 0 0 0 0 0 0 1 0 0 0 0 0 0 0 9
0 0 0 0 0 0 0 0 0 0 0 0 0 0 0 0 0 0 0 12 85 161 319 419 395 505 522 428 350 269 192 130 53 0 0 0 0 0 0 0 0 0 0 0 0 0 0 0 0
0 0 0 0 0 0 0 0 0 0 0 0 0 0 0 0 0 0 0 0 7 59 165 360 482 532 527 465 380 300 231 146 52 3 0 0 0 0 0 0 0 0 0 0 0 0 0 0 0
0 0 0 0 0 0 0 0 0 0 0 0 0 0 0 0 0 0 0 0 0 0 43 197 459 566 564 502 406 320 239 157 67 9 0 0 0 0 0 0 0 0 0 0 0 0 0 0 0
0 0 0 0 0 0 0 0 0 0 0 0 0 0 0 0 0 0 0 0 0 0 0 44 214 424 532 508 434 342 249 146 57 12 0 0 0 0 0 0 0 0 0 0 0 0 0 0 0
0 0 0 0 0 0 0 0 0 0 0 0 0 0 0 0 0 0 0 0 0 0 0 1 33 198 345 446 422 376 268 141 62 37 4 0 0 0 0 0 0 0 0 0 0 0 0 0 0
0 0 0 0 0 0 0 0 0 0 0 0 0 0 0 0 0 0 0 0 0 0 0 0 0 25 166 299 359 314 257 165 98 30 12 0 0 0 0 0 0 0 1 0 0 0 0 0 0
39 10 9 0 0 0 0 0 0 0 0 0 0 0 0 0 0 0 0 0 0 0 0 0 0 0 53 179 257 243 199 68 58 20 1 0 0 0 0 0 0 3 2 1 2 2 2 4 5
89 43 29 0 2 0 0 0 0 0 0 0 0 0 0 0 0 0 0 0 0 0 0 0 0 0 0 73 118 86 37 14 1 0 0 0 0 0 0 1 3 1 1 3 3 3 1 3 4
82 18 3 6 0 0 0 0 0 0 0 0 0 0 0 0 0 0 0 0 0 0 0 0 0 0 0 9 6 0 0 0 0 0 0 0 0 0 0 0 0 0 0 0 0 0 0 0 0
12 13 14 11 0 0 0 0 0 0 0 0 0 0 0 0 0 0 0 0 0 0 0 0 0 0 0 0 4 1 0 0 0 0 0 0 0 0 0 0 0 0 0 0 0 0 0 0 0
13 2 13 4 0 0 0 0 0 0 0 0 0 0 0 0 0 0 0 0 0 0 0 0 0 0 0 20 0 0 0 0 0 0 0 0 0 0 0 0 0 0 0 0 0 0 0 0 0
18 3 6 8 0 0 0 0 0 0 0 0 0 0 0 0 0 0 0 0 0 0 0 0 0 0 0 0 0 0 0 0 0 0 0 0 0 0 0 0 0 0 0 0 0 0 0 0 0
17 8 2 3 0 0 0 0 0 0 0 0 0 0 0 0 0 0 0 0 0 0 0 0 0 0 0 0 0 0 0 0 0 0 0 0 0 0 0 0 0 0 0 0 0 0 0 0 0
15 23 4 0 27 26 0 0 0 0 0 0 0 0 0 0 0 0 0 0 0 0 0 0 0 0 0 0 0 0 0 0 0 0 0 0 0 0 0 0 0 0 0 0 0 0 0 0 0
34 6 1 7 11 0 0 0 0 0 0 0 0 0 0 0 0 0 0 0 0 0 0 0 0 0 0 0 0 0 0 0 0 0 0 0 0 0 0 0 0 0 0 0 0 0 0 0 0
0 0 0 0 0 3 0 0 0 0 0 0 0 0 0 0 0 0 0 0 0 0 0 0 0 0 0 0 0 0 0 0 0 0 0 0 0 0 0 0 0 0 0 0 0 0 0 0 0
18 11 2 6 3 1 0 0 0 0 0 0 0 0 0 0 0 0 0 0 0 0 0 0 0 0 0 0 0 0 0 0 0 0 0 0 0 0 0 0 0 0 0 0 0 0 0 0 0
5 9 2 1 0 0 0 0 0 0 0 0 0 0 0 0 0 0 0 0 0 0 0 0 0 0 0 0 0 0 0 0 0 0 0 0 0 0 0 0 0 0 0 0 0 0 0 0 0
2 2 0 0 0 0 0 0 0 0 0 0 0 0 0 0 0 0 0 0 0 0 0 0 0 0 0 0 0 0 0 0 0 0 0 0 0 0 0 0 0 0 0 0 0 0 0 0 0
0 0 0 0 0 0 0 0 0 0 0 0 0 0 0 0 0 0 0 0 0 0 0 0 0 0 0 0 0 0 0 0 0 0 0 0 0 0 0 0 0 0 0 0 0 0 0 0 0
1 0 0 0 0 0 0 0 0 0 0 0 0 0 0 0 0 0 0 0 0 0 0 0 0 0 0 0 0 0 0 0 0 0 0 0 0 0 0 0 0 0 0 0 0 0 0 0 0
3 3 0 5 0 0 0 0 0 0 0 0 0 0 0 0 0 0 0 0 0 0 0 0 0 0 0 0 0 0 0 0 0 0 0 0 0 0 0 0 0 0 0 0 0 0 0 0 0

GFSSGP_con_mlcape_003.txt.gz
CAPE
0 0 0 0 0 0 0 0 7 0 1 0 0 0 0 0 0 0 0 13 0 0 48 131 464 322 179 161 66 17 0 0 0 0 3 2 9 3 0 14 20 10 7 0 0 0 0 8 17
0 0 0 0 0 0 0 0 0 13 0 0 0 0 0 0 0 0 41 11 0 0 58 204 417 206 246 143 57 14 8 0 0 0 3 13 14 12 18 6 9 13 11 0 0 0 0 0 14
0 0 0 0 0 0 0 0 0 0 0 0 0 0 0 0 0 0 10 15 0 0 25 340 305 266 304 118 82 43 19 8 0 0 2 25 27 21 11 7 14 14 1 0 0 0 0 0 0
0 0 0 0 0 0 0 0 0 0 0 0 0 0 0 0 0 10 23 17 16 14 52 509 562 384 221 173 125 66 37 23 22 0 8 17 38 109 39 13 5 6 5 0 0 0 0 0 0
0 0 0 0 0 0 0 0 0 0 0 0 0 0 0 0 0 1 37 25 30 47 105 236 780 354 296 184 145 105 82 13 4 4 2 29 67 130 127 28 8 5 2 0 0 3 6 7 6
0 0 0 0 0 0 0 0 0 0 0 0 0 0 0 0 0 15 57 29 27 62 122 209 367 399 320 226 123 106 56 57 22 0 0 6 49 115 124 96 7 3 8 9 0 0 0 15 18
0 0 0 0 0 0 0 0 0 0 0 0 0 0 0 0 0 4 66 42 56 107 186 143 186 183 411 222 241 159 105 112 64 34 0 3 0 1 6 4 0 1 1 9 0 0 0 0 0
0 0 0 0 0 0 0 0 0 0 0 0 0 0 5 0 0 0 36 60 81 166 251 249 248 352 304 260 164 120 124 100 48 32 1 0 0 0 0 0 0 0 0 0 0 0 0 0 0
0 0 0 0 0 0 0 0 0 0 0 0 0 0 0 0 0 0 0 29 85 193 304 355 324 410 346 297 400 149 115 114 81 28 1 0 0 0 0 0 0 0 0 0 0 0 0 0 0
0 0 0 0 0 0 0 0 0 0 0 0 0 0 0 0 0 0 0 0 29 122 232 378 416 470 437 282 286 223 217 149 118 36 9 0 0 0 0 0 0 0 0 0 0 0 0 0 0
13 0 0 0 0 0 0 0 0 0 0 0 0 0 0 0 0 0 0 0 0 14 112 246 459 517 535 453 327 227 175 135 66 30 7 0 0 0 0 0 0 0 0 0 0 0 0 0 0
17 4 0 0 2 0 0 0 0 0 0 0 0 0 0 0 0 0 0 0 0 0 5 96 267 514 582 517 410 291 203 149 93 44 24 0 0 0 0 0 0 0 1 0 0 1 1 2 0
13 5 0 0 7 0 0 0 0 0 0 0 0 0 0 0 0 0 0 0 0 0 2 26 104 281 478 559 467 361 271 176 127 132 120 63 57 39 23 15 12 15 6 20 26 21 12 15 11
22 24 6 8 8 0 0 0 0 0 0 0 0 0 0 0 0 0 0 0 0 1 3 9 32 88 254 404 446 378 289 223 193 158 153 117 58 42 32 45 34 39 27 23 4 9 5 9 20
86 67 15 9 23 1 1 0 0 0 0 0 0 0 0 0 0 0 0 0 0 0 0 0 0 2 117 296 372 333 283 191 208 162 116 75 35 22 31 29 28 13 1 3 11 13 4 2 1
51 136 16 8 31 5 2 0 0 0 0 0 0 0 0 0 0 0 0 0 0 0 0 0 0 0 33 207 301 261 205 156 108 49 39 13 3 2 14 1 0 0 0 0 0 0 0 0 0
112 19 14 41 30 1 10 0 0 0 0 0 0 0 0 0 0 0 0 0 0 0 0 0 0 1 38 170 168 89 59 54 48 19 2 0 0 0 0 0 0 0 0 0 0 0 0 0 0
23 22 53 50 14 9 13 0 0 0 0 0 0 0 0 0 0 0 0 0 0 0 0 0 0 7 29 37 51 72 6 0 0 0 0 0 0 0 0 0 0 0 0 0 0 0 0 0 0
82 139 76 110 17 25 3 0 0 0 0 0 0 0 0 0 0 0 0 0 0 0 0 0 2 19 62 76 0 0 0 0 0 0 0 0 0 0 0 0 0 0 0 0 0 0 0 0 0
121 122 122 81 3 0 0 0 0 0 0 0 0 0 0 0 0 0 0 0 0 0 0 0 0 0 0 0 0 0 0 0 0 0 0 0 0 0 0 0 0 0 0 0 0 0 0 0 0
85 89 117 57 15 0 2 0 0 0 0 0 0 0 0 0 0 0 0 0 0 0 0 0 0 0 0 0 0 0 0 0 0 0 0 0 0 0 0 0 0 0 0 0 0 0 0 0 0
25 44 14 27 12 8 2 0 0 0 0 0 0 0 0 0 0 0 0 0 0 0 0 0 0 0 0 0 0 0 0 0 0 0 0 0 0 0 0 0 0 0 0 0 0 0 0 0 0
22 9 12 60 76 59 7 0 0 0 0 0 0 0 0 0 0 0 0 0 0 0 0 0 0 0 0 0 0 0 0 0 0 0 0 0 0 0 0 0 0 0 0 0 0 0 0 0 0
43 78 68 47 37 2 2 0 0 0 0 0 0 0 0 0 0 0 0 0 0 0 0 0 0 0 0 0 0 0 0 0 0 0 0 0 0 0 0 0 0 0 0 0 0 0 0 0 0
10 14 8 8 14 0 5 6 0 0 0 0 0 0 0 0 0 0 0 0 0 0 0 0 0 0 0 0 0 0 0 0 0 0 0 0 0 0 0 0 0 0 0 0 0 0 0 0 0
2 4 0 2 0 0 0 0 0 0 0 0 0 0 0 0 0 0 0 0 0 0 0 0 0 0 0 0 0 0 0 0 0 0 0 0 0 0 0 0 0 0 0 0 0 0 0 0 0
0 3 0 3 0 24 0 0 0 0 0 0 0 0 0 0 0 0 0 0 0 0 0 0 0 0 0 0 0 0 0 0 0 0 0 0 0 0 0 0 0 0 0 0 0 0 0 0 0
4 37 2 8 0 6 1 1 5 0 0 0 0 0 0 0 0 0 0 0 0 0 0 0 0 0 0 0 0 0 0 0 0 0 0 0 0 0 0 0 0 0 0 0 0 0 0 0 0
0 8 2 5 3 47 40 1 2 0 0 0 0 0 0 0 0 0 0 0 0 0 0 0 0 0 0 0 0 0 0 0 0 0 0 0 0 0 0 0 0 0 0 0 0 0 0 0 0
17 1 4 32 0 0 1 0 0 0 0 0 0 0 0 0 0 0 0 0 0 0 0 0 0 0 0 0 0 0 0 0 0 0 0 0 0 0 0 0 0 0 0 0 0 0 0 0 0

GFSSGP_con_mlcape_006.txt.gz
CAPE
0 0 0 0 0 0 0 0 6 7 7 0 0 0 0 0 0 0 4 0 0 46 105 312 558 256 237 172 47 2 0 0 0 0 1 0 9 6 2 0 4 7 8 3 0 0 0 0 4
0 0 0 0 0 0 0 0 4 0 0 0 0 0 0 0 0 8 39 0 0 65 102 179 555 192 190 157 56 17 4 0 0 0 10 23 16 16 9 3 6 6 0 0 0 0 0 0 0
0 0 0 0 0 0 0 0 0 0 0 0 0 0 0 0 0 2 27 0 0 16 183 438 197 169 195 99 20 16 14 0 0 0 3 23 32 46 19 7 7 4 0 0 0 0 0 0 0
0 0 0 0 0 0 0 0 0 0 0 0 0 0 0 0 0 7 26 0 9 11 379 354 279 302 185 88 74 23 11 9 0 0 4 19 51 80 98 19 10 0 0 0 0 0 0 0 0
0 0 0 0 0 0 0 0 0 0 0 0 0 0 0 0 0 20 31 23 24 59 526 498 529 339 191 186 121 54 32 1 0 0 1 15 56 106 131 43 12 0 0 0 0 0 0 0 2
0 0 0 0 0 0 0 0 0 0 0 0 0 0 0 0 0 27 41 24 36 83 228 455 598 271 227 154 83 62 62 32 14 0 0 0 20 71 98 90 4 0 0 0 0 0 0 0 0
0 0 0 0 0 0 0 0 0 0 0 0 0 0 0 0 0 32 56 34 48 111 179 182 328 207 257 237 232 110 64 79 49 24 0 1 0 0 10 44 1 0 0 0 0 0 0 0 0
0 0 0 0 0 0 0 0 0 0 0 0 0 0 0 0 0 8 71 74 70 159 195 181 260 226 228 75 119 108 96 104 41 33 9 0 0 0 0 0 0 0 0 0 0 0 0 0 0
3 0 0 0 0 0 0 0 0 0 0 0 0 0 0 0 0 0 0 60 104 176 236 246 265 355 301 281 201 106 74 86 66 31 4 0 0 0 0 0 0 0 0 0 0 0 0 0 0
2 0 0 0 0 0 0 0 0 0 0 0 0 0 0 0 0 0 0 6 56 158 235 330 318 367 317 254 285 196 100 95 71 70 49 8 0 0 0 0 0 0 0 0 0 0 0 0 0
3 0 0 0 0 0 0 0 0 0 0 0 0 0 0 0 0 0 0 0 1 61 179 327 375 374 369 285 223 237 199 138 108 66 21 2 0 0 0 0 0 0 0 0 0 0 0 0 0
15 10 0 0 0 7 0 0 0 0 0 0 0 0 0 0 0 0 0 0 0 6 105 227 345 430 447 414 305 235 133 114 72 51 33 11 6 1 0 0 0 1 4 2 5 8 9 12 12
14 13 9 1 0 0 2 0 0 0 0 0 0 0 0 0 0 0 0 0 0 0 0 60 191 372 480 487 393 284 171 126 101 100 112 89 85 71 64 69 83 48 20 19 6 5 6 3 3
44 33 19 10 1 1 1 0 0 0 0 0 0 0 0 0 0 0 0 0 0 0 5 11 29 166 368 475 424 340 228 160 151 147 150 127 102 81 94 44 14 5 2 4 3 2 0 0 0
44 48 55 9 4 6 2 0 0 0 0 0 0 0 0 0 0 0 0 0 0 0 0 0 0 17 181 330 392 282 205 182 181 131 109 82 63 27 13 2 0 0 0 0 0 0 0 0 0
28 49 9 0 8 9 5 0 0 0 0 0 0 0 0 0 0 0 0 0 0 0 0 0 0 0 54 277 284 222 156 131 78 68 39 2 0 0 0 0 0 0 0 0 0 0 0 0 0
13 0 0 0 15 5 9 0 0 0 0 0 0 0 0 0 0 0 0 0 0 0 0 0 0 0 59 206 81 51 24 7 0 0 0 0 0 0 0 0 0 0 0 0 0 0 0 0 0
2 13 0 2 0 38 3 10 0 0 0 0 0 0 0 0 0 0 0 0 0 0 0 0 1 34 86 31 1 0 0 0 0 0 0 0 0 0 0 0 0 0 0 0 0 0 0 0 0
4 17 47 18 61 73 15 9 0 0 0 0 0 0 0 0 0 0 0 0 0 0 0 0 2 5 4 4 0 0 0 0 0 0 0 0 0 0 0 0 0 0 0 0 0 0 0 0 0
1 8 9 40 146 68 42 19 0 0 0 0 0 0 0 0 0 0 0 0 0 0 0 1 0 0 0 0 0 0 0 0 0 0 0 0 0 0 0 0 0 0 0 0 0 0 0 0 0
13 4 13 34 124 73 39 10 0 0 0 0 0 0 0 0 0 0 0 0 0 0 0 0 0 0 0 0 0 0 0 0 0 0 0 0 0 0 0 0 0 0 0 0 0 0 0 0 0
5 0 10 0 71 5 0 0 0 0 0 0 0 0 0 0 0 0 0 0 0 0 0 0 0 0 0 0 0 0 0 0 0 0 0 0 0 0 0 0 0 0 0 0 0 0 0 0 0
1 0 11 0 1 16 0 0 0 0 0 0 0 0 0 0 0 0 0 0 0 0 0 0 0 0 0 0 0 0 0 0 0 0 0 0 0 0 0 0 0 0 0 0 0 0 0 0 0
2 8 5 20 0 6 0 0 0 0 0 0 0 0 0 0 0 0 0 0 0 0 0 0 0 0 0 0 0 0 0 0 0 0 0 0 0 0 0 0 0 0 0 0 0 0 0 0 0
78 37 40 17 1 1 1 44 0 0 0 0 0 0 0 0 0 0 0 0 0 0 0 0 0 0 0 0 0 0 0 0 0 0 0 0 0 0 0 0 0 0 0 0 0 0 0 0 0
39 1 0 13 0 3 0 0 3 0 0 0 0 0 0 0 0 0 0 0 0 0 0 0 0 0 0 0 0 0 0 0 0 0 0 0 0 0 0 0 0 0 0 0 0 0 0 0 0
29 7 0 2 0 0 0 0 0 0 0 0 0 0 0 0 0 0 0 0 0 0 0 0 0 0 0 0 0 0 0 0 0 0 0 0 0 0 0 0 0 0 0 0 0 0 0 0 0
4 0 0 2 0 0 0 0 0 0 0 0 0 0 0 0 0 0 0 0 0 0 0 0 0 0 0 0 0 0 0 0 0 0 0 0 0 0 0 0 0 0 0 0 0 0 0 0 0
8 5 7 1 6 3 0 1 0 0 0 0 0 0 0 0 0 0 0 0 0 0 0 0 0 0 0 0 0 0 0 0 0 0 0 0 0 0 0 0 0 0 0 0 0 0 0 0 0
1 5 0 5 0 0 0 0 0 0 0 0 0 0 0 0 0 0 0 0 0 0 0 0 0 0 0 0 0 0 0 0 0 0 0 0 0 0 0 0 0 0 0 0 0 0 0 0 0

GFSSGP_con_mlcape_009.txt.gz
CAPE
0 0 0 0 0 0 0 0 0 0 0 0 0 0 0 0 0 0 0 16 50 73 417 606 558 257 285 152 13 0 0 0 0 0 0 0 6 8 18 14 1 0 0 0 0 0 0 0 0
0 0 0 0 0 0 0 0 0 0 0 0 0 0 0 0 0 10 7 12 73 83 147 392 351 434 268 87 22 0 0 0 0 0 11 4 11 5 2 6 9 3 0 0 0 0 0 0 0
0 0 0 0 0 0 0 0 0 0 0 0 0 0 0 0 0 30 3 7 100 100 80 279 604 149 240 142 18 7 1 0 0 0 2 18 32 39 25 9 8 0 0 0 0 0 0 0 0
0 0 0 0 0 0 0 0 0 0 0 0 0 0 0 0 0 7 0 0 68 146 296 357 155 399 257 55 21 14 6 0 0 0 0 7 43 49 86 24 9 0 0 0 0 0 0 0 0
0 0 0 0 0 0 0 0 0 0 0 0 0 0 0 0 0 0 0 0 70 273 453 307 451 390 184 90 44 24 10 1 0 0 0 0 35 64 74 33 1 0 0 0 0 0 0 0 2
0 0 0 0 0 0 0 0 0 0 0 0 0 0 0 0 8 18 11 8 175 326 443 506 604 303 193 209 89 55 37 12 5 0 0 0 2 36 94 97 4 0 0 0 0 0 0 0 0
0 0 0 0 0 0 0 0 0 0 0 0 0 0 0 0 0 16 14 17 249 404 369 310 535 324 151 194 107 71 75 49 17 6 0 0 0 0 13 101 27 1 0 0 0 0 0 0 0
0 0 0 0 0 0 0 0 0 0 0 0 0 0 0 0 0 16 13 18 79 235 250 256 198 136 184 180 208 146 98 97 48 21 3 0 0 0 0 0 0 0 0 0 0 0 0 0 0
0 0 0 0 0 0 0 0 0 0 0 0 0 0 0 0 0 0 3 34 58 140 219 235 248 121 62 38 146 128 64 75 48 26 2 0 0 0 0 0 0 0 0 0 0 0 0 0 0
0 0 0 0 0 0 0 0 0 0 0 0 0 0 0 0 0 0 0 0 34 101 182 206 277 291 261 206 177 104 54 52 35 18 13 7 0 0 0 0 0 0 0 0 0 0 0 0 0
0 0 0 0 0 0 0 0 0 0 0 0 0 0 0 0 0 0 0 0 0 60 151 265 210 317 287 315 260 139 80 75 60 42 27 13 0 0 0 0 0 0 0 0 0 0 5 11 9
0 0 0 0 0 0 0 0 0 0 0 0 0 0 0 0 0 0 0 0 0 37 157 273 322 326 268 199 179 211 121 87 54 48 12 2 6 1 5 7 8 3 5 7 14 5 8 4 4
0 0 0 0 0 0 0 0 0 0 0 0 0 0 0 0 0 0 0 0 0 6 151 244 331 339 330 284 234 150 81 67 42 28 49 61 55 48 77 76 53 12 2 2 0 0 0 0 0
2 0 0 0 0 0 0 0 0 0 0 0 0 0 0 0 0 0 0 0 0 0 78 205 195 347 366 333 278 166 91 59 58 85 90 109 96 91 68 9 0 0 0 0 0 0 0 0 0
0 0 0 0 0 0 0 0 0 0 0 0 0 0 0 0 0 0 0 0 0 0 0 0 36 204 340 370 248 169 99 86 94 54 44 28 37 14 0 0 0 0 0 0 0 0 0 0 0
0 11 2 0 0 0 10 0 0 0 0 0 0 0 0 0 0 0 0 0 0 0 0 0 0 30 254 310 214 139 76 17 0 0 0 0 0 0 0 0 0 0 0 0 0 0 0 0 0
6 0 12 4 0 12 23 0 0 0 0 0 0 0 0 0 0 0 0 0 0 0 0 0 0 0 203 174 24 0 0 0 0 0 0 0 0 0 0 0 0 0 0 0 0 0 0 0 0
7 2 1 1 0 11 21 0 0 0 0 0 0 0 0 0 0 0 0 0 0 0 0 0 0 17 16 0 0 0 0 0 0 0 0 0 0 0 0 0 0 0 0 0 0 0 0 0 0
0 0 10 2 0 16 0 0 0 0 0 0 0 0 0 0 0 0 0 0 0 0 0 0 4 2 0 0 0 0 0 0 0 0 0 0 0 0 0 0 0 0 0 0 0 0 0 0 0
1 1 0 0 0 33 12 0 0 0 0 0 0 0 0 0 0 0 0 0 0 0 0 0 0 0 0 0 0 0 0 0 0 0 0 0 0 0 0 0 0 0 0 0 0 0 0 0 0
3 0 0 0 0 4 42 6 0 0 0 0 0 0 0 0 0 0 0 0 0 0 0 0 0 0 0 0 0 0 0 0 0 0 0 0 0 0 0 0 0 0 0 0 0 0 0 0 0
0 0 1 3 5 0 43 28 0 0 0 0 0 0 0 0 0 0 0 0 0 0 0 0 0 0 0 0 0 0 0 0 0 0 0 0 0 0 0 0 0 0 0 0 0 0 0 0 0
0 0 0 12 4 6 0 4 0 0 0 0 0 0 0 0 0 0 0 0 0 0 0 0 0 0 0 0 0 0 0 0 0 0 0 0 0 0 0 0 0 0 0 0 0 0 0 0 0
0 5 3 30 12 4 0 1 0 0 0 0 0 0 0 0 0 0 0 0 0 0 0 0 0 0 0 0 0 0 0 0 0 0 0 0 0 0 0 0 0 0 0 0 0 0 0 0 0
24 8 8 16 4 1 0 0 0 0 0 0 0 0 0 0 0 0 0 0 0 0 0 0 0 0 0 0 0 0 0 0 0 0 0 0 0 0 0 0 0 0 0 0 0 0 0 0 0
0 3 3 1 0 0 21 0 0 0 0 0 0 0 0 0 0 0 0 0 0 0 0 0 0 0 0 0 0 0 0 0 0 0 0 0 0 0 0 0 0 0 0 0 0 0 0 0 0
0 5 0 8 12 9 0 0 0 0 0 0 0 0 0 0 0 0 0 0 0 0 0 0 0 0 0 0 0 0 0 0 0 0 0 0 0 0 0 0 0 0 0 0 0 0 0 0 0
0 0 1 5 8 1 5 0 0 0 0 0 0 0 0 0 0 0 0 0 0 0 0 0 0 0 0 0 0 0 0 0 0 0 0 0 0 0 0 0 0 0 0 0 0 0 0 0 0
1 5 11 9 0 3 0 0 0 0 0 0 0 0 0 0 0 0 0 0 0 0 0 0 0 0 0 0 0 0 0 0 0 0 0 0 0 0 0 0 0 0 0 0 0 0 0 0 0
9 5 1 0 0 1 0 0 0 0 0 0 0 0 0 0 0 0 0 0 0 0 0 0 0 0 0 0 0 0 0 0 0 0 0 0 0 0 0 0 0 0 0 0 0 0 0 0 0

GFSSGP_con_mlcape_012.txt.gz
CAPE
0 0 0 0 0 0 0 0 0 0 0 0 0 0 0 0 0 0 0 23 45 118 720 617 705 633 392 169 21 0 0 0 0 0 1 4 5 15 19 17 4 0 0 0 0 0 0 0 0
0 0 0 0 0 0 0 0 0 0 0 0 0 0 0 0 0 0 0 46 46 96 638 482 519 396 358 76 16 0 0 0 0 0 0 0 1 16 9 7 0 0 0 0 0 0 0 0 0
0 0 0 0 0 0 0 0 0 0 0 0 0 0 0 0 0 0 0 63 72 90 444 481 541 507 452 97 19 0 0 0 0 0 4 14 22 15 12 2 0 0 0 0 0 0 0 0 0
0 0 0 0 0 0 0 0 0 0 0 0 0 0 0 0 0 0 13 89 94 67 183 438 738 648 435 125 33 13 1 0 0 0 0 15 22 17 30 9 0 0 0 0 0 0 0 0 0
0 0 0 0 0 0 0 0 0 0 0 0 0 0 0 0 2 0 16 98 90 91 165 669 651 461 430 78 31 23 7 0 0 0 0 1 10 18 38 29 0 0 0 0 0 0 0 0 1
0 0 0 0 0 0 0 0 0 0 0 0 0 0 0 0 18 3 0 67 158 228 314 559 591 537 215 99 42 36 13 3 0 0 0 0 0 22 75 27 0 0 0 0 3 1 2 0 0
0 0 0 0 0 0 0 0 0 0 0 0 0 0 0 0 5 1 0 59 260 427 483 459 674 457 241 163 91 67 27 12 2 0 0 2 0 0 56 116 42 15 0 2 3 3 1 0 0
0 0 0 0 0 0 0 0 0 0 0 0 0 0 0 0 0 5 0 112 318 483 490 435 465 374 199 239 95 97 85 25 13 9 0 0 0 0 2 49 24 6 0 0 0 0 0 1 2
0 0 0 0 0 0 0 0 0 0 0 0 0 0 0 0 0 10 1 97 364 461 400 359 315 328 99 142 113 112 118 69 34 12 0 0 0 0 0 0 0 0 0 0 0 3 17 12 3
0 0 0 0 0 0 0 0 0 0 0 0 0 0 0 0 0 0 0 0 96 238 292 310 219 93 72 166 126 153 77 57 20 6 1 0 0 0 0 0 0 0 1 10 14 32 41 33 11
0 0 0 0 0 0 0 0 0 0 0 0 0 0 0 0 0 0 0 0 12 55 248 293 248 163 150 89 55 100 31 21 16 9 8 5 0 0 0 0 0 0 0 0 3 6 7 8 1
0 0 0 0 0 0 0 0 0 0 0 0 0 0 0 0 0 0 0 0 0 31 161 271 283 251 279 233 227 144 51 30 20 29 25 20 0 0 0 0 21 28 32 3 0 0 0 0 0
0 0 0 0 0 0 0 0 0 0 0 0 0 0 0 0 0 0 0 0 0 0 123 240 256 292 319 319 254 151 106 71 43 43 12 2 27 27 43 20 0 0 0 0 0 0 0 0 0
0 0 0 0 0 0 0 0 0 0 0 0 0 0 0 0 0 0 0 0 0 0 27 216 290 281 255 257 199 149 99 81 11 24 47 51 55 53 0 0 0 0 0 0 0 0 0 0 0
0 0 0 0 0 0 0 0 0 0 0 0 0 0 0 0 0 0 0 0 0 0 13 195 307 296 320 289 196 114 50 38 20 1 2 1 0 0 0 0 0 0 0 0 0 0 0 0 0
0 0 0 0 0 0 0 0 0 0 0 0 0 0 0 0 0 0 0 0 0 0 2 83 162 295 347 327 227 78 6 0 0 0 0 0 0 0 0 0 0 0 0 0 0 0 0 0 0
4 0 0 1 0 0 0 0 0 0 0 0 0 0 0 0 0 0 0 0 0 0 0 0 2 188 272 109 0 0 0 0 0 0 0 0 0 0 0 0 0 0 0 0 0 0 0 0 0
0 0 0 0 0 0 0 0 0 0 0 0 0 0 0 0 0 0 0 0 0 0 0 0 0 75 1 0 0 0 0 0 0 0 0 0 0 0 0 0 0 0 0 0 0 0 0 0 0
0 1 0 0 0 0 0 0 0 0 0 0 0 0 0 0 0 0 0 0 0 0 0 0 0 0 0 0 0 0 0 0 0 0 0 0 0 0 0 0 0 0 0 0 0 0 0 0 0
0 0 0 0 0 0 1 0 0 0 0 0 0 0 0 0 0 0 0 0 0 0 0 0 0 0 0 0 0 0 0 0 0 0 0 0 0 0 0 0 0 0 0 0 0 0 0 0 0
0 0 0 0 0 0 0 0 0 0 0 0 0 0 0 0 0 0 0 0 0 0 0 0 0 0 0 0 0 0 0 0 0 0 0 0 0 0 0 0 0 0 0 0 0 0 0 0 0
0 0 0 1 6 0 19 0 0 0 0 0 0 0 0 0 0 0 0 0 0 0 0 0 0 0 0 0 0 0 0 0 0 0 0 0 0 0 0 0 0 0 0 0 0 0 0 0 0
1 0 0 4 13 12 0 1 0 0 0 0 0 0 0 0 0 0 0 0 0 0 0 0 0 0 0 0 0 0 0 0 0 0 0 0 0 0 0 0 0 0 0 0 0 0 0 0 0
9 20 16 20 15 0 0 0 0 0 0 0 0 0 0 0 0 0 0 0 0 0 0 0 0 0 0 0 0 0 0 0 0 0 0 0 0 0 0 0 0 0 0 0 0 0 0 0 0
8 13 0 0 0 0 0 0 0 0 0 0 0 0 0 0 0 0 0 0 0 0 0 0 0 0 0 0 0 0 0 0 0 0 0 0 0 0 0 0 0 0 0 0 0 0 0 0 0
3 0 0 0 0 0 0 0 0 0 0 0 0 0 0 0 0 0 0 0 0 0 0 0 0 0 0 0 0 0 0 0 0 0 0 0 0 0 0 0 0 0 0 0 0 0 0 0 0
0 12 0 0 1 7 0 0 0 0 0 0 0 0 0 0 0 0 0 0 0 0 0 0 0 0 0 0 0 0 0 0 0 0 0 0 0 0 0 0 0 0 0 0 0 0 0 0 0
0 1 0 4 0 0 0 0 0 0 0 0 0 0 0 0 0 0 0 0 0 0 0 0 0 0 0 0 0 0 0 0 0 0 0 0 0 0 0 0 0 0 0 0 0 0 0 0 0
1 12 8 0 0 23 0 0 0 0 0 0 0 0 0 0 0 0 0 0 0 0 0 0 0 0 0 0 0 0 0 0 0 0 0 0 0 0 0 0 0 0 0 0 0 0 0 0 0
1 0 0 11 0 0 0 0 0 0 0 0 0 0 0 0 0 0 0 0 0 0 0 0 0 0 0 0 0 0 0 0 0 0 0 0 0 0 0 0 0 0 0 0 0 0 0 0 0

GFSSGP_con_mlcape_015.txt.gz
CAPE
0 0 0 0 0 0 0 0 0 0 0 0 0 0 0 0 0 0 0 29 49 96 826 869 594 928 486 109 24 0 0 0 0 0 46 9 6 4 20 14 0 0 0 0 0 0 0 0 0
0 0 0 0 0 0 0 0 0 0 0 0 0 0 0 0 2 2 17 36 104 249 861 685 900 848 495 108 27 0 0 0 0 0 0 2 8 9 9 0 0 0 0 0 0 0 0 0 0
0 0 0 0 0 0 0 0 0 0 0 0 0 0 0 2 20 2 2 61 187 197 708 507 790 695 454 119 32 0 0 0 0 0 3 5 5 9 5 0 0 0 0 0 0 0 0 0 0
0 0 0 0 0 0 0 0 0 0 0 0 0 0 0 0 11 15 30 94 99 93 510 467 734 670 466 135 49 6 0 0 0 0 0 13 27 30 22 0 0 0 0 0 0 0 0 0 0
0 0 0 0 0 0 0 0 0 0 0 0 0 0 0 0 0 9 70 108 77 74 336 554 719 768 533 212 58 24 0 0 0 0 0 15 17 16 43 40 0 0 0 0 0 0 0 0 0
0 0 0 0 0 0 0 0 0 0 0 0 0 0 0 0 7 5 76 87 110 67 231 578 944 827 592 219 87 56 15 4 0 0 0 0 0 15 38 24 0 0 0 0 0 0 0 3 0
0 0 0 0 0 0 0 0 0 0 0 0 0 0 0 0 11 0 43 105 164 131 315 625 892 769 529 147 109 73 25 6 0 0 0 1 0 1 99 82 19 5 1 0 0 0 0 0 5
0 0 0 0 0 0 0 0 0 0 0 0 0 0 0 0 1 0 0 146 271 377 445 573 499 652 362 225 129 83 37 15 2 0 0 0 0 0 2 60 20 20 13 8 3 0 1 17 28
0 0 0 0 0 0 0 0 0 0 0 0 0 0 0 0 0 10 6 136 362 512 612 523 491 472 372 254 178 131 114 42 17 5 0 0 0 0 0 0 0 1 9 16 14 42 63 66 52
0 0 0 0 0 0 0 0 0 0 0 0 0 0 0 0 0 3 4 83 315 482 563 539 469 400 309 262 222 152 153 89 43 7 0 0 0 0 0 0 0 2 7 13 24 58 54 15 4
0 0 0 0 0 0 0 0 0 0 0 0 0 0 0 0 0 0 0 0 90 345 459 507 388 332 292 135 132 180 138 101 40 2 0 0 0 0 0 0 0 0 0 0 10 0 0 0 0
0 0 0 0 0 0 0 0 0 0 0 0 0 0 0 0 0 0 0 0 1 50 280 404 375 285 171 107 108 137 115 26 12 0 0 1 0 0 0 0 7 10 2 0 0 0 0 0 0
0 0 0 0 0 0 0 0 0 0 0 0 0 0 0 0 0 0 0 0 0 0 69 296 334 266 216 160 153 157 139 54 25 17 11 3 0 0 4 0 0 0 0 0 0 0 0 0 0
0 0 0 0 0 0 0 0 0 0 0 0 0 0 0 0 0 0 0 0 0 0 0 102 311 317 300 340 285 273 177 118 49 21 6 0 1 0 0 0 0 0 0 0 0 0 0 0 0
0 0 0 0 0 0 0 0 0 0 0 0 0 0 0 0 0 0 0 0 0 0 0 0 190 283 345 420 348 286 196 85 9 0 1 0 0 0 0 0 0 0 0 0 0 0 0 0 0
6 2 0 0 0 0 0 0 0 0 0 0 0 0 0 0 0 0 0 0 0 0 0 0 192 283 312 360 263 140 11 0 0 0 0 0 0 0 0 0 0 0 0 0 0 0 0 0 0
4 0 0 0 0 0 0 0 0 0 0 0 0 0 0 0 0 0 0 0 0 0 0 0 179 327 301 144 8 0 0 0 0 0 0 0 0 0 0 0 0 0 0 0 0 0 0 0 0
0 2 1 0 0 0 0 0 0 0 0 0 0 0 0 0 0 0 0 0 0 0 0 0 94 192 6 0 0 0 0 0 0 0 0 0 0 0 0 0 0 0 0 0 0 0 0 0 0
0 0 0 0 0 0 0 0 0 0 0 0 0 0 0 0 0 0 0 0 0 0 0 0 10 0 0 0 0 0 0 0 0 0 0 0 0 0 0 0 0 0 0 0 0 0 0 0 0
0 0 0 0 0 0 0 0 0 0 0 0 0 0 0 0 0 0 0 0 0 0 0 0 0 0 0 0 0 0 0 0 0 0 0 0 0 0 0 0 0 0 0 0 0 0 0 0 0
0 0 0 0 0 0 0 0 0 0 0 0 0 0 0 0 0 0 0 0 0 0 0 0 0 0 0 0 0 0 0 0 0 0 0 0 0 0 0 0 0 0 0 0 0 0 0 0 0
0 0 0 0 0 0 0 0 0 0 0 0 0 0 0 0 0 0 0 0 0 0 0 0 0 0 0 0 0 0 0 0 0 0 0 0 0 0 0 0 0 0 0 0 0 0 0 0 0
3 0 0 1 0 0 0 0 0 0 0 0 0 0 0 0 0 0 0 0 0 0 0 0 0 0 0 0 0 0 0 0 0 0 0 0 0 0 0 0 0 0 0 0 0 0 0 0 0
8 3 10 12 3 0 0 0 0 0 0 0 0 0 0 0 0 0 0 0 0 0 0 0 0 0 0 0 0 0 0 0 0 0 0 0 0 0 0 0 0 0 0 0 0 0 0 0 0
0 9 0 0 3 0 0 0 0 0 0 0 0 0 0 0 0 0 0 0 0 0 0 0 0 0 0 0 0 0 0 0 0 0 0 0 0 0 0 0 0 0 0 0 0 0 0 0 0
0 0 0 0 0 0 0 0 0 0 0 0 0 0 0 0 0 0 0 0 0 0 0 0 0 0 0 0 0 0 0 0 0 0 0 0 0 0 0 0 0 0 0 0 0 0 0 0 0
0 0 0 0 0 0 0 0 0 0 0 0 0 0 0 0 0 0 0 0 0 0 0 0 0 0 0 0 0 0 0 0 0 0 0 0 0 0 0 0 0 0 0 0 0 0 0 0 0
0 0 0 0 0 0 0 0 0 0 0 0 0 0 0 0 0 0 0 0 0 0 0 0 0 0 0 0 0 0 0 0 0 0 0 0 0 0 0 0 0 0 0 0 0 0 0 0 0
0 2 6 0 0 0 0 0 0 0 0 0 0 0 0 0 0 0 0 0 0 0 0 0 0 0 0 0 0 0 0 0 0 0 0 0 0 0 0 0 0 0 0 0 0 0 0 0 0
1 0 0 37 0 0 1 0 0 0 0 0 0 0 0 0 0 0 0 0 0 0 0 0 0 0 0 0 0 0 0 0 0 0 0 0 0 0 0 0 0 0 0 0 0 0 0 0 0

GFSSGP_con_mlcape_018.txt.gz
CAPE
0 0 0 0 0 0 0 0 0 0 0 0 0 0 0 0 0 0 3 35 29 41 306 761 420 728 421 84 31 0 0 0 0 24 55 16 9 5 19 13 0 0 0 0 0 0 0 0 0
0 0 0 0 0 0 0 0 0 0 0 0 0 0 0 0 3 6 44 45 98 118 746 683 569 955 532 119 54 0 0 0 0 10 15 5 9 9 3 0 0 0 0 0 0 0 0 0 0
0 0 0 0 0 0 0 0 0 0 0 0 0 0 0 4 20 12 11 71 185 361 885 739 821 942 605 214 66 13 0 0 0 0 0 9 8 1 0 0 0 0 0 0 0 0 0 0 0
0 0 0 0 0 0 0 0 0 0 0 0 0 0 0 0 15 5 39 132 248 443 792 801 1087 949 642 253 99 31 0 0 0 0 4 21 19 13 4 0 0 0 0 0 0 0 0 0 0
0 0 0 0 0 0 0 0 0 0 0 0 0 0 0 0 0 11 90 196 127 391 695 800 975 921 576 329 130 43 1 0 0 0 0 14 15 23 34 19 0 0 0 0 0 0 0 0 0
0 0 0 0 0 0 0 0 0 0 0 0 0 0 0 0 1 58 110 113 151 194 502 642 917 895 702 410 142 87 19 0 0 0 0 10 7 23 32 51 5 0 0 0 0 1 0 1 1
0 0 0 0 0 0 0 0 0 0 0 0 0 0 0 0 0 53 105 140 168 201 440 611 891 960 784 511 209 124 77 39 0 0 0 0 0 3 75 26 2 0 0 1 2 4 3 0 13
0 0 0 0 0 0 0 0 0 0 0 0 0 0 0 0 0 0 95 197 221 225 407 567 837 1010 754 478 232 148 98 46 0 0 0 0 0 0 0 69 21 15 13 8 20 16 26 51 51
0 0 0 0 0 0 0 0 0 0 0 0 0 0 0 0 0 0 23 233 340 372 423 667 829 724 650 385 271 176 102 53 28 0 0 0 0 0 0 0 0 0 2 19 24 63 81 38 18
0 0 0 0 0 0 0 0 0 0 0 0 0 0 0 0 0 0 0 17 273 373 513 644 760 570 597 462 308 219 172 106 51 9 0 0 0 0 0 0 0 0 0 0 1 12 2 0 0
0 0 0 0 0 0 0 0 0 0 0 0 0 0 0 0 0 0 0 7 89 328 544 693 630 592 560 468 304 231 183 155 74 20 0 0 0 0 0 0 0 0 0 2 0 0 0 0 0
0 0 0 0 0 0 0 0 0 0 0 0 0 0 0 0 0 0 0 0 0 157 459 688 678 597 520 403 249 175 153 148 69 15 0 0 0 0 0 0 1 0 0 0 0 0 0 0 0
0 0 0 0 0 0 0 0 0 0 0 0 0 0 0 0 0 0 0 0 0 0 56 403 608 549 437 399 162 144 189 121 53 9 0 0 0 0 0 0 0 0 0 0 0 0 0 0 0
0 0 0 0 0 0 0 0 0 0 0 0 0 0 0 0 0 0 0 0 0 0 0 10 279 484 389 305 124 148 181 122 53 31 13 2 0 0 0 0 0 0 0 0 0 0 0 0 0
0 0 0 0 0 0 0 0 0 0 0 0 0 0 0 0 0 0 0 0 0 0 0 0 5 294 366 223 178 193 194 144 74 34 7 2 0 0 0 0 0 0 0 0 0 0 0 0 0
1 3 0 0 0 0 0 0 0 0 0 0 0 0 0 0 0 0 0 0 0 0 0 0 0 100 331 287 254 242 173 15 0 0 0 0 0 0 0 0 0 0 0 0 0 0 0 0 0
0 0 0 1 0 0 0 0 0 0 0 0 0 0 0 0 0 0 0 0 0 0 0 0 0 22 246 239 110 0 0 0 0 0 0 0 0 0 0 0 0 0 0 0 0 0 0 0 0
0 0 0 0 0 0 0 0 0 0 0 0 0 0 0 0 0 0 0 0 0 0 0 0 0 35 23 0 0 0 0 0 0 0 0 0 0 0 0 0 0 0 0 0 0 0 0 0 0
0 0 0 0 0 0 0 0 0 0 0 0 0 0 0 0 0 0 0 0 0 0 0 0 0 0 0 0 0 0 0 0 0 0 0 0 0 0 0 0 0 0 0 0 0 0 0 0 0
0 0 0 0 0 0 0 0 0 0 0 0 0 0 0 0 0 0 0 0 0 0 0 0 0 0 0 0 0 0 0 0 0 0 0 0 0 0 0 0 0 0 0 0 0 0 0 0 0
0 0 0 0 0 0 0 0 0 0 0 0 0 0 0 0 0 0 0 0 0 0 0 0 0 0 0 0 0 0 0 0 0 0 0 0 0 0 0 0 0 0 0 0 0 0 0 0 0
0 0 0 0 0 0 0 0 0 0 0 0 0 0 0 0 0 0 0 0 0 0 0 0 0 0 0 0 0 0 0 0 0 0 0 0 0 0 0 0 0 0 0 0 0 0 0 0 0
0 0 0 0 0 0 0 1 0 0 0 0 0 0 0 0 0 0 0 0 0 0 0 0 0 0 0 0 0 0 0 0 0 0 0 0 0 0 0 0 0 0 0 0 0 0 0 0 0
0 0 2 7 3 0 0 0 0 0 0 0 0 0 0 0 0 0 0 0 0 0 0 0 0 0 0 0 0 0 0 0 0 0 0 0 0 0 0 0 0 0 0 0 0 0 0 0 0
0 0 0 0 0 0 0 0 0 0 0 0 0 0 0 0 0 0 0 0 0 0 0 0 0 0 0 0 0 0 0 0 0 0 0 0 0 0 0 0 0 0 0 0 0 0 0 0 0
0 0 0 0 0 0 0 0 0 0 0 0 0 0 0 0 0 0 0 0 0 0 0 0 0 0 0 0 0 0 0 0 0 0 0 0 0 0 0 0 0 0 0 0 0 0 0 0 0
1 0 0 0 0 0 0 0 0 0 0 0 0 0 0 0 0 0 0 0 0 0 0 0 0 0 0 0 0 0 0 0 0 0 0 0 0 0 0 0 0 0 0 0 0 0 0 0 0
0 0 3 0 0 0 0 0 0 0 0 0 0 0 0 0 0 0 0 0 0 0 0 0 0 0 0 0 0 0 0 0 0 0 0 0 0 0 0 0 0 0 0 0 0 0 0 0 0
0 3 0 0 0 0 0 0 0 0 0 0 0 0 0 0 0 0 0 0 0 0 0 0 0 0 0 0 0 0 0 0 0 0 0 0 0 0 0 0 0 0 0 0 0 0 0 0 0
0 0 0 0 0 0 0 0 2 14 0 0 0 0 0 0 0 0 0 0 0 0 0 0 0 0 0 0 0 0 0 0 0 0 0 0 0 0 0 0 0 0 0 0 0 0 0 0 0

GFSSGP_con_mlcape_021.txt.gz
CAPE
0 0 0 0 0 0 0 0 0 0 0 0 0 0 0 0 9 7 2 45 27 161 624 903 600 560 404 89 38 0 0 0 0 26 47 25 17 2 10 10 0 0 0 0 0 0 1 2 0
0 0 0 0 0 0 0 0 0 0 0 0 0 0 0 0 3 18 52 61 73 337 691 771 786 752 457 135 57 0 0 0 0 39 26 17 10 1 0 0 0 0 0 0 0 0 0 0 0
0 0 0 0 0 0 0 0 0 0 0 0 0 0 0 0 0 4 20 77 144 402 944 768 987 878 588 246 85 13 0 0 0 10 1 0 0 0 0 0 0 0 0 0 0 0 0 0 0
0 0 0 0 0 0 0 0 0 0 0 0 0 0 0 0 6 5 48 222 320 533 1084 896 1020 1084 667 369 128 48 0 0 0 0 0 7 3 0 0 0 0 0 0 0 0 0 0 0 0
0 0 0 0 0 0 0 0 0 0 0 0 0 0 0 0 0 2 111 334 276 574 1046 1159 1227 1098 700 430 178 75 16 0 0 0 5 13 21 30 27 17 0 0 0 0 0 0 3 2 0
0 0 0 0 0 0 0 0 0 0 0 0 0 0 0 0 1 91 280 326 408 477 982 1162 1262 1089 760 502 226 107 44 4 0 0 0 16 17 24 30 20 0 0 0 0 0 1 0 0 0
0 0 0 0 0 0 0 0 0 0 0 0 0 0 0 0 12 198 300 382 430 518 783 1060 1257 1147 784 534 245 143 83 31 0 0 0 4 1 8 46 19 0 0 0 0 0 17 18 15 38
0 0 0 0 0 0 0 0 0 0 0 0 0 0 0 0 12 194 270 290 346 438 689 782 1141 1213 1044 710 322 175 105 78 0 0 0 0 0 0 6 48 17 19 22 15 34 47 65 53 26
0 0 0 0 0 0 0 0 0 0 0 0 0 0 0 0 1 108 216 304 352 395 560 855 956 1122 1019 745 435 220 128 73 14 0 0 0 0 0 0 0 0 0 0 18 14 24 0 0 0
0 0 0 0 0 0 0 0 0 0 0 0 0 0 0 0 0 14 63 128 355 409 445 777 937 1088 991 715 469 295 190 117 85 17 0 0 0 0 0 0 0 0 0 0 0 0 0 0 0
0 0 0 0 0 0 0 0 0 0 0 0 0 0 0 0 0 0 9 38 142 415 583 634 910 1062 901 758 502 361 270 179 91 39 2 0 0 0 0 0 0 0 0 0 0 0 0 0 0
0 0 0 0 0 0 0 0 0 0 0 0 0 0 0 0 0 0 20 28 47 190 475 763 847 919 807 796 541 370 242 238 135 72 1 0 0 0 0 0 0 0 0 0 0 0 0 0 0
0 0 0 0 0 0 0 0 0 0 0 0 0 0 0 0 0 0 0 7 5 68 248 596 844 888 781 721 583 391 224 193 171 72 9 0 0 0 0 0 0 0 0 0 0 0 0 0 0
0 0 0 0 0 0 0 0 0 0 0 0 0 0 0 0 0 0 0 0 0 0 0 162 603 853 821 757 574 336 233 247 138 73 28 3 2 0 0 0 0 0 0 0 0 0 0 0 0
0 0 0 0 0 0 0 0 0 0 0 0 0 0 0 0 0 0 0 0 0 0 0 0 10 487 757 732 553 235 199 242 102 75 28 9 0 0 0 0 0 0 0 0 0 0 0 0 0
2 0 0 0 0 0 0 0 0 0 0 0 0 0 0 0 0 0 0 0 0 0 0 0 0 0 444 653 477 185 189 171 53 15 0 0 0 0 0 0 0 0 0 0 0 0 0 0 0
0 0 0 0 0 0 0 0 0 0 0 0 0 0 0 0 0 0 0 0 0 0 0 0 0 0 194 456 326 111 34 0 0 0 0 0 0 0 0 0 0 0 0 0 0 0 0 0 0
0 0 0 0 0 0 0 0 0 0 0 0 0 0 0 0 0 0 0 0 0 0 0 0 0 32 163 121 0 0 0 0 0 0 0 0 0 0 0 0 0 0 0 0 0 0 0 0 0
0 0 0 0 0 0 0 0 0 0 0 0 0 0 0 0 0 0 0 0 0 0 0 0 0 73 1 0 0 0 0 0 0 0 0 0 0 0 0 0 0 0 0 0 0 0 0 0 0
2 2 0 0 0 0 0 0 0 0 0 0 0 0 0 0 0 0 0 0 0 0 0 0 6 0 0 0 0 0 0 0 0 0 0 0 0 0 0 0 0 0 0 0 0 0 0 0 0
1 1 0 0 0 0 0 0 0 0 0 0 0 0 0 0 0 0 0 0 0 0 0 0 0 0 0 0 0 0 0 0 0 0 0 0 0 0 0 0 0 0 0 0 0 0 0 0 0
0 0 0 0 0 1 0 0 0 0 0 0 0 0 0 0 0 0 0 0 0 0 0 0 0 0 0 0 0 0 0 0 0 0 0 0 0 0 0 0 0 0 0 0 0 0 0 0 0
0 0 0 0 0 0 0 1 0 0 0 0 0 0 0 0 0 0 0 0 0 0 0 0 0 0 0 0 0 0 0 0 0 0 0 0 0 0 0 0 0 0 0 0 0 0 0 0 0
0 0 0 3 2 1 0 0 0 0 0 0 0 0 0 0 0 0 0 0 0 0 0 0 0 0 0 0 0 0 0 0 0 0 0 0 0 0 0 0 0 0 0 0 0 0 0 0 0
0 0 0 0 0 0 0 0 0 0 0 0 0 0 0 0 0 0 0 0 0 0 0 0 0 0 0 0 0 0 0 0 0 0 0 0 0 0 0 0 0 0 0 0 0 0 0 0 0
1 0 0 0 0 0 0 0 0 0 0 0 0 0 0 0 0 0 0 0 0 0 0 0 0 0 0 0 0 0 0 0 0 0 0 0 0 0 0 0 0 0 0 0 0 0 0 0 0
0 1 0 0 0 0 0 0 0 0 0 0 0 0 0 0 0 0 0 0 0 0 0 0 0 0 0 0 0 0 0 0 0 0 0 0 0 0 0 0 0 0 0 0 0 0 0 0 0
6 0 1 0 0 0 0 0 0 0 0 0 0 0 0 0 0 0 0 0 0 0 0 0 0 0 0 0 0 0 0 0 0 0 0 0 0 0 0 0 0 0 0 0 0 0 0 0 0
0 1 0 0 0 0 0 0 0 0 0 0 0 0 0 0 0 0 0 0 0 0 0 0 0 0 0 0 0 0 0 0 0 0 0 0 0 0 0 0 0 0 0 0 0 0 0 0 0
0 0 1 2 0 0 0 0 0 15 16 0 0 0 0 0 0 0 0 0 0 0 0 0 0 0 0 0 0 0 0 0 0 0 0 0 0 0 0 0 0 0 0 0 0 0 0 0 0

GFSSGP_con_mlcape_024.txt.gz
CAPE
0 0 0 0 0 0 0 0 0 0 0 0 0 0 0 0 36 35 34 146 130 277 875 858 690 706 290 88 21 0 0 0 0 2 34 24 2 0 23 7 0 0 0 0 0 0 0 0 2
0 0 0 0 0 0 0 0 0 0 0 0 0 0 0 1 6 68 73 143 169 446 979 864 769 584 311 136 41 0 0 0 0 41 16 8 2 0 0 0 0 0 0 0 0 0 0 0 0
0 0 0 0 0 0 0 0 0 0 0 0 0 0 0 6 35 84 131 191 308 614 998 870 906 653 413 239 68 4 0 0 11 45 1 0 0 0 0 0 0 0 0 0 0 0 0 0 0
0 0 0 0 0 0 0 0 0 0 0 0 0 0 0 0 49 68 108 356 384 617 944 1179 1014 838 571 350 98 26 0 0 0 1 0 0 0 0 0 0 0 0 0 0 0 0 0 0 0
0 0 0 0 0 0 0 0 0 0 0 0 0 0 0 8 12 69 376 523 446 696 914 1077 1156 991 703 438 148 53 0 0 0 0 0 2 5 18 10 3 0 0 0 0 0 1 0 0 0
0 0 0 0 0 0 0 0 0 0 0 0 0 0 0 0 121 268 568 624 604 764 916 967 1278 1167 792 519 270 102 29 0 0 0 4 13 15 15 16 16 0 0 0 0 0 0 1 0 0
0 0 0 0 0 0 0 0 0 0 0 0 0 0 0 0 286 593 659 701 733 728 877 819 1468 1225 824 613 305 122 67 12 0 4 2 10 0 23 66 29 0 0 0 0 2 15 29 52 50
0 0 0 0 0 0 0 0 0 0 0 0 0 0 0 0 364 646 656 705 760 804 891 827 1235 1162 946 737 335 176 98 23 0 0 0 0 0 0 46 14 0 13 8 11 19 59 35 5 0
0 0 0 0 0 0 0 0 0 0 0 0 0 0 0 0 206 581 641 689 744 760 918 943 873 977 1101 705 451 258 150 66 0 0 0 0 1 0 0 0 0 0 0 0 0 0 0 0 0
0 0 0 0 0 0 0 0 0 0 0 0 0 0 0 0 33 486 634 656 783 781 817 1101 1048 1045 1136 844 614 359 200 104 25 0 0 0 0 0 0 0 0 0 0 0 0 0 0 0 0
0 0 0 0 0 0 0 0 0 0 0 0 0 0 0 0 0 18 276 466 719 783 898 1085 1253 1252 1210 907 773 451 281 179 128 56 7 0 0 0 0 0 2 25 0 0 0 0 0 0 0
0 0 0 0 0 0 0 0 0 0 0 0 0 0 0 0 0 0 28 173 333 717 986 1032 1270 1400 1374 1040 822 541 296 300 171 106 8 0 0 0 1 20 1 0 0 0 0 0 0 0 0
0 0 0 0 0 0 0 0 0 0 0 0 0 0 0 0 0 0 0 27 239 393 692 1067 1170 1385 1411 1167 923 671 362 416 321 164 29 25 5 5 0 0 0 0 0 0 0 0 0 0 0
0 0 0 0 0 0 0 0 0 0 0 0 0 0 0 0 0 0 0 0 0 92 272 722 1203 1331 1394 1308 1081 809 467 491 401 155 69 64 40 1 0 0 0 0 0 0 0 0 0 0 0
0 0 0 0 0 0 0 0 0 0 0 0 0 0 0 0 0 0 0 0 0 0 0 74 613 1167 1339 1360 1258 929 543 591 411 165 155 136 10 0 0 0 0 0 0 0 0 0 0 0 0
0 0 0 0 0 0 0 0 0 0 0 0 0 0 0 0 0 0 0 0 0 0 0 0 0 286 966 1195 1276 1053 602 684 405 257 184 38 0 0 0 0 0 0 0 0 0 0 0 0 0
0 0 0 0 0 0 0 0 0 0 0 0 0 0 0 0 0 0 0 0 0 0 0 0 0 0 224 797 1112 1065 659 801 359 64 0 0 0 0 0 0 0 0 0 0 0 0 0 0 0
0 0 0 0 0 0 0 0 0 0 0 0 0 0 0 0 0 0 0 0 0 0 0 0 0 0 225 647 988 991 805 353 0 0 0 0 0 0 0 0 0 0 0 0 0 0 0 0 0
0 0 0 0 0 0 0 0 0 0 0 0 0 0 0 0 0 0 0 0 0 0 0 0 0 30 343 623 809 457 5 0 0 0 0 0 0 0 0 0 0 0 0 0 0 0 0 0 0
2 1 0 0 0 0 0 0 0 0 0 0 0 0 0 0 0 0 0 0 0 0 0 0 0 156 429 492 239 156 0 0 0 0 0 0 0 0 0 0 0 0 0 0 0 0 0 0 0
1 1 1 0 1 0 0 0 0 0 0 0 0 0 0 0 0 0 0 0 0 0 0 0 56 296 370 159 218 0 0 0 0 0 0 0 0 0 0 0 0 0 0 0 0 0 0 0 0
0 0 0 2 0 0 0 0 0 0 0 0 0 0 0 0 0 0 0 0 0 0 0 0 175 156 154 76 0 0 0 0 0 0 0 0 0 0 0 0 0 0 0 0 0 0 0 0 0
0 0 0 1 1 0 0 1 0 0 0 0 0 0 0 0 0 0 0 0 0 0 0 0 40 31 0 0 0 0 0 0 0 0 0 0 0 0 0 0 0 0 0 0 0 0 0 0 0
0 3 5 5 8 2 0 0 0 0 0 0 0 0 0 0 0 0 0 0 0 0 0 0 0 0 0 0 0 0 0 0 0 0 0 0 0 0 0 0 0 0 0 0 0 0 0 0 0
8 3 2 0 0 0 0 0 0 0 0 0 0 0 0 0 0 0 0 0 0 0 0 0 0 0 0 0 0 0 0 0 0 0 0 0 0 0 0 0 0 0 0 0 0 0 0 0 0
4 2 1 0 0 0 0 0 0 0 0 0 0 0 0 0 0 0 0 0 0 0 0 0 0 0 0 0 0 0 0 0 0 0 0 0 0 0 0 0 0 0 0 0 0 0 0 0 0
3 2 0 6 3 7 0 0 0 0 0 0 0 0 0 0 0 0 0 0 0 0 0 0 0 0 0 0 0 0 0 0 0 0 0 0 0 0 0 0 0 0 0 0 0 0 0 0 0
6 0 0 2 1 1 0 0 0 0 0 0 0 0 0 0 0 0 0 0 0 0 0 0 0 0 0 0 0 0 0 0 0 0 0 0 0 0 0 0 0 0 0 0 0 0 0 0 0
1 4 2 0 4 1 0 0 0 0 0 0 0 3 8 0 0 0 0 0 0 0 0 0 0 0 0 0 0 0 0 0 0 0 0 0 0 0 0 0 0 0 0 0 0 0 0 0 0
0 0 0 0 0 0 2 0 0 0 7 26 0 0 0 0 0 0 0 0 0 0 0 0 0 0 0 0 0 0 0 0 0 0 0 0 0 0 0 0 0 0 0 0 0 0 0 0 0

GFSSGP_con_mlcape_027.txt.gz
CAPE
0 0 0 0 0 0 0 0 0 0 0 0 0 0 0 0 32 53 76 182 132 627 1286 850 734 563 312 67 0 0 0 0 0 15 41 0 0 4 14 0 0 0 0 0 0 0 0 0 0
0 0 0 0 0 0 0 0 0 0 0 0 0 0 0 0 1 136 139 172 181 828 933 960 885 547 292 104 29 0 0 0 0 28 8 0 0 0 0 0 0 0 0 0 0 0 0 0 0
0 0 0 0 0 0 0 0 0 0 0 0 0 0 0 9 8 141 271 210 281 731 880 959 776 488 366 154 48 12 0 1 56 3 0 0 0 0 0 0 0 0 0 0 0 0 0 0 0
0 0 0 0 0 0 0 0 0 0 0 0 0 0 0 0 62 154 284 246 383 776 959 958 717 568 445 207 63 18 0 0 98 0 0 0 0 0 0 0 0 0 0 0 0 0 0 0 0
0 0 0 0 0 0 0 0 0 0 0 0 0 0 0 7 32 255 356 291 501 737 1195 1196 895 722 566 320 97 13 0 2 11 0 0 0 0 1 1 0 0 0 0 0 0 0 0 0 0
0 0 0 0 0 0 0 0 0 0 0 0 0 0 1 44 126 429 470 341 450 759 963 1186 989 781 680 431 162 33 0 0 0 0 0 2 0 1 3 14 0 0 0 0 0 4 6 0 13
0 0 0 0 0 0 0 0 0 0 0 0 0 0 4 2 437 539 551 512 472 731 804 1098 1269 1034 738 500 300 98 28 1 11 1 0 15 0 38 41 11 0 0 0 0 12 15 30 46 5
0 0 0 0 0 0 0 0 0 0 0 0 0 0 4 0 538 611 570 628 501 738 724 941 1282 1352 934 624 339 141 78 11 10 18 13 0 0 50 43 0 0 0 0 18 30 26 7 0 0
0 0 0 0 0 0 0 0 0 0 0 0 0 0 0 0 475 603 624 722 691 714 764 721 1224 1208 1023 705 431 199 89 21 0 1 6 0 0 0 8 0 0 0 0 0 0 0 0 0 0
0 0 0 0 0 0 0 0 0 0 0 0 0 0 0 0 133 543 648 678 766 767 808 867 903 1036 901 748 530 299 153 39 0 0 0 0 0 1 1 0 0 0 0 0 0 0 0 0 0
0 0 0 0 0 0 0 0 0 0 0 0 0 0 0 0 3 185 529 563 680 781 854 1051 1039 962 1043 787 697 368 314 115 18 0 0 0 0 0 0 0 0 0 0 0 0 0 0 0 0
0 0 0 0 0 0 0 0 0 0 0 0 0 0 0 0 0 0 30 271 454 637 840 995 1229 1233 1183 951 758 483 309 201 150 54 0 0 0 0 0 1 13 0 0 0 0 0 0 0 0
0 0 0 0 0 0 0 0 0 0 0 0 0 0 0 0 0 0 0 15 149 389 739 979 1149 1414 1435 1287 951 667 398 312 295 167 17 0 0 0 3 9 0 0 0 0 0 0 0 0 0
2 0 0 0 0 0 0 0 0 0 0 0 0 0 0 0 0 0 0 0 8 235 381 797 1072 1432 1434 1398 1143 847 601 420 412 285 48 2 16 38 10 0 0 0 0 0 0 0 0 0 0
0 0 0 0 0 0 0 0 0 0 0 0 0 0 0 0 0 0 0 0 0 0 82 271 883 1170 1398 1400 1311 1058 835 565 509 372 94 62 107 13 0 0 0 0 0 0 0 0 0 0 0
0 0 0 0 0 0 0 0 0 0 0 0 0 0 0 0 0 0 0 0 0 0 0 0 264 893 1318 1354 1328 1188 1014 740 645 441 219 195 101 0 0 0 0 0 0 0 0 0 0 0 0
2 0 0 0 0 0 0 0 0 0 0 0 0 0 0 0 0 0 0 0 0 0 0 0 0 62 571 1048 1189 1148 1066 778 744 447 301 288 0 0 0 0 0 0 0 0 0 0 0 0 0
0 0 0 0 0 0 0 0 0 0 0 0 0 0 0 0 0 0 0 0 0 0 0 0 0 0 12 486 999 1139 1089 848 868 705 472 24 0 0 0 0 0 0 0 0 0 0 0 0 0
0 0 0 0 0 0 0 0 0 0 0 0 0 0 0 0 0 0 0 0 0 0 0 0 0 0 0 194 705 1116 993 913 665 332 0 0 0 0 0 0 0 0 0 0 0 0 0 0 0
0 0 0 0 0 0 0 0 0 0 0 0 0 0 0 0 0 0 0 0 0 0 0 0 0 0 13 360 858 1138 930 377 135 0 0 0 0 0 0 0 0 0 0 0 0 0 0 0 0
0 0 0 0 0 0 0 0 0 0 0 0 0 0 0 0 0 0 0 0 0 0 0 0 0 0 123 479 945 754 9 0 0 0 0 0 0 0 0 0 0 0 0 0 0 0 0 0 0
0 0 0 0 0 0 0 0 0 0 0 0 0 0 0 0 0 0 0 0 0 0 0 0 0 1 256 624 608 231 0 0 0 0 0 0 0 0 0 0 0 0 0 0 0 0 0 0 0
0 0 0 1 0 0 0 0 0 0 0 0 0 0 0 0 0 0 0 0 0 0 0 0 0 34 376 485 464 125 0 0 0 0 0 0 0 0 0 0 0 0 0 0 0 0 0 0 0
0 1 0 2 0 0 0 0 0 0 0 0 0 0 0 0 0 0 0 0 0 0 0 0 0 118 278 314 128 0 0 0 0 0 0 0 0 0 0 0 0 0 0 0 0 0 0 0 0
5 1 0 1 0 0 0 0 0 0 0 0 0 0 0 0 0 0 0 0 0 0 0 0 0 111 155 190 0 0 0 0 0 0 0 0 0 0 0 0 0 0 0 0 0 0 0 0 0
4 5 0 0 0 0 0 0 0 0 0 0 0 0 0 0 0 0 0 0 0 0 0 0 0 23 1 0 0 1 0 0 0 0 0 0 0 0 0 0 0 0 0 0 0 0 0 0 0
3 1 0 2 0 0 0 0 0 0 0 0 0 0 0 0 0 0 0 0 0 0 0 0 0 0 0 0 0 0 0 0 0 0 0 0 0 0 0 0 0 0 0 0 0 0 0 0 0
1 0 0 0 0 0 0 0 0 0 0 0 0 0 0 4 0 0 0 0 0 0 0 0 0 0 0 0 0 0 0 0 0 0 0 0 0 0 0 0 0 0 0 0 0 0 0 0 0
1 1 1 1 4 0 0 0 0 0 0 0 0 13 11 4 0 0 0 0 0 0 0 0 0 0 0 0 0 0 0 0 0 0 0 0 0 0 0 0 0 0 0 0 0 0 0 0 0
0 0 1 1 0 0 1 0 0 0 0 0 0 23 30 0 0 0 0 3 0 1 2 2 0 0 0 0 0 0 0 0 0 0 0 0 0 0 0 0 0 0 0 0 0 0 0 0 0

GFSSGP_con_mlcape_030.txt.gz
CAPE
0 0 0 0 0 0 0 0 0 0 0 0 0 0 0 0 13 41 118 78 908 972 1056 826 592 403 245 60 0 0 0 0 0 56 43 21 2 1 0 0 0 0 0 0 0 0 0 0 0
0 0 0 0 0 0 0 0 0 0 0 0 0 0 0 0 48 24 229 128 894 1173 952 854 621 418 181 50 18 0 0 0 7 6 0 0 0 0 0 0 0 0 0 0 0 0 0 0 0
0 0 0 0 0 0 0 0 0 0 0 0 0 0 0 25 22 129 235 193 1052 1242 888 927 649 421 229 66 32 0 0 7 25 1 0 0 0 0 0 0 0 0 0 0 0 0 0 0 0
0 0 0 0 0 0 0 0 0 0 0 0 0 0 0 0 22 304 174 274 766 890 1101 722 695 418 270 66 14 0 0 28 6 0 0 0 0 0 0 0 0 0 0 0 0 0 0 0 0
0 0 0 0 0 0 0 0 0 0 0 0 0 0 7 3 149 256 191 325 697 1057 954 754 604 479 320 99 41 0 0 109 0 0 0 0 0 0 0 0 0 0 0 0 1 0 0 0 0
0 0 0 0 0 0 0 0 0 0 0 0 0 0 48 26 248 305 243 381 747 1318 1037 777 671 603 441 201 72 5 0 56 3 0 0 3 0 0 9 0 0 0 0 0 0 0 0 0 12
0 0 0 0 0 0 0 0 0 0 0 0 0 0 31 122 388 455 314 309 627 1248 1265 914 799 727 575 286 96 27 4 7 11 0 18 0 0 7 22 0 0 0 0 0 0 0 6 5 0
0 0 0 0 0 0 0 0 0 0 0 0 0 0 35 302 482 541 445 426 517 791 1126 932 938 801 641 423 180 47 12 15 12 8 16 0 30 55 24 0 0 0 0 0 0 0 0 0 0
0 0 0 0 0 0 0 0 0 0 0 0 0 0 0 305 530 524 521 528 445 720 775 1150 1129 1013 789 519 284 113 50 0 10 11 0 0 0 25 5 13 0 0 0 0 0 0 0 0 0
0 0 0 0 0 0 0 0 0 0 0 0 0 0 0 0 429 554 574 629 561 710 670 1036 1274 1158 941 640 287 160 72 7 0 0 0 0 0 9 0 0 0 0 0 0 0 0 0 0 0
0 0 0 0 0 0 0 0 0 0 0 0 0 0 0 0 15 428 524 590 665 659 676 655 1161 1119 808 593 329 253 119 14 0 0 0 0 0 0 0 0 0 0 0 0 0 0 0 0 0
0 0 0 0 0 0 0 0 0 0 0 0 0 0 0 0 0 2 163 416 579 741 745 876 824 969 938 712 530 370 274 99 0 0 0 0 0 0 0 0 0 0 0 0 0 0 0 0 0
0 0 0 0 0 0 0 0 0 0 0 0 0 0 0 0 0 0 0 8 111 585 742 948 1038 1032 1015 852 679 517 407 196 137 15 0 0 0 0 0 1 0 0 0 0 0 0 0 0 0
0 0 0 0 0 0 0 0 0 0 0 0 0 0 0 0 0 0 0 0 0 65 635 904 1041 1280 1237 1004 787 754 511 318 309 163 17 0 0 0 0 0 0 0 0 0 0 0 0 0 0
4 0 0 0 0 0 0 0 0 0 0 0 0 0 0 0 0 0 0 0 0 0 180 692 952 1332 1323 1405 1140 940 698 443 445 341 97 8 5 0 0 0 0 0 0 0 0 0 0 0 0
0 0 0 0 0 0 0 0 0 0 0 0 0 0 0 0 0 0 0 0 0 0 0 196 871 1123 1359 1359 1319 1137 928 602 509 454 145 27 47 0 0 0 0 0 0 0 0 0 0 0 0
3 0 0 0 0 0 0 0 0 0 0 0 0 0 0 0 0 0 0 0 0 0 0 0 379 994 1174 1336 1332 1249 1086 767 634 515 174 120 15 0 0 0 0 0 0 0 0 0 0 0 0
0 1 0 0 0 0 0 0 0 0 0 0 0 0 0 0 0 0 0 0 0 0 0 0 0 533 1074 1286 1320 1270 1144 824 661 516 300 138 2 0 0 0 0 0 0 0 0 0 0 0 0
1 0 0 0 0 0 0 0 0 0 0 0 0 0 0 0 0 0 0 0 0 0 0 0 0 0 8 344 1064 1173 1046 826 748 580 290 40 0 0 0 0 0 0 0 0 0 0 0 0 0
0 0 0 0 0 0 0 0 0 0 0 0 0 0 0 0 0 0 0 0 0 0 0 0 0 0 0 0 428 940 951 842 675 427 32 0 0 0 0 0 0 0 0 0 0 0 0 0 0
0 0 0 0 0 0 0 0 0 0 0 0 0 0 0 0 0 0 0 0 0 0 0 0 0 0 0 0 102 454 422 77 73 0 0 0 0 0 0 0 0 0 0 0 0 0 0 0 0
0 0 0 0 0 0 0 0 0 0 0 0 0 0 0 0 0 0 0 0 0 0 0 0 0 0 0 0 243 529 652 380 2 0 0 0 0 0 0 0 0 0 0 0 0 0 0 0 0
0 0 0 0 0 0 0 0 0 0 0 0 0 0 0 0 0 0 0 0 0 0 0 0 0 0 0 1 392 525 117 0 0 0 0 0 0 0 0 0 0 0 0 0 0 0 0 0 0
0 0 0 0 0 0 0 0 0 0 0 0 0 0 0 0 0 0 0 0 0 0 0 0 0 0 0 172 601 198 18 0 0 0 0 0 0 0 0 0 0 0 0 0 0 0 0 0 0
0 0 0 0 0 0 0 0 0 0 0 0 0 0 0 0 0 0 0 0 0 0 0 0 0 0 4 375 547 1 0 0 0 0 0 0 0 0 0 0 0 0 0 0 0 0 0 0 0
3 0 0 0 0 0 0 0 0 0 0 0 0 0 0 0 0 0 0 0 0 0 0 0 0 0 75 388 231 0 0 0 0 0 0 0 0 0 0 0 0 0 0 0 0 0 0 0 0
1 0 0 0 0 0 0 0 0 0 0 0 0 0 0 0 0 0 0 0 0 0 0 0 0 0 132 243 3 0 0 0 0 0 0 0 0 0 0 0 0 0 0 0 0 0 0 0 0
0 0 0 1 0 0 0 0 0 0 0 0 0 0 0 0 0 0 0 0 0 0 0 0 0 0 73 60 0 0 0 0 0 0 0 0 0 0 0 0 0 0 0 0 0 0 0 0 0
0 0 0 0 0 0 0 0 0 0 0 0 0 0 0 0 9 5 0 0 1 1 0 0 0 21 61 8 0 0 0 0 0 0 0 0 0 0 0 0 0 0 0 0 0 0 0 0 0
0 0 0 0 0 0 0 0 0 0 0 0 0 0 0 4 11 2 1 6 12 108 32 4 4 41 18 0 0 0 0 0 0 0 0 0 0 0 0 0 0 0 0 0 0 0 0 0 0

GFSSGP_con_mlcape_033.txt.gz
CAPE
0 0 0 0 0 0 0 0 0 0 0 0 0 0 0 0 0 2 7 136 499 693 878 693 536 387 168 43 0 0 0 0 3 13 23 21 1 0 0 0 0 7 4 1 6 16 7 1 0
0 0 0 0 0 0 0 0 0 0 0 0 0 0 0 27 12 44 304 582 621 707 825 662 503 326 54 0 0 0 0 0 81 26 4 2 1 0 0 0 0 0 1 0 0 0 0 0 0
0 0 0 0 0 0 0 0 0 0 0 0 0 0 0 20 0 34 194 910 852 650 754 682 506 227 67 41 0 0 0 54 0 0 0 0 0 1 0 0 0 0 0 0 0 0 0 0 0
0 0 0 0 0 0 0 0 0 0 0 0 0 0 0 0 82 108 233 1105 974 705 752 700 496 294 133 87 8 26 38 63 0 0 0 0 0 2 0 0 0 0 0 0 0 0 0 0 0
0 0 0 0 0 0 0 0 0 0 0 0 0 0 0 100 160 71 337 1259 1084 809 756 643 531 359 143 82 32 0 108 47 0 0 0 0 0 0 0 0 0 0 0 0 1 1 0 0 0
0 0 0 0 0 0 0 0 0 0 0 0 0 0 13 83 108 97 210 835 917 966 635 653 680 405 197 100 13 0 206 14 0 0 0 0 0 1 3 0 0 0 0 0 0 0 0 0 0
0 0 0 0 0 0 0 0 0 0 0 0 0 0 37 108 174 121 99 910 998 933 653 790 671 437 280 139 13 0 171 44 0 0 12 1 0 0 15 0 0 0 0 0 0 0 0 0 0
0 0 0 0 0 0 0 0 0 0 0 0 0 0 94 271 300 193 82 1064 1142 906 737 628 625 530 389 190 21 8 23 47 24 25 1 0 16 24 38 0 0 0 0 0 0 0 0 0 0
0 0 0 0 0 0 0 0 0 0 0 0 0 0 140 297 416 293 188 520 1098 1121 867 693 668 576 405 223 51 10 13 5 17 18 0 3 46 48 13 0 0 0 0 0 0 0 0 0 0
0 0 0 0 0 0 0 0 0 0 0 0 0 0 127 320 405 404 382 333 647 980 904 755 690 619 507 366 163 51 1 7 6 6 0 0 14 12 0 6 0 0 0 0 0 0 0 0 0
0 0 0 0 0 0 0 0 0 0 0 0 0 0 0 32 290 472 481 398 447 527 982 1047 915 806 691 512 205 99 36 0 0 0 0 0 0 5 0 0 0 0 0 0 0 0 0 0 0
0 0 0 0 0 0 0 0 0 0 0 0 0 0 0 0 16 315 425 472 423 550 480 1194 1108 1028 821 568 248 126 66 0 0 0 0 0 0 0 0 0 0 0 0 0 0 0 0 0 0
0 0 0 0 0 0 0 0 0 0 0 0 0 0 0 0 0 0 56 172 420 513 537 516 1153 1120 750 622 387 278 197 88 0 0 0 0 0 0 0 0 0 0 0 0 0 0 0 0 0
0 0 0 0 0 0 0 0 0 0 0 0 0 0 0 0 0 0 0 0 1 404 576 685 562 995 847 743 574 430 351 262 88 1 0 0 0 0 0 0 0 0 0 0 0 0 0 0 0
0 0 0 0 0 0 0 0 0 0 0 0 0 0 0 0 0 0 0 0 0 0 505 751 817 911 955 852 690 501 487 358 197 57 7 0 0 0 0 0 0 0 0 0 0 0 0 0 0
0 0 0 0 0 0 0 0 0 0 0 0 0 0 0 0 0 0 0 0 0 0 0 704 1001 1047 1088 1039 856 755 576 368 233 169 79 9 0 0 0 0 0 0 0 0 0 0 0 0 0
1 0 0 0 0 0 0 0 0 0 0 0 0 0 0 0 0 0 0 0 0 0 0 105 874 1164 1275 1309 1210 982 697 478 321 242 132 24 1 0 0 0 0 0 0 0 0 0 0 0 0
0 0 0 0 0 0 0 0 0 0 0 0 0 0 0 0 0 0 0 0 0 0 0 0 597 1034 1354 1364 1349 1143 738 636 428 328 184 28 0 0 0 0 0 0 0 0 0 0 0 0 0
2 0 0 0 0 0 0 0 0 0 0 0 0 0 0 0 0 0 0 0 0 0 0 0 0 757 1232 1247 1156 1249 1042 820 568 431 200 14 0 0 0 0 0 0 0 0 0 0 0 0 0
0 0 0 0 0 0 0 0 0 0 0 0 0 0 0 0 0 0 0 0 0 0 0 0 0 93 905 1159 1254 1075 829 736 619 329 51 0 0 0 0 0 0 0 0 0 0 0 0 0 0
0 0 0 0 0 0 0 0 0 0 0 0 0 0 0 0 0 0 0 0 0 0 0 0 0 0 88 523 841 537 337 92 175 11 0 0 0 0 0 0 0 0 0 0 0 0 0 0 0
0 0 0 0 0 0 0 0 0 0 0 0 0 0 0 0 0 0 0 0 0 0 0 0 0 0 0 0 344 685 583 649 230 6 0 0 0 0 0 0 0 0 0 0 0 0 0 0 0
0 0 0 0 0 0 0 0 0 0 0 0 0 0 0 0 0 0 0 0 0 0 0 0 0 0 0 0 0 91 477 246 0 0 0 0 0 0 0 0 0 0 0 0 0 0 0 0 0
0 0 0 0 0 0 0 0 0 0 0 0 0 0 0 0 0 0 0 0 0 0 0 0 0 0 0 0 0 12 99 0 0 0 0 0 0 0 0 0 0 0 0 0 0 0 0 0 0
0 0 0 0 0 0 0 0 0 0 0 0 0 0 0 0 0 0 0 0 0 0 0 0 0 0 0 0 0 2 0 0 0 0 0 0 0 0 0 0 0 0 0 0 0 0 0 0 0
0 0 0 0 0 0 0 0 0 0 0 0 0 0 0 0 0 0 0 0 0 0 0 0 0 0 0 0 0 3 0 0 0 0 0 0 0 0 0 0 0 0 0 0 0 0 0 0 0
0 0 0 0 0 0 0 0 0 0 0 0 0 0 0 0 0 0 0 0 0 0 0 0 0 0 0 0 5 0 0 0 0 0 0 0 0 0 0 0 0 0 0 0 0 0 0 0 0
0 0 0 0 0 0 0 0 0 0 0 0 0 0 0 0 0 0 0 0 0 0 0 0 0 0 0 31 0 0 0 0 0 0 0 0 0 0 0 0 0 0 0 0 0 0 0 0 0
0 0 0 0 0 0 0 0 0 0 0 0 0 0 0 0 0 0 0 0 0 0 0 0 0 0 0 36 0 0 0 0 0 0 0 0 0 0 0 0 0 0 0 0 0 0 0 0 0
0 0 0 0 0 0 0 0 0 0 0 0 0 0 0 0 0 2 0 0 0 0 2 167 60 79 119 0 0 0 0 0 0 0 0 0 0 0 0 0 0 0 0 0 0 0 0 0 0

GFSSGP_con_mlcape_036.txt.gz
CAPE
0 0 0 0 0 0 0 0 0 0 0 0 0 0 0 0 0 0 3 127 453 574 673 521 442 378 292 213 178 189 174 192 126 14 9 2 0 0 0 0 18 10 9 16 40 41 32 1 0
0 0 0 0 0 0 0 0 0 0 0 0 0 0 0 0 12 77 160 468 481 480 667 496 428 332 172 68 26 18 51 51 56 10 10 2 0 0 0 0 6 5 4 2 1 2 0 0 0
0 0 0 0 0 0 0 0 0 0 0 0 0 0 0 0 0 73 264 619 591 596 614 484 456 245 76 57 41 18 15 132 120 4 2 1 0 0 0 0 0 2 0 0 0 0 0 0 0
0 0 0 0 0 0 0 0 0 0 0 0 0 0 0 0 4 60 553 682 609 615 554 529 470 149 80 49 6 0 84 104 0 0 0 0 2 0 0 0 0 0 0 0 0 0 0 0 0
0 0 0 0 0 0 0 0 0 0 0 0 0 0 0 38 0 494 704 750 527 588 526 590 436 193 121 45 36 49 264 9 0 0 0 2 5 2 0 0 0 0 0 0 0 0 0 0 0
0 0 0 0 0 0 0 0 0 0 0 0 0 0 0 0 20 650 1059 847 581 540 547 561 484 305 195 72 146 287 305 32 0 0 0 1 2 7 0 0 0 0 2 5 3 0 0 0 0
0 0 0 0 0 0 0 0 0 0 0 0 0 0 6 41 0 468 1054 926 846 660 503 617 531 350 202 141 42 291 333 86 0 0 0 0 0 5 20 0 0 0 2 3 1 0 0 0 0
0 0 0 0 0 0 0 0 0 0 0 0 0 0 0 57 23 157 969 965 932 792 558 565 563 375 248 140 19 179 216 36 32 37 37 21 0 33 42 0 0 1 8 0 1 15 0 0 0
0 0 0 0 0 0 0 0 0 0 0 0 0 0 0 82 23 96 760 919 928 823 644 620 502 371 263 113 36 124 316 76 49 36 0 3 14 46 55 0 0 12 16 14 0 0 0 0 0
0 0 0 0 0 0 0 0 0 0 0 0 0 1 148 191 171 41 658 1041 1018 852 684 676 543 422 324 174 73 46 130 86 43 22 0 23 86 94 17 0 0 10 17 0 0 0 0 0 0
0 0 0 0 0 0 0 0 0 0 0 0 0 7 120 172 308 171 277 737 1058 1012 852 742 624 530 396 242 90 37 22 9 26 23 0 5 59 41 11 5 0 0 0 0 0 0 0 0 0
0 0 0 0 0 0 0 0 0 0 0 0 0 0 0 29 62 253 217 339 660 1013 947 852 744 636 483 372 140 58 9 0 3 4 0 0 17 34 16 2 0 0 0 0 0 0 0 0 0
0 0 0 0 0 0 0 0 0 0 0 0 0 0 0 0 0 49 175 192 259 613 955 985 852 775 646 516 243 89 50 1 0 0 0 0 0 15 9 0 0 0 0 0 0 0 0 0 0
0 0 0 0 0 0 0 0 0 0 0 0 0 0 0 0 0 0 0 67 91 319 463 1027 1079 1014 828 688 346 149 82 43 0 0 0 0 0 0 3 0 0 0 0 0 0 0 0 0 0
0 0 0 0 0 0 0 0 0 0 0 0 0 0 0 0 0 0 0 0 0 4 315 496 1074 1169 861 820 490 265 211 157 35 0 0 0 0 0 0 0 0 0 0 0 0 0 0 0 0
0 0 0 0 0 0 0 0 0 0 0 0 0 0 0 0 0 0 0 0 0 0 0 243 662 1110 985 897 641 426 349 301 176 28 0 0 0 0 0 0 0 0 0 0 0 0 0 0 0
0 0 0 0 0 0 0 0 0 0 0 0 0 0 0 0 0 0 0 0 0 0 0 0 405 891 947 932 748 574 530 407 281 178 10 0 0 0 0 0 0 0 0 0 0 0 0 0 0
0 0 0 0 0 0 0 0 0 0 0 0 0 0 0 0 0 0 0 0 0 0 0 0 14 726 911 821 744 611 564 425 335 303 106 0 0 0 0 0 0 0 0 0 0 0 0 0 0
0 0 0 0 0 0 0 0 0 0 0 0 0 0 0 0 0 0 0 0 0 0 0 0 0 210 952 876 808 756 753 561 356 267 89 0 0 0 0 0 0 0 0 0 0 0 0 0 0
8 0 0 0 0 0 0 0 0 0 0 0 0 0 0 0 0 0 0 0 0 0 0 0 0 0 707 1044 976 865 755 649 493 380 47 0 0 0 0 0 0 0 0 0 0 0 0 0 0
0 0 0 0 0 0 0 0 0 0 0 0 0 0 0 0 0 0 0 0 0 0 0 0 0 0 11 1018 958 500 281 38 171 229 67 0 0 0 0 0 0 0 0 0 0 0 0 0 0
0 0 0 0 0 0 0 0 0 0 0 0 0 0 0 0 0 0 0 0 0 0 0 0 0 0 0 364 744 675 504 360 353 318 5 0 0 0 0 0 0 0 0 0 0 0 0 0 0
0 0 0 0 0 0 0 0 0 0 0 0 0 0 0 0 0 0 0 0 0 0 0 0 0 0 0 0 208 567 689 465 57 0 0 0 0 0 0 0 0 0 0 0 0 0 0 0 0
0 0 0 0 0 0 0 0 0 0 0 0 0 0 0 0 0 0 0 0 0 0 0 0 0 0 0 0 0 74 394 222 30 1 0 0 0 0 0 0 0 0 0 0 0 0 0 0 0
0 0 0 0 0 0 0 0 0 0 0 0 0 0 0 0 0 0 0 0 0 0 0 0 0 0 0 0 0 0 72 97 100 16 0 0 0 0 0 0 0 0 0 0 0 0 0 0 0
0 0 0 0 0 0 0 0 0 0 0 0 0 0 0 0 0 0 0 0 0 0 0 0 0 0 0 0 0 0 0 2 9 0 0 0 0 0 0 0 0 0 0 0 0 0 0 0 0
0 0 0 0 0 0 0 0 0 0 0 0 0 0 0 0 0 0 0 0 0 0 0 0 0 0 0 0 0 0 0 0 0 0 0 0 0 0 0 0 0 0 0 0 0 0 0 0 0
0 0 0 0 0 0 0 0 0 0 0 0 0 0 0 0 0 0 0 0 0 0 0 0 0 0 0 0 0 0 0 0 0 0 0 0 0 0 0 0 0 0 0 0 0 0 0 0 0
0 0 0 0 0 0 0 0 0 0 0 0 0 0 0 0 0 0 0 0 0 0 0 0 0 0 0 0 0 0 0 0 0 0 0 0 0 0 0 0 0 0 0 0 0 0 0 0 0
0 0 0 0 0 0 0 0 0 0 0 0 0 0 0 0 0 0 0 0 0 0 0 0 0 2 11 0 0 0 0 0 0 0 0 0 0 0 0 0 0 0 0 0 0 0 0 0 0

GFSSGP_con_mlcape_039.txt.gz
CAPE
0 0 0 0 0 0 0 0 0 0 0 0 0 0 0 0 0 0 4 195 367 561 619 641 597 429 430 397 500 513 414 200 79 26 9 3 0 0 0 15 25 28 47 60 80 60 16 3 0
0 0 0 0 0 0 0 0 0 0 0 0 0 0 0 0 3 42 88 240 517 519 537 462 426 494 508 510 428 349 344 266 98 21 9 4 0 0 0 7 7 8 3 3 1 0 0 0 0
0 0 0 0 0 0 0 0 0 0 0 0 0 0 0 0 2 52 97 464 633 496 432 389 347 400 346 227 180 186 178 163 98 55 7 2 0 0 0 2 5 1 2 0 0 0 0 0 0
0 0 0 0 0 0 0 0 0 0 0 0 0 0 0 0 0 47 386 629 540 466 425 443 389 373 178 97 65 53 114 164 115 59 1 0 0 0 0 0 1 0 0 0 0 0 0 0 0
0 0 0 0 0 0 0 0 0 0 0 0 0 0 0 0 0 232 578 650 429 437 443 485 422 253 134 105 52 48 190 276 65 0 0 0 0 0 0 0 0 0 0 0 0 0 0 0 0
0 0 0 0 0 0 0 0 0 0 0 0 0 0 0 0 147 455 699 602 513 463 498 526 369 203 162 62 54 189 289 84 15 0 0 1 2 0 0 0 0 0 1 2 2 0 0 0 0
0 0 0 0 0 0 0 0 0 0 0 0 0 0 0 0 274 704 675 583 590 547 449 499 308 236 191 93 152 324 240 66 2 16 27 22 19 3 0 0 0 1 4 13 14 1 8 2 0
0 0 0 0 0 0 0 0 0 0 0 0 0 0 0 0 233 856 817 639 600 534 399 338 328 281 208 141 239 345 327 90 10 26 27 21 21 39 0 0 0 7 24 37 43 50 0 0 0
0 0 0 0 0 0 0 0 0 0 0 0 0 0 0 0 407 868 929 902 753 583 427 427 339 283 161 147 80 295 350 141 26 69 63 28 29 70 60 0 0 18 47 69 109 20 0 0 0
0 0 0 0 0 0 0 0 0 0 0 0 0 0 8 21 265 660 910 1077 1031 747 509 545 410 283 200 147 45 105 285 116 94 51 35 6 8 60 105 6 0 41 83 43 29 0 0 0 0
0 0 0 0 0 0 0 0 0 0 0 0 0 0 25 30 56 440 720 875 887 870 631 619 473 339 238 160 52 29 263 108 64 48 0 9 74 74 101 4 3 40 61 0 0 0 0 0 0
0 0 0 0 0 0 0 0 0 0 0 0 0 0 0 29 25 95 526 749 894 928 851 757 571 424 309 194 75 23 58 122 65 38 0 11 93 121 73 6 0 4 0 0 0 0 0 0 0
0 0 0 0 0 0 0 0 0 0 0 0 0 0 0 0 0 0 22 382 877 1025 912 844 713 573 418 263 116 28 6 8 35 38 25 0 34 69 27 6 0 0 0 0 0 0 0 0 0
0 0 0 0 0 0 0 0 0 0 0 0 0 0 0 0 0 0 0 34 229 936 1046 953 889 703 544 412 206 95 23 11 0 0 18 9 0 41 40 32 2 0 0 0 0 0 0 0 0
0 0 0 0 0 0 0 0 0 0 0 0 0 0 0 0 0 0 0 0 3 107 588 993 1000 823 708 564 376 161 81 36 0 0 0 10 0 0 19 46 7 0 0 0 0 0 0 0 0
0 0 0 0 0 0 0 0 0 0 0 0 0 0 0 0 0 0 0 0 0 0 0 340 1019 1014 874 700 517 313 115 65 10 0 0 0 0 0 0 0 2 0 0 0 0 0 0 0 0
0 0 0 0 0 0 0 0 0 0 0 0 0 0 0 0 0 0 0 0 0 0 0 0 190 995 1084 831 679 448 204 98 40 5 0 0 0 0 0 0 0 0 0 0 0 0 0 0 0
0 0 0 0 0 0 0 0 0 0 0 0 0 0 0 0 0 0 0 0 0 0 0 0 0 129 929 938 693 492 277 177 71 95 25 0 0 0 0 0 0 0 0 0 0 0 0 0 0
0 0 0 0 0 0 0 0 0 0 0 0 0 0 0 0 0 0 0 0 0 0 0 0 0 0 246 734 699 635 485 428 229 150 126 22 0 0 0 0 0 0 0 0 0 0 0 0 0
4 1 0 0 0 0 0 0 0 0 0 0 0 0 0 0 0 0 0 0 0 0 0 0 0 0 23 457 704 726 607 428 457 282 124 14 0 0 0 0 0 0 0 0 0 0 0 0 0
4 1 0 0 0 0 0 0 0 0 0 0 0 0 0 0 0 0 0 0 0 0 0 0 0 0 0 255 661 366 410 68 194 238 218 16 0 0 0 0 0 0 0 0 0 0 0 0 0
0 0 0 0 0 0 0 0 0 0 0 0 0 0 0 0 0 0 0 0 0 0 0 0 0 0 0 6 388 379 448 433 340 317 269 24 0 0 0 0 0 0 0 0 0 0 0 0 0
0 0 0 0 0 0 0 0 0 0 0 0 0 0 0 0 0 0 0 0 0 0 0 0 0 0 0 0 301 370 505 511 315 328 114 0 0 0 0 0 0 0 0 0 0 0 0 0 0
0 0 0 0 0 0 0 0 0 0 0 0 0 0 0 0 0 0 0 0 0 0 0 0 0 0 0 0 0 222 323 163 157 133 13 0 0 0 0 0 0 0 0 0 0 0 0 0 0
0 0 0 0 0 0 0 0 0 0 0 0 0 0 0 0 0 0 0 0 0 0 0 0 0 0 0 0 0 0 20 92 110 32 52 0 0 0 0 0 0 0 0 0 0 0 0 0 0
0 0 0 0 0 0 0 0 0 0 0 0 0 0 0 0 0 0 0 0 0 0 0 0 0 0 0 0 0 0 0 18 51 31 7 0 0 0 0 0 0 0 0 0 0 0 0 0 0
0 0 0 0 0 0 0 0 0 0 0 0 0 0 0 0 0 0 0 0 0 0 0 0 0 0 0 0 0 0 0 0 0 18 17 0 0 0 0 0 0 0 0 0 0 0 0 0 0
0 0 0 0 0 0 0 0 0 0 0 0 0 0 0 0 0 0 0 0 0 0 0 0 0 0 0 0 0 0 0 0 0 0 0 0 0 0 0 0 0 0 0 0 0 0 0 0 0
0 0 0 0 0 0 0 0 0 0 0 0 0 0 0 0 0 0 0 0 0 0 0 0 0 0 0 0 0 0 0 0 0 0 0 0 0 0 0 0 0 0 0 0 0 0 0 0 0
0 0 0 0 0 0 0 0 0 0 0 0 0 0 0 0 0 0 0 0 0 0 0 0 0 0 0 0 0 0 0 0 0 0 0 0 0 0 0 0 0 0 0 0 0 0 0 0 0

GFSSGP_con_mlcape_042.txt.gz
CAPE
0 0 0 0 0 0 0 0 0 0 0 0 0 0 0 0 0 0 0 105 149 262 566 536 813 741 494 230 462 585 367 134 117 27 11 1 0 0 0 20 37 54 51 53 62 44 8 0 0
0 0 0 0 0 0 0 0 0 0 0 0 0 0 0 0 0 6 66 181 350 535 577 567 764 382 191 283 455 591 344 194 94 26 10 6 0 0 2 20 14 20 25 15 0 0 0 0 0
0 0 0 0 0 0 0 0 0 0 0 0 0 0 0 0 0 10 50 304 583 567 481 493 505 380 368 502 437 459 449 266 115 24 6 3 0 0 3 2 7 4 0 2 1 0 0 0 0
0 0 0 0 0 0 0 0 0 0 0 0 0 0 0 0 0 0 184 509 530 475 366 479 413 510 531 498 461 376 404 296 128 76 5 0 0 0 1 5 1 0 0 0 0 0 0 0 0
0 0 0 0 0 0 0 0 0 0 0 0 0 0 0 0 0 137 354 622 497 364 350 472 392 421 317 191 147 174 141 202 169 87 2 0 0 0 0 1 0 0 0 0 0 0 0 0 0
0 0 0 0 0 0 0 0 0 0 0 0 0 0 0 0 79 369 538 545 475 330 419 478 414 345 216 167 127 119 184 452 168 54 2 1 0 0 0 0 0 1 0 1 2 2 1 1 1
0 0 0 0 0 0 0 0 0 0 0 0 0 0 0 0 222 620 578 525 465 424 427 456 359 215 168 143 96 76 509 245 76 32 11 24 0 0 0 0 0 3 4 13 8 22 22 0 0
0 0 0 0 0 0 0 0 0 0 0 0 0 0 0 0 461 621 607 550 474 487 396 340 255 160 119 87 100 441 213 127 48 69 36 39 34 2 0 0 0 15 37 35 34 56 0 0 0
0 0 0 0 0 0 0 0 0 0 0 0 0 0 0 0 632 615 619 650 567 512 383 344 154 131 119 75 124 284 294 109 22 90 90 62 57 80 17 0 1 32 49 52 68 7 0 0 0
0 0 0 0 0 0 0 0 0 0 0 0 0 0 0 129 650 532 585 651 679 474 387 380 224 152 147 123 81 222 359 156 33 73 77 53 53 97 101 0 5 63 76 137 162 0 0 0 0
0 0 0 0 0 0 0 0 0 0 0 0 0 0 0 119 664 714 789 746 757 618 501 469 284 244 178 134 78 52 265 179 99 46 63 51 53 58 125 19 5 69 101 21 10 0 0 0 0
0 0 0 0 0 0 0 0 0 0 0 0 0 0 0 0 129 586 758 810 749 794 618 457 430 301 226 155 88 24 77 151 111 60 28 11 17 46 81 63 6 21 20 0 0 0 0 0 0
0 0 0 0 0 0 0 0 0 0 0 0 0 0 0 0 0 0 70 631 837 848 749 635 565 503 301 185 118 37 17 123 110 66 40 6 34 77 82 84 24 0 0 0 0 0 0 0 0
0 0 0 0 0 0 0 0 0 0 0 0 0 0 0 0 0 0 0 0 442 855 853 759 761 659 421 311 148 88 19 46 100 75 51 11 22 86 84 45 17 0 0 0 0 0 0 0 0
0 0 0 0 0 0 0 0 0 0 0 0 0 0 0 0 0 0 0 0 0 227 805 867 864 755 628 462 243 117 55 20 3 24 30 36 0 37 67 33 24 0 0 0 0 0 0 0 0
0 0 0 0 0 0 0 0 0 0 0 0 0 0 0 0 0 0 0 0 0 0 74 744 894 893 785 626 420 260 108 47 0 0 0 0 0 0 21 26 22 2 0 0 0 0 0 0 0
0 0 0 0 0 0 0 0 0 0 0 0 0 0 0 0 0 0 0 0 0 0 0 0 606 895 939 789 576 383 198 103 59 8 0 0 0 0 0 1 16 0 0 0 0 0 0 0 0
0 0 0 0 0 0 0 0 0 0 0 0 0 0 0 0 0 0 0 0 0 0 0 0 0 216 633 817 660 401 271 149 63 47 5 0 0 0 0 0 0 0 0 0 0 0 0 0 0
0 0 0 0 0 0 0 0 0 0 0 0 0 0 0 0 0 0 0 0 0 0 0 0 0 0 8 534 611 568 480 397 172 101 63 0 0 0 0 0 0 0 0 0 0 0 0 0 0
0 0 0 0 0 0 0 0 0 0 0 0 0 0 0 0 0 0 0 0 0 0 0 0 0 0 0 240 489 519 381 349 319 172 126 57 0 0 0 0 0 0 0 0 0 0 0 0 0
9 0 0 0 0 0 0 0 0 0 0 0 0 0 0 0 0 0 0 0 0 0 0 0 0 0 0 3 191 277 315 73 198 174 205 150 8 0 0 0 0 0 0 0 0 0 0 0 0
0 0 0 0 0 0 0 0 0 0 0 0 0 0 0 0 0 0 0 0 0 0 0 0 0 0 0 0 0 3 56 71 149 284 342 170 42 18 0 0 0 0 0 0 0 0 0 0 0
0 0 0 0 0 0 0 0 0 0 0 0 0 0 0 0 0 0 0 0 0 0 0 0 0 0 0 0 0 0 0 237 250 272 278 107 0 0 0 0 0 0 0 0 0 0 0 0 0
0 0 0 0 0 0 0 0 0 0 0 0 0 0 0 0 0 0 0 0 0 0 0 0 0 0 0 0 0 0 0 22 77 179 274 32 0 0 0 0 0 0 0 0 0 0 0 0 0
0 0 0 0 0 0 0 0 0 0 0 0 0 0 0 0 0 0 0 0 0 0 0 0 0 0 0 0 0 0 6 56 53 131 86 2 0 0 0 0 0 0 0 0 0 0 0 0 0
0 0 0 0 0 0 0 0 0 0 0 0 0 0 0 0 0 0 0 0 0 0 0 0 0 0 0 0 0 0 0 49 54 74 101 40 1 5 0 0 0 0 0 0 0 0 0 0 0
0 0 0 0 0 0 0 0 0 0 0 0 0 0 0 0 0 0 0 0 0 0 0 0 0 0 0 0 0 0 0 0 0 21 59 65 20 1 0 0 0 0 0 0 0 0 0 0 0
0 0 0 0 0 0 0 0 0 0 0 0 0 0 0 0 0 0 0 0 0 0 0 0 0 0 0 0 0 0 0 0 0 0 0 7 12 0 0 0 0 0 0 0 0 0 0 0 0
0 0 0 0 0 0 0 0 0 0 0 0 0 0 0 0 0 0 0 0 0 0 0 0 0 0 0 0 0 0 0 0 0 0 0 0 0 0 0 0 0 0 0 0 0 0 0 0 0
0 0 0 0 0 0 0 0 0 0 0 0 0 0 0 0 0 0 0 0 0 0 0 0 0 0 0 0 0 0 0 0 0 0 0 0 0 0 0 0 0 0 0 0 0 0 0 0 0

GFSSGP_con_mlcape_045.txt.gz
CAPE
0 0 0 0 0 0 0 0 0 0 0 0 0 0 0 0 0 0 0 120 58 339 850 790 794 922 947 1018 892 610 282 118 71 11 3 0 0 0 0 2 31 5 1 37 53 27 7 0 0
0 0 0 0 0 0 0 0 0 0 0 0 0 0 0 0 0 0 67 183 135 601 695 771 723 1002 594 543 551 526 276 170 98 11 7 0 0 0 1 14 57 66 57 27 8 0 0 0 0
0 0 0 0 0 0 0 0 0 0 0 0 0 0 0 0 0 4 40 299 408 630 604 683 680 556 143 147 508 500 349 210 86 14 5 1 0 0 5 6 14 8 3 0 0 0 0 0 0
0 0 0 0 0 0 0 0 0 0 0 0 0 0 0 0 0 6 165 530 586 637 599 705 538 283 241 373 399 583 482 252 101 10 5 0 0 2 0 0 5 0 0 0 0 0 0 0 0
0 0 0 0 0 0 0 0 0 0 0 0 0 0 0 0 2 161 386 588 569 572 506 552 380 385 387 406 376 449 527 309 120 33 0 0 0 1 7 3 4 0 0 0 0 0 0 2 4
0 0 0 0 0 0 0 0 0 0 0 0 0 0 0 0 110 344 538 561 520 503 453 473 379 426 396 342 308 290 270 237 178 66 0 0 0 0 1 0 0 0 0 0 1 4 5 3 0
0 0 0 0 0 0 0 0 0 0 0 0 0 0 0 0 226 519 551 575 452 468 460 485 392 381 268 173 127 145 235 446 209 71 6 0 0 0 1 2 1 1 1 11 22 30 18 0 0
0 0 0 0 0 0 0 0 0 0 0 0 0 0 0 0 303 509 498 457 500 484 416 400 393 350 236 173 102 103 191 351 130 78 22 13 0 0 0 0 3 6 33 38 43 35 0 0 0
0 0 0 0 0 0 0 0 0 0 0 0 0 0 0 0 405 491 462 436 451 454 446 394 334 245 154 122 94 108 321 202 102 76 32 38 34 2 0 0 5 26 48 55 98 1 0 0 0
0 0 0 0 0 0 0 0 0 0 0 0 0 0 0 118 405 429 454 476 527 463 435 397 328 155 133 96 119 365 301 176 99 90 97 105 104 108 38 0 4 40 54 64 169 0 0 0 0
0 0 0 0 0 0 0 0 0 0 0 0 0 0 0 159 485 495 475 484 515 482 381 381 347 225 147 105 106 176 309 179 107 85 111 94 85 117 138 34 11 89 84 122 44 0 0 0 0
0 0 0 0 0 0 0 0 0 0 0 0 0 0 0 0 276 385 410 494 527 547 441 379 478 227 184 180 117 93 207 232 151 79 87 87 86 86 133 95 25 64 96 9 0 0 0 0 0
0 0 0 0 0 0 0 0 0 0 0 0 0 0 0 0 0 35 333 508 499 580 527 461 411 239 186 183 138 95 65 196 191 134 51 55 63 41 56 94 59 36 53 0 0 0 0 0 0
0 0 0 0 0 0 0 0 0 0 0 0 0 0 0 0 0 0 0 0 256 621 717 559 451 376 304 193 123 111 79 78 128 132 90 28 27 31 43 66 68 33 5 0 0 0 0 0 0
0 0 0 0 0 0 0 0 0 0 0 0 0 0 0 0 0 0 0 0 0 2 448 654 593 418 405 395 231 152 119 73 66 97 87 44 17 29 59 75 59 30 0 0 0 0 0 0 0
0 0 0 0 0 0 0 0 0 0 0 0 0 0 0 0 0 0 0 0 0 0 0 221 622 590 582 500 399 243 124 86 69 64 62 62 22 18 55 69 60 22 0 0 0 0 0 0 0
0 0 0 0 0 0 0 0 0 0 0 0 0 0 0 0 0 0 0 0 0 0 0 0 144 538 670 632 490 355 219 127 81 35 27 26 34 11 30 32 39 7 0 0 0 0 0 0 0
0 0 0 0 0 0 0 0 0 0 0 0 0 0 0 0 0 0 0 0 0 0 0 0 0 40 654 816 617 421 223 162 121 76 41 0 3 0 8 2 11 0 0 0 0 0 0 0 0
0 0 0 0 0 0 0 0 0 0 0 0 0 0 0 0 0 0 0 0 0 0 0 0 0 0 1 484 533 531 307 298 179 155 48 26 15 0 0 0 0 0 0 0 0 0 0 0 0
0 0 0 0 0 0 0 0 0 0 0 0 0 0 0 0 0 0 0 0 0 0 0 0 0 0 0 0 149 334 296 291 245 171 77 71 34 1 0 0 0 0 0 0 0 0 0 0 0
1 0 0 0 0 0 0 0 0 0 0 0 0 0 0 0 0 0 0 0 0 0 0 0 0 0 0 0 6 326 251 115 180 105 146 99 62 46 24 22 0 0 0 0 0 0 0 0 0
1 0 0 0 0 0 0 0 0 0 0 0 0 0 0 0 0 0 0 0 0 0 0 0 0 0 0 0 0 0 0 0 42 109 127 167 89 41 13 17 0 0 0 0 0 0 0 0 0
0 0 0 0 0 0 0 0 0 0 0 0 0 0 0 0 0 0 0 0 0 0 0 0 0 0 0 0 0 0 0 0 69 125 99 154 66 26 1 6 0 0 0 0 0 0 0 0 0
0 0 0 0 0 0 0 0 0 0 0 0 0 0 0 0 0 0 0 0 0 0 0 0 0 0 0 0 0 0 0 20 56 106 74 108 65 32 2 2 0 0 0 0 0 0 0 0 0
0 0 0 0 0 0 0 0 0 0 0 0 0 0 0 0 0 0 0 0 0 0 0 0 0 0 0 0 0 0 0 40 121 78 55 138 21 1 6 5 2 1 0 0 0 0 0 0 0
0 0 0 0 0 0 0 0 0 0 0 0 0 0 0 0 0 0 0 0 0 0 0 0 0 0 0 0 0 0 0 0 2 52 94 96 36 31 14 1 1 0 0 0 0 0 0 0 0
0 0 0 0 0 0 0 0 0 0 0 0 0 0 0 0 0 0 0 0 0 0 0 0 0 0 0 0 0 0 0 0 0 0 6 67 78 35 17 0 2 2 1 0 0 0 0 0 0
0 0 0 0 0 0 0 0 0 0 0 0 0 0 0 0 0 0 0 0 0 0 0 0 0 0 0 0 0 0 0 0 0 0 0 0 14 15 0 0 1 1 0 0 0 0 0 0 0
0 0 0 0 0 0 0 0 0 0 0 0 0 0 0 0 0 0 0 0 0 0 0 0 0 0 0 0 0 0 0 0 0 0 0 0 0 0 0 0 0 0 0 0 0 0 0 0 0
0 0 0 0 0 0 0 0 0 0 0 0 0 0 0 0 0 0 0 0 0 0 0 0 0 0 0 0 0 0 0 0 0 0 0 0 0 0 0 0 0 0 0 0 0 0 0 0 0

GFSSGP_con_mlcape_048.txt.gz
CAPE
6 0 0 0 0 0 0 0 0 0 0 0 0 0 0 0 0 4 76 435 162 487 918 862 697 771 1232 1236 1027 704 398 165 18 6 0 0 0 0 0 15 4 3 2 38 44 2 0 0 0
2 0 0 0 0 0 0 0 0 0 0 0 0 0 0 0 0 195 443 471 282 898 1033 939 722 1005 1160 1148 842 562 333 94 27 10 4 0 0 0 3 53 37 35 43 41 6 0 0 0 0
0 0 0 0 0 0 0 0 0 0 0 0 0 0 0 0 0 218 378 460 458 767 704 1055 919 1022 898 769 661 475 345 199 48 3 3 0 0 4 15 42 52 24 4 0 0 0 0 0 1
0 0 0 0 0 0 0 0 0 0 0 0 0 0 0 0 2 188 580 444 612 675 721 1024 860 492 478 485 529 431 453 180 53 3 3 0 0 2 3 1 5 0 0 0 0 0 0 0 2
0 0 0 0 0 0 0 0 0 0 0 0 0 0 0 35 305 442 758 690 717 635 601 718 530 368 232 342 469 512 516 243 77 4 0 0 0 1 0 0 0 0 0 0 0 0 0 0 1
0 0 1 1 0 0 0 0 0 0 0 0 0 0 0 139 514 666 841 843 783 696 495 520 329 298 366 391 354 396 576 284 136 32 0 0 0 0 5 3 0 0 0 0 0 1 3 2 0
0 0 0 0 0 0 0 0 0 0 0 0 0 0 0 32 648 602 722 878 847 745 406 299 348 427 337 321 320 346 382 256 205 83 0 0 0 0 0 0 0 0 0 10 22 25 21 0 0
0 0 0 0 0 0 0 0 0 0 0 0 0 0 0 0 589 576 510 587 596 731 435 327 273 355 333 302 164 180 181 312 177 87 1 0 0 0 0 0 0 2 32 44 46 24 0 0 0
0 0 0 0 0 0 0 0 0 0 0 0 0 0 0 0 451 549 494 442 518 740 553 430 268 264 196 97 103 104 178 366 158 76 19 0 0 0 0 0 0 18 45 25 83 0 0 0 0
0 0 0 0 0 0 0 0 0 0 0 0 0 0 67 207 423 551 513 474 507 531 611 544 389 231 137 76 85 13 183 271 208 48 21 15 14 0 0 0 0 20 66 26 89 0 0 0 0
0 0 0 0 0 0 0 0 0 0 0 0 0 0 16 196 381 489 548 569 505 522 479 477 414 266 122 85 91 76 238 172 153 38 27 48 81 96 38 0 0 29 35 47 59 0 0 0 0
0 0 0 0 0 0 0 0 0 0 0 0 0 0 0 155 375 485 472 503 486 513 511 380 385 372 159 131 108 91 160 193 142 95 34 84 80 110 119 56 1 26 66 97 111 0 0 0 0
0 0 0 0 0 0 0 0 0 0 0 0 0 0 0 0 14 380 492 509 531 577 582 475 391 685 324 233 190 137 125 166 165 147 85 56 74 85 114 123 67 8 44 59 43 0 0 0 0
0 0 0 0 0 0 0 0 0 0 0 0 0 0 0 0 0 0 49 392 689 740 665 540 550 636 606 312 354 321 220 166 196 168 136 87 46 62 82 101 117 79 33 39 13 0 0 0 0
0 0 0 0 0 0 0 0 0 0 0 0 0 0 0 0 0 0 0 0 0 15 263 719 703 570 580 391 305 484 495 309 197 196 154 113 59 45 41 53 100 122 73 16 4 0 0 0 0
0 0 0 0 0 0 0 0 0 0 0 0 0 0 0 0 0 0 0 0 0 0 0 0 285 689 698 656 496 476 606 530 391 289 178 138 80 49 44 51 92 135 104 0 0 0 0 0 0
0 0 0 0 0 0 0 0 0 0 0 0 0 0 0 0 0 0 0 0 0 0 0 0 0 118 541 727 597 482 524 659 644 475 323 264 134 71 44 44 55 93 84 11 0 0 0 0 0
0 0 0 0 0 0 0 0 0 0 0 0 0 0 0 0 0 0 0 0 0 0 0 0 0 0 48 530 655 423 352 479 816 658 491 397 269 163 79 46 48 63 63 30 0 0 0 0 0
0 0 0 0 0 0 0 0 0 0 0 0 0 0 0 0 0 0 0 0 0 0 0 0 0 0 0 1 561 449 502 464 409 552 687 564 336 190 116 70 41 49 60 58 0 0 0 0 0
0 0 0 0 0 0 0 0 0 0 0 0 0 0 0 0 0 0 0 0 0 0 0 0 0 0 0 0 16 304 476 475 618 335 323 468 489 265 177 112 79 53 65 64 38 0 0 0 0
0 0 0 0 0 0 0 0 0 0 0 0 0 0 0 0 0 0 0 0 0 0 0 0 0 0 0 0 0 0 201 347 318 325 256 248 329 344 240 190 161 83 47 46 47 0 0 0 0
1 0 0 0 0 0 0 0 0 0 0 0 0 0 0 0 0 0 0 0 0 0 0 0 0 0 0 0 0 0 0 55 95 57 215 417 235 236 292 174 182 130 59 13 1 0 0 0 0
1 0 0 0 0 0 0 0 0 0 0 0 0 0 0 0 0 0 0 0 0 0 0 0 0 0 0 0 0 0 0 0 0 8 140 275 339 142 102 97 110 123 67 16 0 0 0 0 0
0 0 0 0 0 0 0 0 0 0 0 0 0 0 0 0 0 0 0 0 0 0 0 0 0 0 0 0 0 0 0 0 0 12 195 381 418 233 67 15 79 116 64 24 11 0 0 0 0
0 0 0 0 0 0 0 0 0 0 0 0 0 0 0 0 0 0 0 0 0 0 0 0 0 0 0 0 0 0 0 0 0 3 48 301 444 267 70 46 32 43 30 22 3 0 0 0 0
2 1 0 0 0 0 0 0 0 0 0 0 0 0 0 0 0 0 0 0 0 0 0 0 0 0 0 0 0 0 0 0 0 0 1 123 239 398 232 42 32 46 29 5 1 1 0 0 0
1 0 0 0 0 0 0 0 0 0 0 0 0 0 0 0 0 0 0 0 0 0 0 0 0 0 0 0 0 0 0 0 0 0 0 0 38 190 314 305 42 26 3 1 0 1 1 1 0
0 0 0 0 0 0 0 0 0 0 0 0 0 0 0 0 0 0 0 0 0 0 0 0 0 0 0 0 0 0 0 0 0 0 0 0 8 68 167 131 91 6 0 0 0 1 1 1 0
0 0 0 0 0 0 0 0 0 0 0 0 0 0 0 0 0 0 0 0 0 0 0 0 0 0 0 0 0 0 0 0 0 0 0 0 8 38 52 73 45 2 1 0 1 0 0 0 0
0 0 0 0 0 0 0 0 0 0 0 0 0 0 0 0 0 0 0 0 0 0 0 0 0 0 0 0 0 0 0 0 0 0 0 1 2 0 1 2 0 1 1 1 0 0 0 0 0

GFSSGP_con_mlcape_051.txt.gz
CAPE
1 0 0 0 0 0 0 0 0 0 0 0 0 0 0 0 0 55 265 538 345 817 1072 1037 709 778 1196 1271 1137 709 397 131 14 4 0 0 1 0 0 4 0 0 33 46 25 0 0 0 0
13 0 0 0 0 0 0 0 0 0 0 0 0 0 0 0 1 567 692 554 438 813 1006 822 721 866 1303 1158 920 569 306 75 0 0 0 0 0 0 35 24 7 7 39 33 1 0 0 0 0
35 0 0 0 0 0 0 0 0 0 0 0 0 0 0 0 49 431 747 417 613 919 815 1108 793 989 1272 1028 751 479 240 80 9 0 0 0 0 5 47 52 19 20 4 0 0 0 0 0 1
15 0 0 0 0 0 0 0 0 0 0 0 0 0 0 17 97 493 624 463 780 754 941 937 801 942 945 784 563 334 178 119 8 2 0 0 2 8 3 1 7 1 0 0 0 0 0 0 0
16 10 3 1 0 0 0 0 0 0 0 0 0 0 0 350 486 702 591 468 743 590 1144 968 771 637 705 585 310 308 209 93 17 1 0 0 0 2 6 0 1 0 0 0 0 0 0 0 1
4 31 21 17 1 0 0 0 0 0 0 0 0 0 11 468 787 907 778 729 704 590 720 684 449 210 205 281 396 331 233 162 27 2 0 0 0 0 0 0 0 0 0 0 0 0 1 2 0
0 22 26 23 20 1 0 0 0 0 0 0 0 0 17 522 933 923 908 842 805 643 422 443 278 221 244 283 287 328 298 176 72 6 0 0 0 0 0 0 0 0 0 0 2 1 0 0 0
0 40 36 31 19 0 0 0 0 0 0 0 0 0 1 26 830 771 789 958 883 729 361 262 254 333 367 339 207 246 387 218 102 21 0 0 0 0 0 0 0 0 0 0 5 0 0 0 0
0 14 20 20 8 2 10 0 0 0 0 0 0 0 0 0 635 578 527 507 713 749 496 314 233 290 235 191 223 170 181 203 120 43 0 0 0 0 0 0 0 0 2 4 42 0 0 0 0
0 0 0 0 5 0 4 0 0 0 0 0 0 0 43 36 352 455 465 440 505 747 592 440 258 212 172 92 108 37 50 225 158 97 15 0 0 0 0 0 0 0 30 12 13 0 0 0 0
0 0 0 3 0 0 0 0 0 0 0 0 0 0 0 125 277 420 483 580 508 529 621 562 433 248 143 46 54 10 28 208 225 112 36 1 14 1 0 0 0 0 19 34 29 0 0 0 0
0 0 0 0 0 0 0 0 0 0 0 0 0 0 0 0 210 321 417 610 664 580 472 461 557 408 171 73 51 32 134 167 130 110 32 27 70 81 9 0 0 4 26 42 88 47 0 0 0
0 0 0 0 0 0 0 0 0 0 0 0 0 0 0 0 0 227 339 482 536 559 687 460 422 540 423 153 97 82 101 186 150 102 60 46 74 74 90 63 26 1 37 53 121 77 0 0 0
0 1 0 0 0 0 0 0 0 0 0 0 0 0 0 0 0 0 116 446 489 514 610 628 441 411 710 426 265 262 204 204 230 184 129 50 51 57 82 106 92 59 23 38 48 30 0 0 0
0 1 0 0 0 0 0 0 0 0 0 0 0 0 0 0 0 0 0 0 39 312 550 718 666 655 765 817 516 462 554 458 319 382 241 118 56 52 57 73 93 108 89 40 24 2 0 0 0
4 3 0 0 0 0 0 0 0 0 0 0 0 0 0 0 0 0 0 0 0 0 0 44 460 786 769 796 687 530 696 678 532 478 452 294 152 72 46 50 60 93 118 96 34 10 0 0 0
20 0 0 0 0 0 0 0 0 0 0 0 0 0 0 0 0 0 0 0 0 0 0 0 0 24 477 722 736 535 468 809 875 692 591 494 344 197 81 55 52 63 107 85 56 13 0 0 0
0 0 0 0 0 0 0 0 0 0 0 0 0 0 0 0 0 0 0 0 0 0 0 0 0 0 0 51 340 734 517 457 732 984 842 715 581 448 225 113 69 61 94 87 59 14 0 0 0
0 0 0 0 0 0 0 0 0 0 0 0 0 0 0 0 0 0 0 0 0 0 0 0 0 0 0 0 0 658 518 403 353 765 1066 902 814 651 482 334 214 108 97 149 97 27 0 0 0
0 0 0 0 0 0 0 0 0 0 0 0 0 0 0 0 0 0 0 0 0 0 0 0 0 0 0 0 0 0 547 397 400 371 611 984 989 825 596 573 449 293 177 151 110 48 0 0 0
1 0 0 0 0 0 0 0 0 0 0 0 0 0 0 0 0 0 0 0 0 0 0 0 0 0 0 0 0 0 0 312 481 648 612 474 551 865 779 587 595 519 336 249 215 136 3 0 0
7 0 1 0 0 0 0 0 0 0 0 0 0 0 0 0 0 0 0 0 0 0 0 0 0 0 0 0 0 0 0 0 129 332 418 453 381 362 489 589 590 579 503 350 346 268 50 0 0
23 0 0 0 0 0 0 0 0 0 0 0 0 0 0 0 0 0 0 0 0 0 0 0 0 0 0 0 0 0 0 0 0 0 64 95 293 527 373 287 385 427 506 432 423 287 153 0 0
0 0 0 0 0 0 0 0 0 0 0 0 0 0 0 0 0 0 0 0 0 0 0 0 0 0 0 0 0 0 0 0 0 0 7 14 185 426 595 295 168 222 286 325 324 359 152 3 0
0 11 7 2 0 0 0 0 0 0 0 0 0 0 0 0 0 0 0 0 0 0 0 0 0 0 0 0 0 0 0 0 0 0 0 7 51 265 493 341 211 144 171 230 275 221 134 2 0
3 19 25 1 0 0 0 0 0 0 0 0 0 0 0 0 0 0 0 0 0 0 0 0 0 0 0 0 0 0 0 0 0 0 0 0 1 57 277 496 308 173 203 235 234 158 101 0 0
0 0 0 0 0 0 0 0 0 0 0 0 0 0 0 0 0 0 0 0 0 0 0 0 0 0 0 0 0 0 0 0 0 0 0 0 0 0 56 325 480 283 172 233 258 159 53 5 0
1 0 0 0 0 0 0 0 0 0 0 0 0 0 0 0 0 0 0 0 0 0 0 0 0 0 0 0 0 0 0 0 0 0 0 0 0 0 5 91 264 244 180 189 148 86 5 0 0
0 0 0 0 0 0 0 0 0 0 0 0 0 0 0 0 0 0 0 0 0 0 0 0 0 0 0 0 0 0 0 0 0 0 0 0 0 0 1 41 96 114 123 56 37 4 1 1 0
0 0 0 0 0 0 0 0 0 0 0 0 0 0 0 0 0 0 0 0 0 0 0 0 0 0 0 0 0 0 0 0 0 0 0 0 0 0 0 0 0 10 1 0 0 0 0 0 0

GFSSGP_con_mlcape_054.txt.gz
CAPE
0 0 0 0 0 0 0 0 0 0 0 0 0 0 0 0 9 133 346 361 1111 651 924 938 815 882 1139 1254 924 519 291 68 28 8 4 0 0 0 1 0 0 0 38 37 0 0 0 1 1
21 39 0 0 0 0 0 0 0 0 0 0 0 0 0 21 446 381 611 418 896 835 705 679 777 782 1260 1114 718 387 174 15 0 0 0 0 0 21 12 1 1 23 39 2 0 0 0 1 1
14 59 4 0 0 0 0 0 0 0 0 0 0 0 0 21 351 646 703 395 914 942 863 935 917 1047 1219 847 566 303 74 3 0 0 0 0 2 61 36 29 41 17 0 0 0 0 0 1 1
19 57 1 0 0 0 0 0 0 0 0 0 0 0 0 178 376 654 441 475 896 810 994 821 897 1223 935 627 347 220 122 43 3 0 0 0 14 35 28 14 3 1 0 0 0 0 0 3 1
60 23 12 1 0 0 0 0 0 0 0 0 0 0 46 468 612 505 474 767 764 1195 999 678 811 1073 984 491 256 102 83 28 8 0 0 0 8 10 0 0 3 1 0 0 0 0 1 2 0
44 25 12 1 0 0 0 0 0 0 0 0 0 5 259 625 829 580 456 683 603 1204 1014 699 535 710 598 328 178 97 82 39 4 0 0 0 2 9 0 0 0 0 0 0 0 0 1 0 0
25 17 13 1 0 11 0 0 0 0 0 0 0 0 531 945 949 816 705 693 559 800 693 473 228 184 214 209 240 127 125 74 13 0 0 0 1 0 0 0 0 0 0 0 0 1 0 0 0
1 10 7 20 15 0 3 0 0 0 0 0 0 0 99 920 836 906 909 816 699 464 469 228 170 123 164 195 191 175 144 78 31 3 0 0 0 0 0 0 0 0 0 0 2 0 0 0 0
20 5 1 2 6 19 0 0 0 0 0 0 0 2 42 872 797 524 728 717 805 540 294 243 173 166 156 169 130 145 159 131 53 16 0 0 0 0 0 0 0 0 0 43 45 0 0 0 0
15 14 3 9 15 34 0 0 0 0 0 0 0 0 24 431 500 270 229 391 694 688 407 239 257 225 221 160 142 119 117 128 68 28 1 0 0 0 0 0 0 0 26 62 8 0 0 0 0
0 0 0 13 4 0 2 0 0 0 0 0 0 0 62 118 207 421 382 376 272 584 608 353 197 131 103 41 62 20 40 119 106 72 16 0 0 0 0 0 0 0 2 37 10 0 0 0 0
0 0 0 18 0 0 0 0 0 0 0 0 0 0 0 56 125 194 377 558 540 387 528 513 466 193 96 41 29 23 14 103 111 129 26 0 1 0 0 0 0 0 0 31 37 0 0 0 0
0 0 0 0 0 0 0 0 0 0 0 0 0 0 0 0 2 163 242 409 579 578 382 330 416 443 199 52 19 17 0 149 157 106 14 3 12 29 14 1 0 0 13 0 56 38 2 0 0
0 0 0 1 0 0 0 0 0 0 0 0 0 0 0 0 0 0 166 300 413 439 483 498 392 380 480 192 90 21 12 91 131 74 45 0 12 38 51 22 5 0 2 22 63 62 8 0 0
2 6 1 0 0 0 0 0 0 0 0 0 0 0 0 0 0 0 0 0 90 339 441 626 466 333 380 629 260 195 209 159 156 183 94 50 3 30 35 39 43 15 2 6 25 28 14 0 0
11 6 0 0 0 0 0 0 0 0 0 0 0 0 0 0 0 0 0 0 0 0 0 401 635 571 546 647 644 369 360 487 368 299 273 152 80 16 24 36 42 56 49 11 7 8 0 0 0
15 0 0 0 0 0 0 0 0 0 0 0 0 0 0 0 0 0 0 0 0 0 0 0 0 202 682 672 562 549 392 517 610 463 412 383 188 100 28 20 31 42 44 51 35 12 0 0 0
0 0 0 0 0 0 0 0 0 0 0 0 0 0 0 0 0 0 0 0 0 0 0 0 0 0 0 67 587 603 439 404 500 663 721 538 439 257 107 33 23 39 30 65 63 37 3 0 0
0 0 0 0 0 0 0 0 0 0 0 0 0 0 0 0 0 0 0 0 0 0 0 0 0 0 0 0 0 274 556 539 415 299 570 887 624 550 328 186 91 51 37 68 92 66 13 0 0
0 0 0 1 0 0 0 0 0 0 0 0 0 0 0 0 0 0 0 0 0 0 0 0 0 0 0 0 0 0 205 457 454 336 219 425 676 715 602 368 238 169 114 82 106 90 41 0 0
1 0 0 0 0 0 0 0 0 0 0 0 0 0 0 0 0 0 0 0 0 0 0 0 0 0 0 0 0 0 0 76 357 313 229 218 289 459 636 594 494 281 220 146 137 126 22 2 0
3 0 0 1 0 0 0 0 0 0 0 0 0 0 0 0 0 0 0 0 0 0 0 0 0 0 0 0 0 0 0 0 4 290 390 452 425 382 383 453 531 599 510 393 243 197 90 3 0
18 0 0 2 0 0 0 0 0 0 0 0 0 0 0 0 0 0 0 0 0 0 0 0 0 0 0 0 0 0 0 0 0 0 0 81 305 391 429 409 319 411 497 479 452 318 305 125 0
13 0 0 0 0 0 0 0 0 0 0 0 0 0 0 0 0 0 0 0 0 0 0 0 0 0 0 0 0 0 0 0 0 0 0 0 0 11 190 376 463 292 222 365 449 559 436 328 78
6 0 0 0 0 0 0 0 0 0 0 0 0 0 0 0 0 0 0 0 0 0 0 0 0 0 0 0 0 0 0 0 0 0 0 0 0 6 44 177 197 252 258 215 359 428 529 451 220
0 0 0 0 0 0 0 0 0 0 0 0 0 0 0 0 0 0 0 0 0 0 0 0 0 0 0 0 0 0 0 0 0 0 0 0 0 0 0 5 54 77 244 188 247 334 431 558 468
0 0 0 0 0 0 0 0 0 0 0 0 0 0 0 0 0 0 0 0 0 0 0 0 0 0 0 0 0 0 0 0 0 0 0 0 0 0 0 0 0 83 133 312 223 298 400 570 525
0 0 0 0 0 0 0 0 0 0 0 0 0 0 0 0 0 0 0 0 0 0 0 0 0 0 0 0 0 0 0 0 0 0 0 0 0 0 0 0 0 4 76 155 212 318 476 590 465
0 0 0 0 0 0 0 0 0 0 0 0 0 0 0 0 0 0 0 0 0 0 0 0 0 0 0 0 0 0 0 0 0 0 0 0 0 0 0 0 0 0 0 1 19 79 145 260 134
0 0 0 0 0 0 0 0 0 0 0 0 0 0 0 0 0 0 0 0 0 0 0 0 0 0 0 0 0 0 0 0 0 0 0 0 0 0 0 0 0 0 0 0 0 0 0 0 0

GFSSGP_con_mlcape_057.txt.gz
CAPE
0 0 0 0 0 0 0 0 0 0 0 0 0 0 0 1 22 4 205 494 701 708 1406 1204 1236 1310 1284 1066 818 474 111 12 12 5 8 0 0 0 0 0 0 45 35 0 0 1 2 2 0
0 3 0 0 0 0 0 0 0 0 0 0 0 0 0 155 172 240 594 718 607 663 1069 1038 1018 1071 1221 866 498 237 33 5 0 0 0 0 0 3 0 1 9 49 2 0 0 0 1 1 0
1 0 0 0 0 0 0 0 0 0 0 0 0 0 0 139 443 403 497 637 585 395 616 1001 919 1144 1080 707 421 204 5 0 0 0 0 0 62 10 5 14 55 3 0 0 0 0 0 0 0
3 20 0 0 0 0 0 0 0 0 0 0 0 0 1 261 519 564 486 844 754 495 680 970 894 1040 826 558 413 130 21 0 0 0 0 9 18 18 28 17 3 3 0 0 0 0 1 0 0
21 9 4 0 0 0 0 0 0 0 0 0 0 4 192 520 374 344 569 923 829 837 817 872 1006 1062 690 382 229 67 47 0 0 0 0 12 18 12 7 4 3 0 0 0 0 0 1 0 0
0 4 3 0 0 0 0 0 0 0 0 0 0 52 442 497 397 405 530 985 943 903 779 759 903 908 631 308 104 69 51 17 0 0 0 4 48 2 0 0 0 0 0 0 0 0 0 0 0
1 0 0 0 0 0 0 0 0 0 0 0 0 35 531 842 473 380 505 1142 1028 762 568 639 667 671 488 193 90 96 57 22 7 0 0 0 4 1 0 0 0 0 0 0 0 0 0 0 0
20 0 0 0 0 0 15 0 0 0 0 0 0 4 193 911 757 687 459 898 942 731 438 197 259 192 272 178 126 106 73 48 23 0 0 0 0 0 0 0 0 0 0 0 0 0 0 0 0
6 19 1 2 0 0 6 0 0 0 0 0 1 49 706 733 752 815 704 547 491 487 262 84 77 85 95 128 135 128 78 51 24 5 0 0 0 0 0 0 0 0 0 18 46 0 0 0 0
24 5 0 0 0 0 0 0 0 0 0 0 0 463 765 615 390 759 776 730 540 272 260 152 78 52 106 109 98 104 95 74 16 5 0 0 0 0 0 0 0 0 2 53 36 0 0 0 0
1 2 0 0 0 0 3 0 0 0 0 0 0 0 104 246 237 151 526 653 651 413 209 154 152 110 88 176 101 83 95 86 27 2 0 0 0 0 0 0 0 0 11 61 18 0 0 0 0
0 0 0 18 15 0 0 0 0 0 0 0 0 9 66 74 115 268 233 207 490 500 399 330 184 130 98 134 89 20 19 24 29 15 0 0 0 0 0 0 0 0 3 25 6 0 0 0 0
1 0 4 2 0 0 0 0 0 0 0 0 0 0 0 40 83 162 279 376 467 372 462 413 316 174 28 24 0 0 0 0 42 33 26 0 0 0 0 0 0 0 0 8 17 11 0 0 0
0 0 1 7 1 0 0 0 0 0 0 0 0 0 0 0 0 39 241 281 402 531 376 283 398 322 207 0 0 0 0 0 63 49 23 0 0 0 0 0 0 0 0 5 15 27 13 0 0
0 23 10 0 0 0 0 0 0 0 0 0 0 0 0 0 0 0 3 141 228 353 347 362 219 370 351 288 13 0 0 0 42 1 0 0 0 0 0 0 0 0 0 3 6 20 26 8 0
15 14 14 0 0 0 0 0 0 0 0 0 0 0 0 0 0 0 0 0 0 18 328 470 510 386 259 440 405 83 126 139 46 68 66 14 4 0 0 0 5 2 0 0 0 0 14 0 0
36 0 0 0 0 0 0 0 0 0 0 0 0 0 0 0 0 0 0 0 0 0 0 8 541 507 395 261 420 519 212 235 386 269 171 142 87 58 0 0 5 19 19 3 0 0 0 0 0
0 0 0 0 0 0 0 0 0 0 0 0 0 0 0 0 0 0 0 0 0 0 0 0 0 47 371 398 429 441 409 316 341 421 372 310 165 110 30 9 0 20 9 0 13 0 0 0 0
0 0 0 0 0 0 0 0 0 0 0 0 0 0 0 0 0 0 0 0 0 0 0 0 0 0 0 0 1 308 455 427 250 273 548 528 491 182 69 41 39 2 0 19 19 25 14 0 0
0 0 0 0 0 0 0 0 0 0 0 0 0 0 0 0 0 0 0 0 0 0 0 0 0 0 0 0 0 0 15 379 366 350 300 262 218 313 260 75 48 26 11 2 12 30 30 10 0
0 0 0 0 0 0 0 0 0 0 0 0 0 0 0 0 0 0 0 0 0 0 0 0 0 0 0 0 0 0 0 0 30 110 241 279 215 97 69 262 214 174 71 53 26 26 33 33 0
0 0 0 0 0 0 0 0 0 0 0 0 0 0 0 0 0 0 0 0 0 0 0 0 0 0 0 0 0 0 0 0 0 0 8 41 163 163 165 114 138 148 182 167 124 50 33 11 2
0 0 0 0 1 2 0 0 0 0 0 0 0 0 0 0 0 0 0 0 0 0 0 0 0 0 0 0 0 0 0 0 0 0 0 0 0 32 309 311 197 101 66 79 230 292 172 87 64
1 6 18 2 0 0 0 0 0 0 0 0 0 0 0 0 0 0 0 0 0 0 0 0 0 0 0 0 0 0 0 0 0 0 0 0 0 0 0 115 136 189 235 163 99 73 142 235 155
1 4 2 2 0 0 0 0 0 0 0 0 0 0 0 0 0 0 0 0 0 0 0 0 0 0 0 0 0 0 0 0 0 0 0 0 0 0 0 0 8 21 59 47 105 98 118 115 238
1 0 0 0 0 0 0 0 0 0 0 0 0 0 0 0 0 0 0 0 0 0 0 0 0 0 0 0 0 0 0 0 0 0 0 0 0 0 0 0 0 0 0 30 60 52 46 81 126
0 0 0 0 0 0 0 0 0 0 0 0 0 0 0 0 0 0 0 0 0 0 0 0 0 0 0 0 0 0 0 0 0 0 0 0 0 0 0 0 0 0 0 24 37 88 51 70 124
0 0 0 1 0 0 0 0 0 0 0 0 0 0 0 0 0 0 0 0 0 0 0 0 0 0 0 0 0 0 0 0 0 0 0 0 0 0 0 0 0 0 0 0 0 1 4 8 38
0 0 0 0 0 0 0 0 0 0 0 0 0 0 0 0 0 0 0 0 0 0 0 0 0 0 0 0 0 0 0 0 0 0 0 0 0 0 0 0 0 0 0 0 0 0 0 0 0
0 0 0 0 0 0 0 0 0 0 0 0 0 0 0 0 0 0 0 0 0 0 0 0 0 0 0 0 0 0 0 0 0 0 0 0 0 0 0 0 0 0 0 0 0 0 0 0 0

GFSSGP_con_mlcape_060.txt.gz
CAPE
0 0 0 0 0 0 0 0 0 0 0 0 0 0 4 8 19 0 95 403 779 1035 1384 1408 1416 1336 1275 1067 940 603 327 129 79 10 6 0 0 0 0 0 43 31 0 0 0 2 1 0 0
0 0 0 0 0 0 0 0 0 0 0 0 0 0 2 75 200 428 428 742 798 1209 1435 1423 1367 1322 1131 961 497 224 2 0 0 0 0 0 4 1 1 0 75 3 0 0 0 1 0 0 0
6 0 0 0 0 0 0 0 0 0 0 0 0 0 7 324 303 434 564 777 929 1079 1157 1186 1300 1242 1081 708 406 31 0 0 0 0 0 14 8 3 0 78 50 0 0 0 0 0 0 0 0
25 0 0 0 0 0 0 0 0 0 0 0 0 0 138 228 415 529 664 754 608 694 793 1014 1122 1095 909 610 327 22 0 0 0 0 0 175 205 3 177 99 0 0 0 0 0 0 0 0 0
17 0 0 0 0 0 0 0 0 0 0 0 0 14 213 376 329 730 694 460 375 606 892 1004 927 943 709 559 305 39 12 0 0 0 69 93 48 73 58 1 0 0 0 0 0 0 0 0 0
8 0 0 0 0 0 0 0 0 0 0 0 5 35 297 201 234 825 783 586 366 446 789 799 748 796 566 467 326 73 26 8 0 0 87 113 89 72 51 0 0 0 0 0 0 0 0 0 0
1 0 0 0 0 0 0 0 0 0 0 0 5 26 431 520 243 815 957 878 848 800 851 836 780 704 462 263 135 80 58 21 2 0 19 100 58 58 44 0 0 0 0 0 0 0 0 0 0
0 1 0 0 0 0 0 0 0 0 0 0 29 0 311 638 447 728 1016 915 874 776 578 462 798 708 393 216 121 77 76 34 13 1 0 10 19 2 20 8 0 0 0 0 0 0 0 0 0
10 7 0 0 0 0 0 0 0 0 0 0 1 44 571 683 504 848 989 865 702 536 370 331 434 402 274 186 112 90 67 49 28 9 0 2 0 0 0 0 0 0 0 30 58 4 0 0 0
30 10 0 0 0 0 0 0 0 0 0 4 69 696 862 728 681 710 994 909 667 409 205 143 125 138 167 224 125 94 62 39 19 4 0 0 0 0 0 0 9 16 18 45 74 1 0 0 0
25 0 0 0 0 0 0 0 0 0 0 0 2 443 666 529 655 683 562 615 558 307 159 87 62 66 74 121 87 83 62 32 17 0 0 0 0 0 0 1 6 9 25 40 62 10 0 0 0
0 0 0 3 1 0 0 0 0 0 0 0 3 112 130 2 187 500 653 553 344 289 251 130 76 55 68 83 64 63 65 48 20 0 0 0 0 0 0 0 1 0 6 21 35 5 0 0 0
2 0 0 4 0 2 0 0 0 0 0 0 34 197 99 76 42 40 112 396 458 435 328 209 154 82 61 88 75 59 41 42 0 0 0 0 0 0 0 0 0 0 0 7 19 8 1 0 0
13 0 18 3 6 39 13 0 1 0 0 0 7 3 7 48 70 189 312 169 354 453 428 389 293 177 20 78 60 19 0 0 0 0 0 0 0 0 0 0 0 0 0 0 0 0 1 1 0
0 19 11 0 0 0 12 1 0 0 0 0 0 0 0 0 0 24 157 274 335 391 348 383 379 300 126 0 0 0 0 0 0 0 0 0 0 0 0 0 0 0 0 0 0 0 8 10 6
5 25 4 0 0 0 2 0 0 0 0 0 0 0 0 0 0 0 0 55 94 284 411 350 297 306 302 220 26 0 0 0 0 0 0 0 0 0 0 0 0 0 0 0 0 0 0 1 8
13 0 0 0 0 0 0 0 0 0 0 0 0 0 0 0 0 0 0 0 0 0 59 334 416 461 320 232 274 224 29 0 51 0 0 0 0 0 0 0 0 0 0 0 0 0 0 0 0
0 0 0 0 0 0 0 0 0 0 0 0 0 0 0 0 0 0 0 0 0 0 0 0 32 216 387 328 133 229 329 196 79 252 180 53 0 0 0 0 0 0 0 0 0 0 0 0 0
0 0 0 0 0 0 0 0 0 0 0 0 0 0 0 0 0 0 0 0 0 0 0 0 0 0 0 5 184 281 315 417 286 155 248 314 264 142 14 0 0 0 0 0 0 9 8 0 0
0 0 0 0 0 0 0 0 0 0 0 0 0 0 0 0 0 0 0 0 0 0 0 0 0 0 0 0 0 0 49 177 256 233 201 138 141 160 164 71 15 0 0 0 0 0 0 0 0
0 0 0 0 0 0 0 0 0 0 0 0 0 0 0 0 0 0 0 0 0 0 0 0 0 0 0 0 0 0 0 0 0 9 13 24 137 157 91 68 28 0 0 0 0 0 0 8 0
0 0 0 0 0 0 0 0 0 0 0 0 0 0 0 0 0 0 0 0 0 0 0 0 0 0 0 0 0 0 0 0 0 0 0 0 0 0 17 57 62 59 0 7 0 0 0 0 1
0 0 0 0 0 0 0 0 0 0 0 0 0 0 0 0 0 0 0 0 0 0 0 0 0 0 0 0 0 0 0 0 0 0 0 0 0 0 0 0 25 21 49 26 15 17 6 0 0
0 0 0 0 0 0 0 0 0 0 0 0 0 0 0 0 0 0 0 0 0 0 0 0 0 0 0 0 0 0 0 0 0 0 0 0 0 0 0 0 0 2 25 6 46 40 19 24 21
7 8 7 9 6 0 0 0 0 0 0 0 0 0 0 0 0 0 0 0 0 0 0 0 0 0 0 0 0 0 0 0 0 0 0 0 0 0 0 0 0 0 0 0 1 14 13 21 32
8 0 0 0 0 0 0 0 0 0 0 0 0 0 0 0 0 0 0 0 0 0 0 0 0 0 0 0 0 0 0 0 0 0 0 0 0 0 0 0 0 0 0 0 0 0 1 9 1
0 5 0 0 0 0 0 0 0 0 0 0 0 0 0 0 0 0 0 0 0 0 0 0 0 0 0 0 0 0 0 0 0 0 0 0 0 0 0 0 0 0 0 0 0 0 0 0 0
0 0 0 0 0 0 0 0 0 0 0 0 0 0 0 0 0 0 0 0 0 0 0 0 0 0 0 0 0 0 0 0 0 0 0 0 0 0 0 0 0 0 0 0 0 0 0 0 0
0 1 0 0 0 0 0 0 0 0 0 0 0 0 0 0 0 0 0 0 0 0 0 0 0 0 0 0 0 0 0 0 0 0 0 0 0 0 0 0 0 0 0 0 0 0 0 0 0
0 0 0 0 0 0 0 0 0 0 0 0 0 0 0 0 0 0 0 0 0 0 0 0 0 0 0 0 0 0 0 0 0 0 0 0 0 0 0 0 0 0 0 0 0 0 0 0 0

GFSSGP_con_mlcape_063.txt.gz
CAPE
0 0 0 0 0 0 0 0 0 0 0 0 0 0 0 13 0 0 91 502 784 1051 1287 1306 1279 1233 1243 1091 967 592 607 546 258 49 0 0 0 0 0 33 4 1 0 0 0 0 0 0 0
0 0 0 0 0 0 0 0 0 0 0 0 18 11 14 17 178 278 425 717 905 1046 1315 1324 1346 1318 1096 932 858 482 150 84 0 0 0 0 0 0 0 82 9 0 0 0 0 1 0 0 0
12 0 0 0 0 0 0 0 0 0 0 0 0 23 102 111 370 304 383 1036 1134 1088 1201 1365 1334 1256 991 929 463 52 1 6 0 0 0 0 0 0 0 156 0 0 0 0 0 0 0 0 0
6 9 0 0 0 0 0 0 0 0 0 0 0 7 221 202 416 365 854 1206 1034 1012 1169 1326 1313 1143 941 668 234 24 0 0 0 0 34 152 0 0 238 110 0 0 0 0 0 0 0 0 0
13 0 0 0 0 0 0 0 0 0 0 0 0 24 253 277 315 747 934 932 765 838 824 1143 1046 1034 880 504 78 34 8 0 0 0 312 332 167 250 231 22 0 0 0 0 0 0 0 0 0
37 6 0 0 0 0 0 0 0 0 0 0 2 51 233 219 683 793 754 654 717 680 929 1045 888 879 781 527 160 49 21 0 0 17 208 96 116 136 69 0 0 0 0 0 0 0 0 0 0
33 0 0 0 0 0 0 0 0 0 0 0 44 1 303 359 677 755 536 585 671 833 942 927 738 722 542 512 226 57 37 10 0 16 81 95 112 102 84 40 3 0 0 0 0 0 0 0 0
3 0 0 0 0 0 0 0 0 0 0 0 95 3 74 520 604 782 664 597 593 677 756 664 670 587 456 492 230 85 48 18 0 0 68 58 36 59 74 42 40 28 0 0 1 15 0 0 0
20 5 0 0 0 0 0 0 0 0 0 0 12 180 461 489 812 936 890 738 702 742 728 546 588 610 281 162 142 107 50 27 8 0 9 52 31 30 32 19 16 15 1 1 24 36 0 0 0
51 2 0 0 0 0 0 1 0 0 0 26 160 608 650 626 857 1045 1029 900 831 711 528 399 493 543 285 191 118 79 63 30 2 0 0 0 8 11 5 6 12 17 20 20 33 34 0 0 0
25 0 0 0 0 0 0 0 0 0 0 0 59 488 769 708 858 984 971 920 814 555 363 359 456 386 263 203 92 55 37 2 0 0 0 0 0 0 0 0 3 19 27 26 59 49 6 0 0
27 0 0 2 0 0 0 0 0 0 0 0 0 604 547 731 826 978 995 923 695 440 288 175 145 134 171 127 105 55 24 0 0 0 0 0 0 0 0 0 0 0 6 10 22 24 8 0 0
26 5 20 14 0 1 0 0 0 0 0 0 0 319 286 423 603 550 791 689 558 465 283 164 88 64 55 67 68 40 30 20 0 0 0 0 0 0 0 0 0 0 0 0 2 12 5 0 0
30 8 51 22 0 2 0 0 0 0 0 0 0 114 100 67 115 286 503 556 448 411 360 256 160 95 52 56 48 23 37 40 34 0 0 0 0 0 0 0 0 0 0 0 0 0 0 0 0
57 12 1 6 0 0 0 0 0 0 0 0 0 3 26 100 114 121 107 192 423 385 429 400 293 201 107 62 69 43 41 22 1 0 0 0 0 0 0 0 0 0 0 0 0 0 0 0 0
29 17 10 0 0 0 6 0 0 0 0 0 0 0 0 0 0 0 111 241 192 313 427 341 387 336 154 69 39 29 24 0 0 0 0 0 0 0 0 0 0 0 0 0 0 0 0 0 0
19 0 0 0 0 0 0 0 0 0 0 0 0 0 0 0 0 0 0 0 36 106 274 389 265 248 287 155 0 0 0 0 0 0 0 0 0 0 0 0 0 0 0 0 0 0 0 0 0
0 0 0 0 0 0 0 0 0 0 0 0 0 0 0 0 0 0 0 0 0 0 0 13 119 172 273 147 114 102 81 0 0 0 0 0 0 0 0 0 0 0 0 0 0 0 0 0 0
0 0 0 0 0 0 0 0 0 0 0 0 0 0 0 0 0 0 0 0 0 0 0 0 0 0 0 139 268 249 182 232 216 109 100 145 27 0 0 0 0 0 0 0 0 0 0 0 0
0 0 0 0 0 0 0 5 0 0 0 0 0 0 0 0 0 0 0 0 0 0 0 0 0 0 0 0 0 0 83 110 117 115 113 67 62 100 99 17 11 0 0 0 0 0 0 0 0
0 0 0 0 0 0 0 0 2 0 0 0 0 0 0 0 0 0 0 0 0 0 0 0 0 0 0 0 0 0 0 0 0 0 0 0 14 28 42 67 65 15 0 0 0 0 0 3 0
0 0 0 0 0 0 0 0 0 0 0 0 0 0 0 0 0 0 0 0 0 0 0 0 0 0 0 0 0 0 0 0 0 0 0 0 0 0 0 0 0 0 0 0 0 0 0 0 0
0 0 0 0 0 0 0 0 0 0 0 0 0 0 0 0 0 0 0 0 0 0 0 0 0 0 0 0 0 0 0 0 0 0 0 0 0 0 0 0 0 0 0 8 13 0 0 0 9
0 0 0 0 0 0 0 0 0 0 0 0 0 0 0 0 0 0 0 0 0 0 0 0 0 0 0 0 0 0 0 0 0 0 0 0 0 0 0 0 0 0 0 0 0 26 0 0 2
0 0 0 1 0 0 0 0 0 0 0 0 0 0 0 0 0 0 0 0 0 0 0 0 0 0 0 0 0 0 0 0 0 0 0 0 0 0 0 0 0 0 0 0 0 5 8 6 18
3 0 0 0 0 0 0 0 0 0 0 0 0 0 0 0 0 0 0 0 0 0 0 0 0 0 0 0 0 0 0 0 0 0 0 0 0 0 0 0 0 0 0 0 0 0 3 5 1
4 10 0 0 0 0 0 0 0 0 0 0 0 0 0 0 0 0 0 0 0 0 0 0 0 0 0 0 0 0 0 0 0 0 0 0 0 0 0 0 0 0 0 0 0 0 0 0 0
0 0 2 0 0 0 0 0 0 0 0 0 0 0 0 0 0 0 0 0 0 0 0 0 0 0 0 0 0 0 0 0 0 0 0 0 0 0 0 0 0 0 0 0 0 0 0 0 0
1 0 0 0 0 0 0 0 0 0 0 0 0 0 0 0 0 0 0 0 0 0 0 0 0 0 0 0 0 0 0 0 0 0 0 0 0 0 0 0 0 0 0 0 0 0 0 0 0
3 8 0 0 0 0 0 0 0 0 0 0 0 0 0 0 0 0 0 0 0 0 0 0 0 0 0 0 0 0 0 0 0 0 0 0 0 0 0 0 0 0 0 0 0 0 0 0 0

GFSSGP_con_mlcape_066.txt.gz
CAPE
108 0 0 0 0 0 0 0 0 0 0 0 0 0 0 0 0 0 55 441 465 869 1273 1235 1260 1176 1252 1116 843 575 591 576 230 41 1 1 0 0 7 1 0 0 0 0 1 1 0 0 0
118 0 0 0 0 0 0 0 0 0 0 0 0 0 2 11 161 213 357 621 698 1224 1209 1136 1168 1281 1178 1026 746 671 466 210 30 0 0 0 0 0 84 22 0 0 0 0 1 0 0 0 0
76 0 0 0 0 0 0 0 0 0 0 0 0 27 105 70 314 257 355 918 1141 1094 1187 1251 1271 1274 1119 1029 595 200 61 10 0 0 0 1 0 0 240 57 0 0 0 0 0 0 0 0 0
2 0 0 0 0 0 0 0 0 0 0 0 0 20 227 135 368 352 955 1156 1040 1038 1209 1360 1300 1177 1045 592 230 31 0 0 0 0 82 1 1 0 250 2 0 0 0 0 0 0 0 0 0
21 0 0 0 0 0 0 0 0 0 0 0 0 12 204 268 285 840 1165 1143 855 957 1274 1345 1276 1125 878 430 116 16 0 0 0 84 305 78 20 180 224 0 0 0 0 0 0 0 0 0 0
21 0 0 0 0 0 0 0 0 0 0 0 11 31 156 256 692 937 1090 894 860 873 1196 1175 1130 1062 635 315 61 26 8 0 5 74 267 357 406 396 83 0 0 0 0 0 0 0 0 0 0
5 10 0 0 0 0 0 0 0 0 0 0 40 0 169 519 673 842 831 857 884 828 892 1047 857 889 625 336 102 44 14 0 3 65 49 47 104 91 78 27 12 10 0 0 0 0 0 0 0
11 4 8 0 0 0 0 0 0 0 0 0 0 0 13 582 706 703 744 752 769 760 966 830 679 693 612 371 139 49 25 6 0 62 72 50 57 76 61 36 31 34 14 0 10 13 0 0 0
34 3 1 0 0 0 0 0 0 0 0 0 84 229 363 701 770 676 674 713 745 916 928 775 581 543 503 345 180 66 35 12 0 0 52 55 42 48 49 26 26 30 21 11 14 18 3 0 0
89 20 0 0 0 9 4 0 0 0 0 0 0 291 490 817 932 837 680 562 471 539 647 660 519 427 325 286 169 78 39 13 0 0 0 20 23 19 25 23 23 33 35 25 27 46 15 0 0
70 0 0 0 0 27 8 0 0 0 0 0 0 0 292 877 981 922 817 662 625 557 611 584 475 499 297 180 117 68 39 11 0 0 0 0 0 1 0 0 1 14 27 22 26 40 10 0 0
58 8 7 20 14 0 0 0 0 0 0 0 0 0 64 626 847 853 920 875 778 690 550 361 318 418 328 184 96 48 30 0 0 0 0 0 0 0 0 0 0 0 4 7 4 7 6 0 0
7 5 20 20 4 0 0 0 0 0 0 0 0 0 49 280 488 704 773 767 782 676 424 278 257 351 273 184 118 62 30 0 0 0 0 0 0 0 0 0 0 0 0 0 0 0 0 0 0
9 15 11 18 12 0 0 0 0 0 0 0 0 0 151 226 255 477 750 965 871 636 447 255 157 117 101 128 79 61 37 24 0 0 0 0 0 0 0 0 0 0 0 0 0 0 0 0 0
17 38 78 47 12 2 0 0 0 0 0 0 0 0 1 32 128 394 477 732 770 593 506 388 239 127 79 62 37 48 37 29 45 22 0 0 0 0 0 0 0 0 0 0 0 0 0 0 0
35 21 30 10 14 2 0 0 0 0 0 0 0 0 0 0 0 37 157 370 486 498 510 428 350 274 165 102 65 51 5 17 37 31 0 0 0 0 0 0 0 0 0 0 0 0 0 0 0
28 0 0 0 6 0 0 0 0 0 0 0 0 0 0 0 0 0 0 30 203 226 334 390 379 414 313 138 59 52 39 0 16 0 0 0 0 0 0 0 0 0 0 0 0 0 0 0 0
0 0 0 0 0 0 0 0 0 0 0 0 0 0 0 0 0 0 0 0 0 0 0 77 236 221 202 196 95 11 0 0 0 0 0 0 0 0 0 0 0 0 0 0 0 0 0 0 0
0 0 0 0 0 0 0 0 0 0 0 0 0 0 0 0 0 0 0 0 0 0 0 0 0 0 0 172 177 145 213 132 91 0 0 0 0 0 0 0 0 0 0 0 0 0 0 0 0
0 0 0 0 0 0 0 0 0 0 0 0 0 0 0 0 0 0 0 0 0 0 0 0 0 0 0 0 0 26 72 43 44 31 3 0 0 0 0 0 0 0 0 0 0 0 0 0 0
0 0 0 0 0 0 0 0 0 0 0 0 0 0 0 0 0 0 0 0 0 0 0 0 0 0 0 0 0 0 0 0 0 0 0 0 0 0 0 0 22 16 0 0 0 0 0 0 0
0 0 0 0 0 0 0 0 0 0 0 0 0 0 0 0 0 0 0 0 0 0 0 0 0 0 0 0 0 0 0 0 0 0 0 0 0 0 0 0 0 0 0 0 0 0 0 0 0
0 0 0 0 0 0 0 0 0 0 0 0 0 0 0 0 0 0 0 0 0 0 0 0 0 0 0 0 0 0 0 0 0 0 0 0 0 0 0 0 0 0 0 0 0 0 0 0 3
0 0 0 0 0 0 0 0 0 0 0 0 0 0 0 0 0 0 0 0 0 0 0 0 0 0 0 0 0 0 0 0 0 0 0 0 0 0 0 0 0 0 0 0 0 0 1 1 0
0 0 0 0 0 0 0 0 0 0 0 0 0 0 0 0 0 0 0 0 0 0 0 0 0 0 0 0 0 0 0 0 0 0 0 0 0 0 0 0 0 0 0 0 0 0 1 1 0
4 0 0 0 0 0 0 0 0 0 0 0 0 0 0 0 0 0 0 0 0 0 0 0 0 0 0 0 0 0 0 0 0 0 0 0 0 0 0 0 0 0 0 0 0 3 1 0 0
2 0 0 0 0 0 0 0 0 0 0 0 0 0 0 0 0 0 0 0 0 0 0 0 0 0 0 0 0 0 0 0 0 0 0 0 0 0 0 0 0 0 0 0 0 0 0 0 0
0 0 0 0 0 0 0 0 0 0 0 0 0 0 0 0 0 0 0 0 0 0 0 0 0 0 0 0 0 0 0 0 0 0 0 0 0 0 0 0 0 0 0 0 0 0 0 0 0
0 0 0 0 0 0 0 0 0 0 0 0 0 0 0 0 0 0 0 0 0 0 0 0 0 0 0 0 0 0 0 0 0 0 0 0 0 0 0 0 0 0 0 0 0 0 0 0 0
0 0 0 0 0 0 0 0 0 0 0 0 0 0 0 0 0 0 0 0 0 0 0 0 0 0 0 0 0 0 0 0 0 0 0 0 0 0 0 0 0 0 0 0 0 0 0 0 0

GFSSGP_con_mlcape_069.txt.gz
CAPE
248 0 0 0 0 0 0 0 0 0 0 0 0 0 0 0 0 0 16 310 251 853 1410 1348 1421 1318 1142 975 863 571 523 328 102 83 2 0 1 68 1 0 0 0 0 3 3 0 0 0 0
233 0 0 0 0 0 0 0 0 0 0 0 0 0 0 0 150 166 174 547 602 1141 1273 1296 1300 1313 1182 990 742 607 759 210 12 0 0 0 0 69 47 1 0 0 0 2 1 0 0 0 0
26 0 0 0 0 0 0 0 0 0 0 0 0 19 60 76 263 256 361 784 1039 1217 1151 1264 1231 1282 1129 898 713 367 91 5 0 0 0 0 0 176 216 2 0 0 0 0 0 0 0 0 0
0 0 0 0 0 0 0 0 0 0 0 0 0 61 199 99 281 383 820 1028 1155 1064 1162 1133 1256 1198 1099 681 332 135 37 0 0 0 0 0 0 265 161 0 0 0 0 0 0 0 0 0 0
0 0 0 0 0 0 0 0 0 0 0 0 0 18 218 272 240 865 1017 1119 987 1011 1311 1319 1268 1103 802 423 135 31 1 0 0 58 116 44 31 348 97 0 0 0 0 0 0 0 0 0 0
23 0 0 0 0 0 0 0 0 0 0 0 2 86 256 318 767 1049 1164 1025 880 1060 1380 1363 1161 1013 620 281 68 13 0 0 114 281 165 55 155 359 73 0 0 0 0 0 1 0 0 0 0
62 0 0 0 0 0 0 0 0 0 0 0 78 47 228 521 729 883 972 862 1023 1251 1261 1356 1168 857 461 191 58 19 0 0 72 86 101 311 323 105 57 25 0 0 0 0 0 0 0 0 0
56 6 1 0 0 0 0 0 0 0 0 0 4 31 130 543 670 764 953 855 940 1109 1026 1123 1033 884 546 274 62 27 1 0 55 60 30 34 39 55 51 23 21 26 0 0 0 14 0 0 0
26 40 9 0 0 0 5 0 0 0 0 0 0 141 237 490 735 873 875 857 860 896 991 960 861 803 587 329 133 38 13 0 0 58 49 44 59 58 43 22 23 30 18 8 15 22 10 0 0
105 49 0 0 0 1 9 1 0 0 0 0 0 0 172 668 785 827 761 639 622 686 896 894 740 653 592 401 222 94 31 0 0 0 16 37 32 33 39 25 17 23 24 16 16 25 16 0 0
55 12 0 0 23 36 15 12 0 0 0 0 0 0 0 480 686 683 675 573 549 644 736 842 692 557 472 412 275 125 41 12 0 0 0 0 1 2 4 2 8 15 15 22 15 15 18 0 0
15 22 8 27 42 0 2 6 0 0 0 0 0 0 0 443 736 593 660 631 515 437 611 726 582 566 429 300 272 168 64 27 1 0 0 0 0 0 0 0 0 0 0 7 5 0 3 0 0
9 47 28 75 3 0 1 0 0 0 0 0 0 0 1 103 341 424 592 602 603 675 629 650 491 525 474 317 217 148 73 42 10 0 0 0 0 0 0 0 0 0 0 0 0 0 0 0 0
14 31 62 63 39 9 8 0 0 0 0 0 0 0 0 89 249 227 336 564 688 803 700 472 370 389 474 415 273 192 102 48 7 0 0 0 0 0 0 0 0 0 0 0 0 0 0 0 0
26 7 30 65 36 13 1 0 0 0 0 0 0 0 0 0 5 207 277 407 477 705 679 493 332 286 317 286 273 213 151 79 52 12 0 0 0 0 0 0 0 0 0 0 0 0 0 0 0
25 27 1 33 50 1 1 0 0 0 0 0 0 0 0 0 0 0 60 370 485 634 684 542 386 279 220 180 153 117 74 89 74 54 40 30 0 0 0 0 0 0 0 0 0 0 0 0 0
25 0 0 1 18 0 0 1 0 0 0 0 0 0 0 0 0 0 0 0 250 494 499 471 447 450 362 237 153 132 82 57 67 35 44 45 5 0 0 0 0 0 0 0 0 0 0 0 0
0 0 0 0 7 7 0 0 0 0 0 0 0 0 0 0 0 0 0 0 0 16 111 302 363 398 395 326 173 86 48 45 9 0 0 2 0 0 0 0 0 0 0 0 0 0 0 0 0
0 0 0 0 0 0 0 0 0 0 0 0 0 0 0 0 0 0 0 0 0 0 0 0 174 140 209 247 250 241 257 145 51 0 0 0 0 0 0 0 0 0 0 0 0 0 0 0 0
0 0 0 0 0 0 3 0 0 0 0 0 0 0 0 0 0 0 0 0 0 0 0 0 0 0 0 37 64 134 143 98 76 9 0 0 0 0 0 0 0 0 0 0 0 0 0 0 0
0 0 0 0 0 0 0 0 0 0 0 0 0 0 0 0 0 0 0 0 0 0 0 0 0 0 0 0 0 0 0 0 0 0 0 0 0 0 0 0 1 2 0 0 0 0 0 2 0
0 0 0 0 0 0 0 0 0 0 0 0 0 0 0 0 0 0 0 0 0 0 0 0 0 0 0 0 0 0 0 0 0 0 0 0 0 0 0 0 0 0 0 0 0 0 0 0 0
0 0 0 0 0 0 0 0 0 0 0 0 0 0 0 0 0 0 0 0 0 0 0 0 0 0 0 0 0 0 0 0 0 0 0 0 0 0 0 0 0 0 0 0 0 2 1 0 9
0 0 0 0 0 0 0 0 0 0 0 0 0 0 0 0 0 0 0 0 0 0 0 0 0 0 0 0 0 0 0 0 0 0 0 0 0 0 0 0 0 0 0 0 0 0 2 1 0
0 0 0 0 0 0 0 0 0 0 0 0 0 0 0 0 0 0 0 0 0 0 0 0 0 0 0 0 0 0 0 0 0 0 0 0 0 0 0 0 0 0 0 0 0 2 3 1 0
0 0 0 0 0 0 0 0 0 0 0 0 0 0 0 0 0 0 0 0 0 0 0 0 0 0 0 0 0 0 0 0 0 0 0 0 0 0 0 0 0 0 0 0 0 0 0 0 0
1 0 0 0 0 0 0 0 0 0 0 0 0 0 0 0 0 0 0 0 0 0 0 0 0 0 0 0 0 0 0 0 0 0 0 0 0 0 0 0 0 0 0 0 0 0 0 0 0
1 0 0 0 0 0 0 0 0 0 0 0 0 0 0 0 0 0 0 0 0 0 0 0 0 0 0 0 0 0 0 0 0 0 0 0 0 0 0 0 0 0 0 0 0 0 0 0 0
0 0 0 0 0 0 0 0 0 0 0 0 0 0 0 0 0 0 0 0 0 0 0 0 0 0 0 0 0 0 0 0 0 0 0 0 0 0 0 0 0 0 0 0 0 0 0 0 0
0 0 0 0 0 0 0 0 0 0 0 0 0 0 0 0 0 0 0 0 0 0 0 0 0 0 0 0 0 0 0 0 0 0 0 0 0 0 0 0 0 0 0 0 0 0 0 0 0

GFSSGP_con_mlcape_072.txt.gz
CAPE
332 12 0 0 0 0 0 0 0 0 0 0 0 0 35 26 0 16 277 499 401 563 1121 1327 1367 1272 1139 902 649 520 382 180 121 56 2 10 144 6 7 1 0 1 6 7 4 3 2 0 0
298 0 0 0 0 0 0 0 0 0 0 0 0 0 0 141 354 411 322 579 494 880 1331 1223 1424 1283 1070 824 640 629 481 79 28 19 0 2 163 62 7 1 0 0 2 4 4 2 0 0 0
161 0 0 0 0 0 0 0 0 0 0 0 1 92 172 439 625 403 528 567 667 1030 950 1420 1365 1271 1069 838 680 735 201 11 0 0 0 0 153 277 43 0 0 0 3 1 1 1 0 0 0
65 0 0 0 0 0 0 0 0 0 0 0 1 188 407 456 623 619 818 671 806 926 803 1203 1366 1200 988 768 524 196 104 13 0 0 0 0 179 391 0 0 0 0 0 0 0 0 0 0 0
49 0 0 0 0 0 0 0 0 0 0 0 2 190 544 709 626 986 847 745 928 734 1061 1236 1281 1195 754 549 191 88 37 0 15 46 10 48 198 361 3 0 0 0 0 0 0 0 0 0 0
79 5 0 0 0 0 0 0 0 0 0 0 15 327 572 712 1056 1105 857 840 807 844 1100 1121 1159 972 639 230 83 6 0 8 317 261 41 73 581 193 34 0 0 0 0 0 0 0 0 0 0
51 4 0 1 0 0 0 0 0 0 0 0 265 294 708 725 926 1048 952 926 821 1028 905 1365 1175 808 418 140 32 4 0 156 297 413 148 213 345 85 42 16 12 0 8 20 3 0 0 0 0
45 19 16 0 0 0 0 0 0 0 0 1 276 268 621 977 799 1014 946 803 998 1024 949 1366 1147 760 500 168 28 0 0 59 98 44 166 156 77 54 47 23 28 17 0 9 15 10 0 0 0
41 60 16 4 0 0 0 1 0 0 0 0 0 95 226 540 768 816 884 1036 951 1141 1121 1033 843 751 659 370 102 2 0 6 51 25 19 24 58 58 51 24 12 14 8 0 8 13 0 0 0
71 18 0 2 4 0 0 13 0 0 0 0 0 0 162 767 818 1016 1049 1012 1031 1190 1153 1086 911 871 700 445 233 221 21 0 0 8 31 28 49 55 63 31 11 17 18 5 5 19 4 0 0
32 0 15 57 10 71 28 22 6 0 0 0 0 0 53 705 911 799 943 811 822 866 1014 1095 991 998 809 536 474 326 165 43 25 19 16 0 0 2 6 12 20 30 12 31 8 8 0 0 0
67 29 61 25 37 16 23 27 20 6 0 0 0 0 0 525 670 576 922 982 846 707 692 1198 1034 916 832 716 565 423 286 157 62 37 25 0 0 0 0 0 0 0 0 1 4 0 0 0 0
31 47 73 74 78 57 42 18 50 8 0 0 0 0 97 228 404 403 523 906 1014 903 940 1263 1110 976 809 782 683 590 424 237 152 71 32 0 0 0 0 0 0 0 0 0 0 0 0 0 0
14 45 82 77 97 60 12 4 1 1 0 0 0 0 0 26 460 426 397 552 671 941 1089 1129 1050 857 874 845 727 639 506 343 254 153 74 12 0 0 0 0 0 0 0 0 0 0 0 0 0
53 61 97 55 98 64 49 32 0 1 0 0 0 0 0 0 0 255 531 643 766 1039 1130 1098 848 706 696 845 874 698 558 401 360 302 181 68 34 28 0 0 0 0 0 0 0 0 0 0 0
65 41 41 78 79 51 51 0 0 1 0 0 0 0 0 0 0 0 11 402 711 931 1143 997 685 655 724 767 712 634 545 482 480 452 387 248 108 46 36 3 3 1 0 0 0 0 0 0 0
51 0 6 30 100 37 1 2 9 1 0 0 0 0 0 0 0 0 0 0 416 795 932 819 788 695 641 619 586 584 569 494 487 489 459 416 316 120 43 26 27 31 0 0 0 0 0 0 14
0 6 6 11 32 21 15 24 0 0 0 0 0 0 0 0 0 0 0 0 0 150 540 646 747 827 842 764 661 580 569 555 522 513 464 425 366 199 69 48 40 34 0 0 11 13 31 4 19
2 15 11 18 30 27 17 1 2 0 0 0 0 0 0 0 0 0 0 0 0 0 0 179 583 741 817 814 785 756 715 631 508 409 329 200 117 17 0 0 68 89 56 66 70 27 14 20 15
19 12 23 34 74 70 19 15 0 0 0 0 0 0 0 0 0 0 0 0 0 0 0 0 5 377 390 668 704 675 692 666 613 475 370 269 259 228 235 206 218 213 137 122 40 30 1 2 18
12 8 11 0 60 19 22 2 0 0 0 0 0 0 0 0 0 0 0 0 0 0 0 0 0 0 0 0 0 0 0 0 0 49 53 0 0 0 0 1 2 3 3 1 5 4 3 2 5
5 8 0 3 3 0 0 0 0 0 0 0 0 0 0 0 0 0 0 0 0 0 0 0 0 0 0 0 0 0 0 0 0 0 0 0 0 0 0 0 0 0 0 1 3 6 6 3 5
3 0 2 0 0 0 0 0 0 0 0 0 0 0 0 0 0 0 0 0 0 0 0 0 0 0 0 0 0 0 0 0 0 0 0 0 0 0 0 0 0 0 0 0 0 0 2 5 6
0 0 1 2 10 0 0 0 0 0 0 0 0 0 0 0 0 0 0 0 0 0 0 0 0 0 0 0 0 0 0 0 0 0 0 0 0 0 0 0 0 0 0 0 0 0 0 2 3
4 2 2 2 2 0 0 0 0 0 0 0 0 0 0 0 0 0 0 0 0 0 0 0 0 0 0 0 0 0 0 0 0 0 0 0 0 0 0 0 0 0 0 0 0 0 2 2 3
27 13 2 0 0 0 0 0 0 0 0 0 0 0 0 0 0 0 0 0 0 0 0 0 0 0 0 0 0 0 0 0 0 0 0 0 0 0 0 0 0 0 0 0 0 3 9 3 2
4 4 0 0 0 0 0 0 0 0 0 0 0 0 0 0 0 0 0 0 0 0 0 0 0 0 0 0 0 0 0 0 0 0 0 0 0 0 0 0 0 0 0 0 0 0 4 1 0
8 0 0 0 0 0 0 0 0 0 0 0 0 0 0 0 0 0 0 0 0 0 0 0 0 0 0 0 0 0 0 0 0 0 0 0 0 0 0 0 0 0 0 0 0 0 1 1 2
1 0 0 0 0 0 0 0 0 0 0 0 0 0 0 0 0 0 0 0 0 0 0 0 0 0 0 0 0 0 0 0 0 0 0 0 0 0 0 0 0 0 0 0 0 0 0 0 1
3 12 3 6 0 0 0 0 0 0 0 0 0 0 0 0 0 0 0 0 0 0 0 0 0 0 0 0 0 0 0 0 0 0 0 0 0 0 0 0 0 0 0 0 0 0 0 0 1

GFSSGP_con_mlcape_075.txt.gz
CAPE
397 146 0 1 0 0 0 0 0 0 0 0 0 0 24 158 9 547 186 333 540 875 1126 1081 1142 1146 1065 903 589 374 233 109 103 39 44 116 21 5 0 0 2 6 7 3 4 6 3 0 0
537 22 0 0 0 0 0 0 0 0 0 0 0 0 10 320 542 482 393 405 447 944 1042 1129 1322 1157 1035 813 526 436 130 60 75 8 35 257 70 26 1 0 1 6 4 2 5 4 1 0 0
321 21 0 0 0 0 0 0 0 0 0 0 0 6 78 846 674 288 411 366 726 1056 975 1347 1369 1277 1005 637 656 566 116 9 0 0 2 167 245 32 0 0 1 4 2 7 4 1 0 0 0
208 21 3 0 0 0 0 0 0 0 0 0 0 1 513 793 602 502 465 359 873 972 1198 1375 1392 1229 847 695 958 416 99 8 0 0 0 100 436 58 0 0 0 0 0 2 1 0 0 0 0
309 32 0 0 0 0 0 0 0 0 0 0 12 202 721 1021 820 876 484 531 843 710 1588 1345 1357 1074 795 660 357 212 104 31 30 0 43 133 516 25 0 0 0 0 0 0 0 0 0 0 0
117 65 12 1 0 0 0 0 0 0 0 0 5 279 905 935 1050 723 603 651 719 835 991 1302 1151 917 691 379 97 19 0 51 279 14 95 201 402 60 0 0 0 0 0 0 0 0 0 0 0
209 50 4 9 6 0 0 0 0 0 0 87 126 135 1039 978 1029 933 645 745 636 1070 1074 1123 1069 747 355 111 9 0 34 363 395 138 87 580 176 70 35 0 0 0 0 0 0 0 0 0 0
179 130 48 46 16 0 0 0 0 0 0 118 254 182 447 1052 983 1302 795 641 686 964 1018 1239 1018 636 314 73 0 0 113 210 487 285 229 281 53 44 37 3 17 0 0 0 9 0 0 0 0
94 140 46 30 14 0 0 0 0 0 0 0 20 275 280 864 965 952 1004 728 701 825 1106 1297 876 521 323 246 5 0 0 94 28 66 68 24 58 60 29 28 10 12 0 0 9 8 0 0 0
52 59 7 34 9 6 0 0 0 5 1 0 0 40 653 862 988 853 872 806 782 935 923 961 721 507 512 277 57 27 0 25 7 6 3 34 45 69 63 34 5 15 7 0 0 0 0 0 0
66 0 62 48 35 28 0 0 0 4 29 0 0 18 540 967 953 1090 1352 1162 1007 875 1008 935 753 636 501 313 274 216 24 0 0 0 0 0 0 4 3 26 17 25 6 26 6 1 0 0 0
33 26 8 22 68 56 1 0 5 8 27 0 0 6 325 819 1011 984 1258 1062 1045 1036 1085 979 817 853 634 438 403 253 170 100 35 27 17 0 0 0 0 0 0 0 0 0 10 0 0 0 0
60 80 49 21 5 11 8 2 6 0 1 0 0 5 238 633 912 600 603 947 898 888 718 1116 812 759 717 564 369 310 217 193 130 66 33 12 0 0 0 0 0 0 0 0 0 0 0 0 0
6 19 25 81 3 53 42 20 0 1 9 0 0 0 25 528 667 506 481 720 964 880 911 957 945 961 665 632 513 429 351 240 208 193 128 31 15 0 0 0 0 0 0 0 0 0 0 0 0
68 54 85 64 0 47 115 57 0 0 0 0 0 0 0 0 45 799 806 735 917 1061 922 979 921 798 694 758 665 479 396 313 308 316 225 115 67 72 0 0 0 0 0 0 0 0 0 0 0
79 92 48 23 24 86 98 0 0 0 20 7 0 0 0 0 0 0 323 706 953 1071 919 967 895 761 566 604 735 585 545 460 469 461 404 281 154 105 108 49 51 73 5 0 0 0 0 0 1
56 3 17 53 104 58 47 0 37 34 7 1 1 0 0 0 0 0 0 48 735 1057 1084 1161 1069 868 770 704 751 622 614 594 586 598 572 572 486 341 201 91 70 81 111 92 63 59 72 66 48
6 13 2 20 34 26 22 37 25 7 0 0 0 0 0 0 0 0 0 0 6 738 1073 1250 1192 1039 911 847 773 730 733 799 732 706 697 708 671 578 437 274 186 142 117 124 149 191 181 140 103
0 0 26 20 48 38 24 50 27 5 7 2 3 0 0 0 0 0 0 0 0 0 472 985 1041 1032 1059 1036 975 920 881 878 906 829 800 712 658 591 515 334 285 272 303 319 287 192 108 121 177
25 18 39 43 27 21 25 17 25 13 3 0 0 0 0 0 0 0 0 0 0 0 0 149 606 858 997 1044 1051 1034 1085 1008 881 896 788 719 589 491 368 268 284 313 293 240 241 164 105 57 76
7 24 46 31 24 35 44 21 4 0 0 0 0 0 0 0 0 0 0 0 0 0 0 0 0 210 401 731 742 361 146 192 309 600 470 6 0 0 0 8 0 14 0 3 3 4 6 6 3
18 18 38 29 28 0 3 0 0 0 0 0 0 0 0 0 0 0 0 0 0 0 0 0 0 0 0 0 1 32 132 139 19 7 0 0 0 0 0 0 0 0 0 1 0 3 4 11 6
1 26 42 23 46 34 11 2 0 0 0 0 0 0 0 0 0 0 0 0 0 0 0 0 0 0 0 0 0 0 0 0 0 0 0 0 0 0 0 0 0 0 0 0 0 0 0 1 2
18 40 26 39 17 1 0 0 0 0 0 0 0 0 0 0 0 0 0 0 0 0 0 0 0 0 0 0 0 0 0 0 0 0 0 0 0 0 0 0 0 0 0 0 0 0 0 1 1
22 19 8 6 1 1 0 0 0 0 0 0 0 0 0 0 0 0 0 0 0 0 0 0 0 0 0 0 0 0 0 0 0 0 0 0 0 0 0 0 0 0 0 0 0 0 0 2 5
10 24 1 0 0 0 0 0 0 0 0 0 0 0 0 0 0 0 0 0 0 0 0 0 0 0 0 0 0 0 0 0 0 0 0 0 0 0 0 0 0 0 0 0 0 0 0 3 1
20 10 0 0 0 1 3 0 0 0 0 0 0 0 0 0 0 0 0 0 0 0 0 0 0 0 0 0 0 0 0 0 0 0 0 0 0 0 0 0 0 0 0 0 0 0 0 1 0
16 9 0 0 0 0 0 0 0 0 0 0 0 0 0 0 0 0 0 0 0 0 0 0 0 0 0 0 0 0 0 0 0 0 0 0 0 0 0 0 0 0 0 0 0 0 1 2 0
1 0 6 5 0 1 0 0 0 0 0 0 0 0 0 0 0 0 0 0 0 0 0 0 0 0 0 0 0 0 0 0 0 0 0 0 0 0 0 0 0 0 0 0 0 0 0 0 0
3 15 15 7 0 0 0 0 0 0 0 0 0 0 0 0 0 0 0 0 0 0 0 0 0 0 0 0 0 0 0 0 0 0 0 0 0 0 0 0 0 0 0 0 0 0 0 0 0

GFSSGP_con_mlcape_078.txt.gz
CAPE
282 400 277 24 0 0 0 0 0 0 24 0 0 0 0 269 132 106 94 652 1392 1022 899 828 1021 1019 943 747 327 189 122 33 15 134 8 11 6 0 0 5 6 7 10 6 6 4 1 0 0
75 380 0 5 0 0 0 0 0 0 0 0 0 0 31 512 472 159 417 810 1230 1115 710 876 1208 1063 955 558 285 66 64 49 6 93 146 87 4 0 1 2 7 9 2 1 6 2 1 0 0
10 406 9 0 0 0 0 0 0 0 0 0 0 0 415 696 289 362 468 773 1064 1098 970 1206 1198 1089 892 528 315 48 11 12 0 30 313 164 2 0 0 1 6 2 2 6 3 1 3 2 0
86 360 68 0 0 0 0 0 0 0 0 0 0 98 521 730 319 471 352 898 1013 819 1277 1129 1235 1071 752 632 496 138 7 0 0 1 136 310 4 0 0 0 0 0 1 1 0 0 0 0 0
113 279 2 0 0 0 0 0 0 0 0 0 0 133 515 826 808 402 336 964 854 1493 1329 1263 1233 981 743 954 427 138 30 4 0 10 107 534 11 0 0 0 0 0 0 0 0 0 0 0 0
239 283 0 0 0 0 41 0 0 0 0 0 0 0 819 957 1076 460 472 946 1343 1564 1312 1260 1124 819 711 538 253 87 28 75 10 39 221 433 38 0 0 0 0 0 0 0 0 0 0 0 0
159 41 0 0 0 16 26 0 0 0 0 9 0 21 5 673 998 844 527 751 1224 1123 1152 1180 863 562 397 81 2 0 50 299 68 82 203 469 43 24 0 0 0 0 0 0 0 0 0 0 0
155 95 6 7 13 30 3 0 0 0 1 56 111 21 69 711 1244 1266 861 891 1109 1107 1138 981 694 415 91 0 0 27 212 240 206 142 454 110 35 18 11 13 0 0 0 0 0 0 0 0 0
166 97 29 4 68 8 0 0 0 0 32 9 95 211 979 1123 1039 1043 862 718 958 1150 1040 900 627 420 139 6 0 37 102 267 182 133 254 7 0 19 4 41 6 8 0 0 0 0 0 0 0
105 78 30 34 10 0 0 0 0 2 5 30 48 477 752 1060 919 918 886 785 919 874 1161 1042 588 271 172 46 0 0 48 8 68 87 18 7 14 29 27 0 0 0 0 0 0 0 0 0 0
79 5 18 133 54 9 0 1 0 3 1 0 0 129 958 1080 793 606 819 534 913 685 1111 922 630 350 247 127 32 0 0 14 0 6 0 1 9 14 17 0 0 0 0 0 0 0 0 0 0
58 0 3 65 44 1 3 1 5 3 0 0 0 166 641 1030 1043 1005 886 954 579 713 899 867 713 549 395 272 206 97 5 0 0 0 0 0 0 0 0 0 0 0 0 0 0 0 0 0 0
1 40 8 23 10 18 13 17 3 2 0 0 0 228 481 926 1086 1028 1061 1121 934 869 988 917 821 714 507 400 288 241 143 99 71 26 13 0 0 0 0 0 0 0 0 0 0 0 0 0 0
61 23 55 8 0 0 0 11 0 0 0 0 0 5 319 586 955 558 456 600 913 919 788 802 827 859 666 497 342 306 257 161 134 94 44 23 5 0 0 0 0 0 0 0 0 0 0 0 0
55 71 18 31 34 0 0 15 0 0 0 0 0 0 4 9 311 593 508 394 961 857 835 593 798 791 741 711 555 299 387 238 204 218 143 42 22 18 0 0 0 0 0 0 0 0 0 0 0
57 34 3 1 33 22 5 0 23 15 0 0 0 0 0 1 0 223 784 533 744 955 891 897 797 729 741 733 654 547 423 302 332 305 254 176 104 112 95 3 0 7 0 0 0 0 0 0 0
25 13 5 21 7 0 0 2 49 42 0 0 0 0 0 0 0 0 26 389 913 971 694 726 843 704 584 687 667 556 462 384 324 460 448 361 293 188 142 99 79 94 113 54 10 7 0 12 3
1 0 19 5 17 0 0 1 58 14 2 0 0 0 0 0 0 0 0 0 159 868 933 926 796 785 658 632 653 648 553 526 568 599 527 606 590 537 388 309 221 144 88 81 78 105 123 8 17
0 0 0 0 76 55 34 13 28 26 0 0 0 0 0 0 0 0 0 0 0 116 814 1064 1002 943 836 729 549 581 494 561 738 766 773 719 636 529 548 442 297 268 214 205 274 218 116 81 66
0 0 0 26 61 24 32 31 32 6 1 0 0 0 0 0 0 0 0 0 0 0 194 630 1068 918 875 990 793 729 777 831 793 845 824 553 427 370 384 314 246 196 214 165 154 111 4 8 25
0 0 0 0 17 13 22 23 3 0 0 0 0 0 0 0 0 0 0 0 0 0 0 89 261 861 951 957 712 542 377 361 541 712 582 90 4 8 17 15 11 15 21 30 8 5 6 10 11
0 1 13 1 16 2 43 0 0 0 0 0 0 0 0 0 0 0 0 0 0 0 0 0 0 66 174 239 489 464 448 431 114 148 10 0 0 0 0 0 0 0 0 0 0 1 2 5 1
12 0 11 47 17 15 14 0 0 0 0 0 0 0 0 0 0 0 0 0 0 0 0 0 0 0 0 0 0 29 5 0 0 0 0 0 0 0 0 0 0 0 0 0 0 0 0 0 0
1 24 6 22 17 0 0 0 0 0 0 0 0 0 0 0 0 0 0 0 0 0 0 0 0 0 0 0 0 0 0 0 0 0 0 0 0 0 0 0 0 0 0 0 0 0 0 0 0
15 2 0 0 0 0 0 0 0 0 0 0 0 0 0 0 0 0 0 0 0 0 0 0 0 0 0 0 0 0 0 0 0 0 0 0 0 0 0 0 0 0 0 0 0 0 0 1 2
10 0 0 0 0 0 0 0 0 0 0 0 0 0 0 0 0 0 0 0 0 0 0 0 0 0 0 0 0 0 0 0 0 0 0 0 0 0 0 0 0 0 0 0 0 0 0 1 0
15 9 0 0 0 0 0 0 0 0 0 0 0 0 0 0 0 0 0 0 0 0 0 0 0 0 0 0 0 0 0 0 0 0 0 0 0 0 0 0 0 0 0 0 0 0 0 0 3
3 2 0 0 0 0 0 0 0 0 0 0 0 0 0 0 0 0 0 0 0 0 0 0 0 0 0 0 0 0 0 0 0 0 0 0 0 0 0 0 0 0 0 0 0 0 0 0 0
0 3 2 2 0 10 0 0 0 0 0 0 0 0 0 0 0 0 0 0 0 0 0 0 0 0 0 0 0 0 0 0 0 0 0 0 0 0 0 0 0 0 0 0 0 0 0 0 0
3 9 3 1 0 0 0 0 0 0 0 0 0 0 0 0 0 0 0 0 0 0 0 0 0 0 0 0 0 0 0 0 0 0 0 0 0 0 0 0 0 0 0 0 0 0 0 0 0

GFSSGP_con_mlcape_081.txt.gz
CAPE
246 50 265 75 0 0 0 0 0 0 0 0 0 0 138 252 66 7 518 1078 795 836 1034 993 884 971 854 521 283 171 56 33 10 5 0 0 0 2 7 9 12 12 5 2 4 0 1 0 0
190 108 205 19 0 0 0 0 0 0 0 0 0 2 312 269 102 231 1054 1091 561 694 1023 1179 1120 950 760 381 218 102 19 33 163 93 7 0 0 1 4 14 11 6 4 5 3 0 0 0 0
26 17 21 0 0 0 0 0 0 0 0 0 0 19 585 218 181 323 1129 963 567 447 1038 1192 1097 950 635 298 44 74 9 9 267 145 21 0 0 2 4 9 4 2 4 2 2 1 0 0 0
38 88 71 1 0 0 0 0 0 2 0 0 0 0 366 654 549 705 1090 998 449 474 961 1197 1101 900 566 224 70 4 0 0 124 362 56 0 0 1 3 6 7 3 2 2 2 2 0 0 0
76 66 0 0 0 0 0 0 0 0 0 0 24 13 114 289 459 508 1035 870 818 1015 1096 1182 1038 784 634 355 131 2 0 0 32 411 138 0 0 0 0 0 0 0 0 1 0 0 0 0 0
127 61 0 0 0 0 0 0 0 0 0 0 110 351 404 304 258 393 901 985 1154 1113 1109 1177 930 693 879 389 204 20 1 1 37 347 298 19 0 0 0 0 0 0 0 0 0 0 0 0 0
60 18 0 0 0 0 3 0 0 0 0 0 0 97 125 333 212 818 956 1265 1235 1063 1034 991 695 634 514 238 73 19 50 6 48 489 257 54 0 0 0 0 0 0 0 0 0 0 0 0 0
96 71 8 0 0 3 2 0 0 0 36 86 49 0 2 418 503 900 1019 1175 1224 971 786 604 434 277 10 0 0 41 146 34 91 273 327 29 0 0 0 0 0 0 0 0 0 0 0 0 0
194 45 8 5 4 29 0 0 0 0 44 45 128 176 14 605 28 399 761 849 972 862 695 402 232 48 0 0 2 81 148 73 41 220 119 17 0 0 0 0 0 0 0 0 0 0 0 0 0
168 29 4 20 37 0 0 0 0 2 13 186 300 824 518 191 48 47 424 632 891 770 719 415 211 78 1 0 1 43 148 36 21 246 32 0 0 0 0 0 0 0 0 0 0 0 0 0 0
107 19 43 115 168 5 6 15 0 0 0 0 192 544 885 848 67 0 158 381 624 854 811 530 316 181 49 0 0 1 29 66 72 66 29 12 0 7 0 0 0 0 0 0 0 0 0 0 0
93 63 11 91 56 24 6 1 0 0 0 0 125 502 897 895 438 92 44 279 429 694 767 784 398 250 141 2 0 0 0 0 0 0 0 0 6 0 0 0 0 0 0 0 0 0 0 0 0
12 54 41 8 19 15 5 0 14 0 0 0 284 440 626 589 735 698 290 392 460 572 778 749 576 416 322 182 92 0 0 0 0 0 0 0 0 0 0 0 0 0 0 0 0 0 0 0 0
13 10 16 9 12 0 10 16 1 1 0 0 147 213 660 840 684 571 683 609 690 753 859 873 733 543 426 296 206 300 28 0 0 4 11 0 0 0 0 0 0 0 0 0 0 0 0 0 0
52 50 0 1 0 5 0 9 0 1 0 0 1 83 390 646 850 744 397 373 562 575 733 694 718 793 597 404 289 315 185 127 101 81 38 26 14 0 0 0 0 0 0 0 0 0 0 0 0
44 40 3 0 33 1 0 0 0 0 0 0 0 0 0 4 229 406 437 309 597 483 509 762 881 875 811 604 437 304 369 179 196 173 137 74 23 27 2 0 0 0 0 0 0 0 0 0 0
26 0 3 2 6 9 9 0 0 0 3 0 0 0 0 0 0 45 333 444 560 644 703 476 700 509 718 685 640 432 542 238 255 264 221 175 111 104 96 38 8 12 16 0 0 0 0 0 5
11 5 7 4 0 3 8 0 0 0 0 10 3 0 0 0 0 0 2 90 564 637 699 623 648 805 777 662 563 527 521 436 338 379 312 291 251 216 200 153 104 47 21 20 15 26 19 28 13
7 11 19 23 6 0 0 0 0 0 0 0 0 0 0 0 0 0 0 0 10 439 726 754 657 660 646 633 460 442 529 540 490 482 615 530 515 486 410 398 309 217 188 149 112 113 57 6 10
0 14 6 26 28 2 0 0 0 0 0 0 0 0 0 0 0 0 0 0 0 94 435 699 801 594 579 618 591 467 455 506 456 404 374 441 415 359 353 329 262 178 159 91 32 4 4 4 6
0 0 0 0 22 5 17 1 0 0 0 0 0 0 0 0 0 0 0 0 0 0 169 529 578 643 638 591 480 434 388 418 499 466 186 93 76 62 86 68 81 50 37 4 7 1 8 6 5
0 0 0 8 5 0 2 0 0 0 0 0 0 0 0 0 0 0 0 0 0 0 0 70 267 509 598 659 494 394 324 239 305 484 64 2 5 0 0 0 0 0 0 0 0 0 0 0 0
0 0 0 0 1 0 0 0 0 0 0 0 0 0 0 0 0 0 0 0 0 0 0 0 24 108 190 227 392 320 280 166 1 0 3 0 0 0 0 0 0 0 0 0 0 0 0 0 0
0 2 24 14 2 1 1 0 0 0 0 0 0 0 0 0 0 0 0 0 0 0 0 0 0 0 0 19 81 205 88 0 0 0 0 0 0 0 0 0 0 0 0 0 0 0 0 0 0
3 0 0 0 0 0 0 0 0 0 0 0 0 0 0 0 0 0 0 0 0 0 0 0 0 0 0 0 0 0 0 0 0 0 0 0 0 0 0 0 0 0 0 0 0 0 0 0 0
0 0 0 0 0 0 0 0 0 0 0 0 0 0 0 0 0 0 0 0 0 0 0 0 0 0 0 0 0 0 0 0 0 0 0 0 0 0 0 0 0 0 0 0 0 0 0 0 0
2 0 0 0 0 0 0 0 0 0 0 0 0 0 0 0 0 0 0 0 0 0 0 0 0 0 0 0 0 0 0 0 0 0 0 0 0 0 0 0 0 0 0 0 0 0 0 0 0
0 0 0 0 0 0 0 0 0 0 0 0 0 0 0 0 0 0 0 0 0 0 0 0 0 0 0 0 0 0 0 0 0 0 0 0 0 0 0 0 0 0 0 0 0 0 0 0 0
0 1 0 0 0 2 0 0 0 0 0 0 0 0 0 0 0 0 0 0 0 0 0 0 0 0 0 0 0 0 0 0 0 0 0 0 0 0 0 0 0 0 0 0 0 0 0 0 0
0 0 4 0 0 0 0 0 0 0 0 0 0 0 0 0 0 0 0 0 0 0 0 0 0 0 0 0 0 0 0 0 0 0 0 0 0 0 0 0 0 0 0 0 0 0 0 0 0

GFSSGP_con_mlcape_084.txt.gz
CAPE
337 97 70 134 0 0 0 0 0 0 0 0 0 1 136 85 2 0 411 733 775 843 924 969 898 678 672 478 277 115 0 0 0 0 0 1 25 39 91 39 10 4 8 2 1 1 0 0 0
401 37 233 13 0 0 0 0 0 0 0 0 0 56 301 57 42 761 869 910 819 773 1020 1049 775 788 581 381 235 93 80 30 0 0 0 1 3 6 6 3 3 4 4 1 0 0 0 0 0
104 21 53 11 0 0 0 0 0 0 0 0 0 36 294 282 531 624 889 1058 788 810 1019 978 867 692 461 311 209 57 296 151 60 0 0 0 1 4 5 3 4 3 3 1 0 0 0 0 0
131 75 88 0 0 0 0 0 0 0 0 0 16 0 287 592 573 786 802 725 707 889 1041 990 824 621 341 146 115 47 286 256 145 0 0 1 1 5 0 2 3 2 2 2 0 0 0 0 9
190 83 2 0 0 0 0 0 0 1 0 0 0 0 159 140 857 1004 681 425 642 917 1098 881 760 525 164 121 49 28 171 432 262 3 0 0 2 4 7 3 0 1 1 1 0 0 0 0 0
140 111 8 0 0 0 0 0 0 2 0 0 0 5 6 134 606 870 620 293 660 856 1001 943 688 489 251 147 1 0 36 279 571 68 0 0 0 1 2 2 1 1 1 0 0 0 0 0 0
106 53 1 0 0 0 0 0 0 0 0 10 85 14 4 25 212 560 654 470 729 909 918 792 642 567 299 191 30 0 8 148 613 98 0 0 0 0 0 0 0 1 7 6 0 0 0 0 0
126 42 0 0 0 0 0 0 0 0 0 56 58 13 0 73 199 501 742 848 1087 918 815 521 498 570 204 91 5 3 0 45 404 221 17 0 0 0 0 0 0 0 0 0 0 0 0 0 0
68 28 5 0 0 0 3 0 0 0 5 89 104 18 87 87 151 41 327 581 1064 824 625 352 294 97 0 0 3 97 0 62 382 193 1 0 0 0 0 0 0 0 0 0 0 0 0 0 0
84 21 5 0 24 0 3 12 27 20 91 240 237 292 146 54 92 44 223 394 879 657 514 269 133 6 0 0 21 61 34 28 110 229 14 0 0 0 0 0 0 0 0 0 0 0 0 0 0
88 23 8 32 157 96 0 2 1 18 16 166 136 664 347 82 129 138 98 46 581 563 382 249 124 12 0 0 24 101 16 0 76 197 16 0 0 0 0 0 0 0 0 0 0 0 0 0 0
143 96 42 107 62 91 47 5 17 2 0 143 547 468 730 340 140 41 18 162 130 260 475 326 244 102 0 0 0 79 63 10 32 177 30 18 6 6 0 0 0 0 0 0 0 0 0 0 0
12 95 38 38 22 24 8 1 0 0 0 75 461 838 419 285 225 123 162 131 0 0 6 531 383 229 45 0 0 0 17 12 12 15 27 11 15 15 0 0 0 0 0 0 0 0 0 0 0
2 32 2 9 9 0 1 14 0 0 0 169 251 372 833 817 591 236 88 52 0 0 2 408 372 307 163 75 9 0 0 0 4 0 0 0 1 1 0 0 0 0 0 0 0 0 0 0 0
29 11 21 0 8 1 0 3 9 0 0 20 51 205 549 711 728 644 188 55 83 56 62 327 493 415 309 225 136 176 20 0 0 7 0 0 0 0 0 0 0 0 0 0 0 0 0 0 0
10 50 3 17 52 3 0 4 3 0 0 0 0 36 213 410 621 399 353 312 383 373 540 612 646 454 377 377 222 276 233 139 30 47 43 29 15 0 0 0 0 0 0 0 0 0 0 0 0
12 2 1 5 1 4 0 0 0 0 0 0 0 0 0 0 48 178 343 311 301 354 219 546 556 346 409 482 380 320 311 285 190 152 130 111 58 27 12 3 0 0 0 0 0 0 0 0 2
0 9 3 0 0 0 13 7 0 0 0 0 0 0 0 0 0 30 330 366 348 425 337 343 200 78 154 493 457 488 435 357 252 243 215 186 152 130 123 111 76 67 52 50 32 29 0 23 23
5 0 0 0 0 2 0 3 0 0 0 0 0 0 0 0 0 0 1 146 341 390 439 474 516 420 504 484 346 439 369 440 323 326 329 286 243 234 198 207 175 143 121 91 71 105 58 16 22
15 0 0 2 2 1 0 0 1 0 0 0 0 0 0 0 0 0 0 0 85 318 388 337 504 506 615 562 468 354 305 290 261 228 318 343 386 381 311 290 323 282 217 129 100 45 3 3 2
5 0 0 0 4 7 6 0 0 0 0 0 0 0 0 0 0 0 0 0 0 14 301 362 417 538 622 561 496 310 316 292 255 211 220 135 145 169 215 227 186 122 93 66 10 0 1 1 0
4 0 0 7 6 2 6 0 0 0 0 0 0 0 0 0 0 0 0 0 0 0 34 419 506 696 622 594 525 435 414 355 273 273 72 2 0 0 0 0 0 0 0 0 0 0 0 0 0
11 2 1 25 6 0 0 0 0 0 0 0 0 0 0 0 0 0 0 0 0 0 0 79 395 463 458 600 552 399 242 159 83 112 8 0 0 0 0 0 0 0 0 0 0 0 0 0 0
0 10 10 1 0 0 0 0 0 0 0 0 0 0 0 0 0 0 0 0 0 0 0 0 26 224 317 334 430 314 286 88 29 2 21 0 0 0 0 0 0 0 0 0 0 0 0 0 0
1 1 1 0 0 0 0 0 0 0 0 0 0 0 0 0 0 0 0 0 0 0 0 0 0 0 51 100 169 213 87 34 57 23 0 0 0 0 0 0 0 0 0 0 0 0 0 0 0
14 0 0 0 0 0 0 0 0 0 0 0 0 0 0 0 0 0 0 0 0 0 0 0 0 0 0 0 0 3 0 0 0 0 0 0 0 0 0 0 0 0 0 0 0 0 0 0 0
1 0 0 0 0 0 0 0 0 0 0 0 0 0 0 0 0 0 0 0 0 0 0 0 0 0 0 0 0 0 0 0 0 0 0 0 0 0 0 0 0 0 0 0 0 0 0 0 0
0 0 0 0 0 0 0 0 0 0 0 0 0 0 0 0 0 0 0 0 0 0 0 0 0 0 0 0 0 0 0 0 0 0 0 0 0 0 0 0 0 0 0 0 0 0 0 0 0
0 0 0 0 0 0 0 0 0 0 0 0 0 0 0 0 0 0 0 0 0 0 0 0 0 0 0 0 0 0 0 0 0 0 0 0 0 0 0 0 0 0 0 0 0 0 0 0 0
0 0 0 0 0 0 0 0 0 0 0 0 0 0 0 0 0 0 0 0 0 0 0 0 0 0 0 0 0 0 0 0 0 0 0 0 0 0 0 0 0 0 0 0 0 0 0 0 0

GFSSGP_con_mlcape_087.txt.gz
CAPE
453 299 27 228 0 0 0 0 0 0 0 0 0 22 45 13 0 0 252 549 614 699 814 717 619 601 666 323 186 143 95 1 9 245 400 438 498 476 131 6 3 5 1 3 6 4 4 3 4
329 142 180 103 0 0 0 0 0 0 0 0 0 3 181 56 208 503 546 752 713 733 818 662 634 689 532 223 133 66 18 0 0 16 139 134 210 84 5 1 2 2 2 5 5 3 3 31 79
368 129 131 18 0 0 0 0 0 0 0 0 0 27 125 366 397 507 726 943 789 702 840 747 625 603 441 201 77 5 11 0 0 0 3 10 3 4 1 2 1 0 0 0 0 0 0 37 6
254 197 137 6 0 0 0 0 0 0 0 0 0 0 182 219 378 676 979 900 662 698 904 716 616 438 310 212 96 101 209 2 0 1 2 5 6 1 1 2 3 1 0 0 0 0 18 48 8
228 128 92 19 0 0 0 0 0 0 0 5 1 0 81 528 605 873 960 772 548 707 760 695 559 368 110 104 46 356 201 36 0 1 3 4 6 4 5 4 4 2 1 0 0 26 32 22 11
190 145 76 24 0 0 0 0 0 0 0 0 1 1 43 295 826 572 733 690 851 719 774 710 519 105 34 27 15 314 513 218 0 0 4 5 6 4 5 3 2 2 0 0 0 19 23 8 0
150 88 70 0 0 0 0 0 0 0 0 0 18 1 44 465 255 631 679 815 899 862 734 635 444 102 55 3 1 92 400 519 29 0 0 4 4 5 5 4 2 13 17 16 11 7 1 0 0
86 184 11 0 0 0 0 0 0 0 0 148 103 15 0 0 32 552 585 829 826 734 719 524 407 248 175 45 0 11 190 668 112 0 0 0 0 1 1 1 17 17 9 0 0 0 0 0 0
198 134 7 0 0 0 0 0 0 9 58 269 161 57 52 56 1 350 347 434 671 736 650 361 268 215 141 60 43 0 60 350 378 19 0 0 0 0 0 0 0 0 0 0 0 0 0 0 0
112 20 1 9 0 0 3 4 21 65 141 283 339 293 129 47 0 166 591 713 570 518 609 335 319 179 60 50 100 5 63 276 339 30 0 0 0 0 0 0 0 0 0 0 0 0 0 0 0
8 18 0 5 150 89 52 11 3 80 63 167 127 308 145 126 100 136 518 430 585 575 591 367 263 75 10 14 110 63 26 170 360 94 19 4 0 0 0 0 0 0 0 0 0 0 0 0 0
0 12 0 44 105 137 64 0 4 12 0 109 393 426 296 224 219 133 82 166 118 149 88 134 184 120 20 30 88 132 41 63 168 223 37 11 4 0 4 0 0 0 0 0 0 0 0 0 0
2 0 1 187 99 44 52 1 1 0 2 844 920 553 253 246 213 235 111 14 32 11 6 0 0 68 60 15 87 167 50 14 113 284 69 26 23 24 17 0 0 0 0 0 0 0 0 0 0
16 35 5 158 77 7 41 8 0 0 41 527 766 490 322 264 229 244 177 72 86 0 0 1 0 60 48 53 30 99 135 66 53 123 156 43 26 20 11 0 0 0 0 0 0 0 0 0 0
13 22 11 131 17 0 0 29 0 0 45 281 390 466 560 379 313 271 224 126 63 1 0 0 0 95 167 12 63 17 57 43 44 57 69 50 12 14 10 0 0 0 0 0 0 0 0 0 0
11 35 0 58 9 0 0 29 0 0 1 36 68 264 365 312 331 231 217 116 36 0 0 0 0 122 270 194 46 47 27 19 28 23 27 38 1 0 0 0 0 0 0 0 0 0 0 0 0
22 0 0 14 1 1 0 0 0 0 0 0 0 2 90 133 246 279 186 100 45 5 0 0 25 97 65 99 244 214 198 122 59 6 44 49 22 3 0 0 0 0 0 0 0 0 0 0 0
0 0 1 0 8 6 2 0 0 0 0 0 0 0 0 0 5 82 245 298 286 161 136 172 303 219 210 265 323 307 195 171 180 133 100 88 68 71 39 29 20 6 37 56 29 14 0 1 12
0 6 0 5 10 6 1 1 0 0 0 0 0 0 0 0 0 0 211 301 369 414 373 472 453 333 315 333 310 102 228 297 187 161 174 170 160 114 105 109 114 94 107 69 74 48 74 35 11
19 9 26 22 10 0 2 2 0 0 0 0 0 0 0 0 0 0 0 49 177 334 355 332 322 343 301 322 190 303 153 231 342 179 189 179 175 170 177 202 211 197 253 257 171 107 48 23 0
13 3 8 4 14 7 4 0 0 0 0 0 0 0 0 0 0 0 0 0 0 133 285 333 381 457 443 459 349 275 227 207 280 241 129 155 195 122 162 154 161 223 268 162 76 54 22 10 0
12 4 11 41 8 7 0 0 0 0 0 0 0 0 0 0 0 0 0 0 0 0 14 342 443 486 501 408 319 334 316 331 286 143 109 31 38 54 52 80 86 28 19 37 4 0 0 0 0
7 0 3 5 0 1 1 0 0 0 0 0 0 0 0 0 0 0 0 0 0 0 0 0 318 366 407 455 344 326 261 250 174 122 73 4 0 0 0 0 0 0 0 0 0 0 0 0 0
0 4 7 5 0 0 0 0 0 0 0 0 0 0 0 0 0 0 0 0 0 0 0 0 0 297 332 317 370 284 214 106 95 60 24 0 0 0 0 0 0 0 0 0 0 0 0 0 0
0 0 0 0 0 0 0 0 0 0 0 0 0 0 0 0 0 0 0 0 0 0 0 0 0 0 172 227 298 316 206 112 100 40 15 0 0 0 0 0 0 0 0 0 0 0 0 0 0
9 0 0 0 0 0 0 0 0 0 0 0 0 0 0 0 0 0 0 0 0 0 0 0 0 0 0 25 34 19 11 2 23 2 0 0 0 0 0 0 0 0 0 0 0 0 0 0 0
0 0 0 0 0 0 0 0 0 0 0 0 0 0 0 0 0 0 0 0 0 0 0 0 0 0 0 0 0 0 0 0 0 0 0 0 0 0 0 0 0 0 0 0 0 0 0 0 0
0 0 0 0 0 0 0 0 0 0 0 0 0 0 0 0 0 0 0 0 0 0 0 0 0 0 0 0 0 0 0 0 0 0 0 0 0 0 0 0 0 0 0 0 0 0 0 0 0
0 0 0 0 0 0 0 0 0 0 0 0 0 0 0 0 0 0 0 0 0 0 0 0 0 0 0 0 0 0 0 0 0 0 0 0 0 0 0 0 0 0 0 0 0 0 0 0 0
0 0 0 0 0 0 0 0 0 0 0 0 0 0 0 0 0 0 0 0 0 0 0 0 0 0 0 0 0 0 0 0 0 0 0 0 0 0 0 0 0 0 0 0 0 0 0 0 0

GFSSGP_con_mlcape_090.txt.gz
CAPE
208 190 66 140 1 0 0 0 0 0 0 0 0 14 6 0 0 0 82 328 463 614 772 768 528 667 505 96 139 123 60 266 427 588 659 790 639 454 148 40 4 1 3 3 6 10 8 6 4
168 158 133 61 2 0 0 0 0 0 0 0 0 0 31 48 143 247 463 560 611 639 770 675 591 669 363 158 125 166 42 89 346 360 599 578 500 162 9 2 5 4 6 7 9 5 34 61 26
268 187 100 77 16 0 0 0 0 0 0 0 0 21 0 236 363 358 574 788 747 688 702 643 567 596 290 283 169 109 2 2 115 303 223 338 99 4 3 5 4 7 3 4 4 71 64 19 31
191 215 167 121 10 0 0 0 0 0 0 0 0 0 95 179 362 638 807 742 720 649 628 613 616 482 225 62 13 8 0 0 2 14 96 67 4 4 4 6 4 4 4 10 51 66 49 24 49
144 112 44 54 37 0 0 0 0 0 11 23 1 4 3 635 589 927 830 744 585 604 654 565 597 449 242 49 35 173 1 0 2 2 4 4 4 6 7 4 3 4 5 52 63 65 44 22 17
91 155 84 58 35 0 0 0 0 0 7 37 0 1 3 439 828 1011 942 696 589 698 552 551 389 324 238 4 274 244 9 0 3 6 7 6 6 5 4 3 4 4 33 47 67 67 35 10 1
20 100 44 45 34 5 0 0 0 0 0 0 26 0 5 272 477 835 888 585 446 641 548 461 262 4 3 0 151 277 200 0 0 7 9 8 4 3 5 5 5 26 33 37 40 28 2 0 0
61 150 55 56 13 1 0 0 0 0 0 1 22 0 0 397 291 640 711 714 653 503 550 343 58 7 0 0 0 203 303 0 0 0 3 4 4 1 3 4 4 23 11 6 0 0 0 0 0
94 97 5 47 48 1 0 0 0 1 0 63 15 0 6 187 48 1 477 427 295 329 509 277 66 65 20 0 0 16 480 154 0 0 0 0 0 0 1 0 10 9 0 0 0 0 0 0 0
81 25 1 18 4 0 0 0 13 76 151 175 184 252 144 27 10 0 294 530 459 417 413 280 125 60 77 76 0 0 136 480 72 0 0 0 0 0 0 0 0 0 0 0 0 0 0 0 0
55 18 0 26 0 93 19 0 47 135 63 209 128 174 101 60 17 16 0 84 504 607 282 49 88 121 107 65 58 8 83 294 199 29 0 0 0 0 0 0 0 0 0 0 0 0 0 0 0
37 0 10 4 0 108 156 64 65 239 102 83 425 310 155 82 68 13 0 0 408 284 143 37 0 6 8 51 68 26 52 184 237 61 17 0 0 0 0 0 0 0 0 0 0 0 0 0 0
24 0 2 1 12 5 18 84 64 27 53 504 742 325 259 134 78 47 1 53 345 238 90 8 19 2 22 6 85 132 28 96 252 227 56 12 7 1 3 2 0 0 0 0 0 0 0 0 0
14 0 0 7 0 3 31 52 25 0 81 1056 562 374 320 368 365 329 230 144 138 120 8 0 1 0 17 68 44 124 189 65 104 203 169 42 24 31 17 7 0 0 0 0 0 0 0 0 0
0 15 5 1 2 65 1 25 4 0 95 516 600 373 336 384 396 378 187 135 41 1 0 0 0 0 7 118 5 62 173 143 62 139 247 103 48 39 24 8 0 0 0 0 0 0 0 0 0
2 6 10 1 0 7 8 21 0 0 39 196 273 277 408 375 438 416 181 60 0 1 0 0 6 0 8 91 61 1 6 82 104 91 100 113 76 39 25 13 0 0 0 0 0 0 0 0 0
4 2 7 0 0 15 4 21 0 0 0 0 0 13 155 237 234 250 211 134 42 0 9 1 0 20 25 177 35 120 74 36 15 28 51 75 70 36 13 10 0 0 0 0 0 0 0 0 0
0 0 0 0 0 2 3 1 0 0 0 0 0 0 1 65 155 215 258 188 126 37 5 0 1 21 46 30 5 89 79 157 94 20 24 41 42 34 6 0 0 0 0 0 0 3 0 4 2
0 0 0 1 2 3 5 3 0 0 0 0 0 0 0 0 0 121 202 195 98 31 11 1 1 67 91 17 27 33 2 140 194 151 79 46 12 42 26 23 16 26 31 71 88 81 62 22 13
8 5 10 8 7 2 4 0 0 0 0 0 0 0 0 0 0 0 238 247 275 48 24 27 1 82 202 43 35 47 107 183 85 106 109 71 44 52 50 75 92 113 118 130 154 130 77 32 0
25 0 1 0 1 4 2 0 0 0 0 0 0 0 0 0 0 0 0 57 205 355 314 248 136 197 231 195 175 107 98 89 83 56 52 135 101 122 97 77 116 111 163 219 165 80 81 75 1
8 8 7 3 0 0 0 0 0 0 0 0 0 0 0 0 0 0 0 0 0 12 213 365 359 353 302 238 171 107 92 69 63 108 121 45 49 31 58 66 62 38 16 15 9 1 6 1 0
8 5 11 4 0 1 0 0 0 0 0 0 0 0 0 0 0 0 0 0 0 0 0 0 180 255 275 254 181 136 109 82 40 21 33 0 0 0 0 6 0 2 0 0 0 0 0 0 0
6 0 11 0 0 1 0 0 0 0 0 0 0 0 0 0 0 0 0 0 0 0 0 0 0 0 195 187 228 236 173 112 101 38 31 1 0 0 0 0 0 0 0 0 0 0 0 0 0
25 0 0 0 1 0 0 0 0 0 0 0 0 0 0 0 0 0 0 0 0 0 0 0 0 0 0 171 204 207 215 167 136 42 1 0 0 0 0 0 0 0 0 0 0 0 0 0 0
5 0 0 0 0 0 0 0 0 0 0 0 0 0 0 0 0 0 0 0 0 0 0 0 0 0 0 0 26 19 41 24 2 0 0 0 0 0 0 0 0 0 0 0 0 0 0 0 0
1 0 0 0 0 0 0 0 0 0 0 0 0 0 0 0 0 0 0 0 0 0 0 0 0 0 0 0 0 0 0 0 0 0 0 0 0 0 0 0 0 0 0 0 0 0 0 0 0
0 0 0 0 0 0 0 0 0 0 0 0 0 0 0 0 0 0 0 0 0 0 0 0 0 0 0 0 0 0 0 0 0 0 0 0 0 0 0 0 0 0 0 0 0 0 0 0 0
0 0 0 0 0 0 0 0 0 0 0 0 0 0 0 0 0 0 0 0 0 0 0 0 0 0 0 0 0 0 0 0 0 0 0 0 0 0 0 0 0 0 0 0 0 0 0 0 0
0 0 0 0 0 0 0 0 0 0 0 0 0 0 0 0 0 0 0 0 0 0 0 0 0 0 0 0 0 0 0 0 0 0 0 0 0 0 0 0 0 0 0 0 0 0 0 0 0

GFSSGP_con_mlcape_093.txt.gz
CAPE
13 0 9 24 0 0 0 0 0 0 0 0 0 8 7 1 0 0 74 234 497 707 881 660 467 603 176 189 251 219 368 446 491 445 606 655 676 472 128 3 2 1 3 6 11 6 7 4 3
12 25 38 24 1 0 0 0 0 0 0 0 0 0 8 60 167 287 311 468 710 866 838 617 525 529 114 153 138 115 313 347 464 490 613 748 526 271 42 5 5 11 8 7 4 5 28 30 41
0 34 20 24 12 0 0 0 0 0 0 0 0 0 1 24 395 423 663 665 750 826 857 692 561 393 241 65 179 65 132 239 222 337 377 460 255 45 1 5 8 6 5 9 11 64 29 39 21
0 58 49 0 0 0 0 0 0 0 20 4 0 0 9 201 524 628 710 789 745 777 778 656 571 333 316 226 139 6 16 181 150 126 207 144 11 2 0 8 5 4 6 15 61 38 38 60 31
21 9 34 6 0 5 0 0 0 0 0 8 0 0 1 229 561 851 852 839 689 682 692 742 499 332 123 21 0 0 0 17 73 128 87 3 3 4 4 6 10 4 26 73 84 55 32 31 38
13 42 0 0 0 0 4 0 0 0 40 49 21 0 0 15 562 700 853 786 693 665 602 579 345 308 4 2 42 0 0 0 0 5 3 3 5 4 3 4 3 25 72 82 85 64 31 17 6
3 15 0 0 0 1 0 5 0 0 88 116 93 18 0 4 18 660 801 655 493 626 485 452 432 295 24 49 155 0 0 0 0 1 5 4 3 4 2 3 2 31 75 84 78 46 8 0 0
32 12 7 2 0 0 0 29 0 0 0 156 175 30 0 63 41 298 726 501 556 513 396 236 201 136 4 152 65 74 0 0 3 5 8 2 0 2 1 2 2 26 58 51 27 7 0 0 0
81 16 1 0 0 0 8 47 5 0 2 181 215 64 24 88 71 108 373 462 448 359 391 43 0 0 0 0 119 158 0 0 0 1 1 4 4 2 3 0 10 10 10 9 0 0 0 0 0
33 9 4 0 0 8 63 67 33 7 10 107 219 285 187 116 2 5 0 285 310 356 260 37 8 0 0 0 9 245 73 0 0 0 0 0 0 0 0 0 0 0 0 0 0 0 0 0 0
5 0 0 0 0 72 155 114 36 1 0 52 152 221 146 1 28 27 1 1 159 380 98 51 10 15 0 0 0 30 353 82 0 0 0 0 0 0 0 0 0 0 0 0 0 0 0 0 0
4 0 0 0 9 98 96 207 83 1 0 0 394 345 223 33 18 30 92 0 4 98 58 61 39 17 1 0 0 0 82 246 65 6 0 0 0 0 0 0 0 0 0 0 0 0 0 0 0
1 0 4 0 4 56 109 45 50 45 0 0 401 467 193 71 53 28 42 0 8 77 64 121 80 42 0 0 0 2 17 161 196 64 29 7 1 0 0 0 0 0 0 0 0 0 0 0 0
10 9 0 47 2 7 14 0 0 36 0 0 279 406 260 27 40 47 12 0 7 64 65 88 113 85 29 11 18 54 28 45 201 167 115 37 6 1 0 9 0 0 0 0 0 0 0 0 0
0 0 7 5 6 13 28 0 0 1 0 21 215 326 178 141 16 0 0 0 21 1 58 53 158 68 2 51 4 21 83 76 49 152 199 112 34 33 26 22 4 0 0 0 0 0 0 0 0
0 2 2 4 7 0 0 0 0 0 0 98 172 313 234 177 80 1 0 20 98 30 0 7 19 30 56 65 62 4 20 114 102 51 84 201 82 42 40 32 30 7 0 0 0 0 0 0 0
4 1 4 40 0 8 0 0 1 0 0 0 0 18 180 372 345 190 19 57 49 18 0 3 0 2 17 58 99 62 20 0 70 110 45 77 146 80 44 28 27 2 0 0 0 0 0 0 14
0 0 35 21 9 0 0 0 0 0 0 0 0 0 120 216 169 145 106 42 8 11 0 0 0 4 53 102 82 30 48 103 57 14 35 46 64 52 34 20 6 1 0 0 0 0 0 14 40
1 0 27 74 22 4 3 0 0 0 0 0 0 0 1 83 45 88 35 42 1 0 0 8 0 8 1 15 34 0 21 121 79 94 60 8 5 19 16 13 0 0 2 4 0 30 56 78 72
4 0 35 10 1 0 0 0 0 0 0 0 0 0 0 0 0 15 82 65 4 7 3 0 0 1 58 67 85 37 42 89 145 79 116 90 44 13 6 4 3 0 13 43 111 114 88 52 40
8 0 15 0 2 0 0 0 4 0 0 0 0 0 0 0 0 0 88 193 159 51 31 21 2 9 44 101 108 88 84 15 4 94 131 106 105 46 15 19 23 21 30 63 78 79 97 131 25
3 41 13 0 0 0 0 0 0 0 0 0 0 0 0 0 0 0 2 69 160 258 159 81 35 8 30 111 82 78 25 47 60 57 32 24 46 48 45 40 36 18 5 8 6 1 1 24 83
3 35 19 0 0 0 0 0 0 0 0 0 0 0 0 0 0 0 0 0 0 0 161 283 191 71 16 14 78 30 19 55 53 49 25 2 0 0 14 28 8 0 0 2 0 0 0 0 0
10 14 17 0 0 0 0 0 0 0 0 0 0 0 0 0 0 0 0 0 0 0 0 0 43 214 230 226 207 177 163 72 9 36 44 12 0 0 0 0 0 6 1 0 0 0 0 0 0
0 0 1 0 0 0 0 0 0 0 0 0 0 0 0 0 0 0 0 0 0 0 0 0 0 0 0 52 130 119 117 93 47 39 26 0 0 0 0 0 0 0 0 0 0 0 0 0 0
0 0 0 0 0 0 0 0 0 0 0 0 0 0 0 0 0 0 0 0 0 0 0 0 0 0 0 0 5 59 38 36 15 8 0 0 0 0 0 0 0 0 0 0 0 0 0 0 0
0 0 0 0 0 0 0 0 0 0 0 0 0 0 0 0 0 0 0 0 0 0 0 0 0 0 0 0 0 0 0 0 0 0 0 0 0 0 0 0 0 0 0 0 0 0 0 0 0
0 0 0 0 0 0 0 0 0 0 0 0 0 0 0 0 0 0 0 0 0 0 0 0 0 0 0 0 0 0 0 0 0 0 0 0 0 0 0 0 0 0 0 0 0 0 0 0 0
0 0 0 0 0 0 0 0 0 0 0 0 0 0 0 0 0 0 0 0 0 0 0 0 0 0 0 0 0 0 0 0 0 0 0 0 0 0 0 0 0 0 0 0 0 0 0 0 0
0 0 0 0 0 0 0 0 0 0 0 0 0 0 0 0 0 0 0 0 0 0 0 0 0 0 0 0 0 0 0 0 0 0 0 0 0 0 0 0 0 0 0 0 0 0 0 0 0

GFSSGP_con_mlcape_096.txt.gz
CAPE
11 5 11 5 0 0 0 0 2 0 0 36 0 0 21 39 0 32 462 321 445 666 926 586 287 316 266 333 543 466 342 440 474 465 683 674 459 286 19 0 0 5 7 16 26 23 4 3 2
29 14 33 41 1 0 0 0 10 0 0 44 18 0 0 66 510 494 536 399 575 643 853 597 501 344 396 385 455 475 384 538 346 506 548 501 425 155 4 1 3 8 14 12 5 5 18 29 6
4 26 36 2 7 0 0 5 7 0 0 52 59 0 0 21 372 609 852 588 675 718 794 539 622 289 321 308 334 394 439 500 463 412 312 317 303 42 6 8 9 4 10 10 23 44 34 21 0
14 37 39 5 0 0 1 3 43 0 0 24 22 0 0 19 126 735 882 763 826 777 675 565 627 248 190 257 199 309 320 323 208 265 244 221 114 2 10 10 4 8 11 13 34 46 53 20 0
15 36 0 0 0 0 3 20 35 0 0 81 45 3 0 22 85 720 897 844 697 697 654 641 503 368 240 164 46 195 328 238 157 204 172 123 44 3 5 11 8 9 7 38 28 43 59 28 0
23 6 0 0 0 0 0 57 22 0 0 9 95 96 17 3 40 115 828 828 712 627 577 637 364 377 307 91 0 16 164 193 139 73 4 8 12 9 7 9 7 15 35 60 41 37 20 16 4
10 8 0 0 0 0 0 31 21 5 0 2 84 97 13 0 0 0 138 777 660 647 454 545 420 191 17 0 0 0 2 7 17 0 1 7 5 4 7 6 10 26 45 66 48 25 11 0 0
8 24 4 0 0 0 0 5 2 61 9 1 155 82 34 0 0 6 0 518 725 603 452 492 225 4 1 125 0 0 0 0 0 0 1 1 1 2 3 2 7 41 76 61 39 2 0 0 0
18 6 2 1 0 0 0 4 2 47 75 10 72 174 183 122 65 10 0 0 577 554 572 454 108 18 12 31 14 0 0 0 0 0 3 1 1 1 2 2 1 45 53 35 20 0 0 0 0
6 0 0 0 0 3 0 23 0 44 90 61 24 315 475 351 163 105 3 0 43 517 513 375 104 20 50 31 113 8 0 0 0 8 2 0 0 0 0 1 11 12 3 0 0 0 0 0 0
0 0 0 0 0 6 22 49 33 188 48 95 58 112 397 425 190 25 40 4 31 296 341 188 19 8 13 48 279 177 13 0 0 4 5 1 0 0 0 0 0 0 0 0 0 0 0 0 0
2 0 0 0 0 31 15 27 88 145 33 72 66 16 442 401 201 64 26 7 0 11 185 235 60 0 1 60 167 292 142 22 3 0 0 0 0 0 0 0 0 0 0 0 0 0 0 0 0
0 0 0 0 0 5 72 50 94 99 98 94 33 31 114 331 43 3 0 0 0 0 44 263 297 136 15 0 4 159 348 111 39 33 0 0 0 0 0 0 0 0 0 0 0 0 0 0 0
3 5 0 0 0 13 18 12 126 70 129 119 30 0 7 171 72 0 0 0 0 0 38 231 339 250 103 24 0 0 163 348 190 97 68 28 11 0 0 0 6 0 0 0 0 0 0 0 0
9 4 1 4 0 25 67 58 10 10 23 7 0 0 17 140 55 2 0 0 0 2 7 84 241 222 156 87 16 41 0 99 319 233 287 95 45 33 14 61 47 14 0 0 0 0 0 0 0
0 1 3 0 2 19 63 0 2 76 10 1 10 5 98 131 40 53 0 0 0 5 1 110 165 174 291 199 134 125 114 70 79 248 431 347 134 81 93 126 102 41 23 9 0 0 0 0 0
0 0 0 17 12 54 36 11 45 0 0 0 44 36 77 67 83 98 65 24 53 12 12 9 43 104 208 340 203 150 179 230 177 103 126 243 340 180 146 147 131 85 35 11 3 0 0 1 30
0 9 36 28 39 38 19 0 0 0 0 0 3 13 74 61 114 214 38 135 100 8 2 20 47 59 198 390 353 250 187 158 229 270 173 116 228 336 252 195 142 102 56 0 0 0 0 53 116
0 4 19 33 41 32 3 0 0 0 0 0 8 60 91 83 165 232 206 138 41 15 10 25 38 86 263 412 335 314 291 294 219 136 135 198 181 184 190 166 161 97 46 11 4 5 33 73 129
3 9 29 70 29 1 0 0 0 0 0 0 2 5 130 22 41 3 92 25 17 15 1 4 18 29 160 162 249 171 199 345 351 291 290 270 175 119 93 100 105 67 45 58 44 87 116 112 164
18 4 34 3 4 2 0 0 0 0 0 0 0 0 3 38 1 0 11 54 8 27 14 46 28 37 30 112 166 200 227 231 243 217 324 350 217 140 111 57 45 52 100 114 96 61 100 120 80
6 0 27 4 4 13 1 0 0 2 7 6 0 0 0 1 0 0 2 89 78 24 39 50 43 20 25 92 123 125 94 107 129 126 76 28 29 81 69 75 33 16 5 10 3 0 3 44 96
18 21 21 6 0 16 0 0 0 5 1 2 1 0 0 0 0 0 2 60 121 75 60 87 92 55 23 18 46 62 54 16 62 27 5 18 1 10 30 53 29 21 0 0 0 2 0 0 0
17 29 38 32 0 1 0 0 0 0 0 0 0 0 0 0 0 0 0 0 0 0 23 249 237 151 122 56 37 24 3 42 45 35 12 29 22 20 13 19 2 0 0 1 6 1 0 0 0
0 25 1 4 0 0 0 0 0 0 0 0 0 0 0 0 0 0 0 0 0 0 0 0 0 91 237 178 172 137 135 106 99 103 79 9 0 0 0 3 9 0 4 0 0 0 0 0 0
0 0 4 0 0 0 0 0 0 0 0 0 0 0 0 0 0 0 0 0 0 0 0 0 0 0 0 0 92 171 213 247 206 231 152 42 2 1 0 0 0 0 0 0 0 0 0 0 0
0 0 0 0 2 0 0 0 0 0 0 0 0 0 0 0 0 0 0 0 0 0 0 0 0 0 0 0 0 9 148 140 141 134 136 19 3 3 1 1 0 0 0 0 0 0 0 0 0
0 0 0 0 0 1 0 0 0 0 0 0 0 0 0 0 0 0 0 0 0 0 0 0 0 0 0 0 0 0 0 0 2 19 10 2 3 3 3 0 0 0 0 0 0 0 0 0 0
0 0 0 0 0 0 0 0 0 0 0 0 0 0 0 0 0 0 0 0 0 0 0 0 0 0 0 0 0 0 0 0 0 0 0 1 0 0 0 0 0 0 0 0 0 0 0 0 0
0 0 0 0 0 0 0 0 0 0 0 0 0 0 0 0 0 0 0 0 0 0 0 0 0 0 0 0 0 0 0 0 0 0 0 0 0 0 0 0 0 0 0 0 0 0 0 0 0

GFSSGP_con_mlcape_099.txt.gz
CAPE
0 2 12 50 6 0 0 0 0 0 0 16 79 32 20 108 95 204 487 317 537 1017 1051 733 541 444 370 351 736 756 224 918 810 699 742 630 580 329 30 106 436 62 3 221 1 2 4 2 1
0 0 18 18 2 0 0 0 0 0 0 20 80 30 73 208 435 603 766 466 552 1049 1084 610 412 358 403 554 666 639 438 708 648 639 677 640 451 139 0 2 19 1 96 55 6 4 6 2 0
0 0 11 9 16 0 0 0 0 0 3 6 70 65 59 172 372 475 915 669 617 1020 947 711 473 392 476 603 641 574 380 574 526 566 538 461 346 34 1 4 7 13 5 6 6 4 2 0 0
0 0 10 7 0 0 0 0 0 1 16 15 52 76 35 150 220 599 890 762 720 963 899 748 600 460 444 524 626 554 443 366 448 484 425 354 202 23 6 7 7 3 6 10 1 2 0 0 0
0 1 0 0 0 0 0 0 0 0 11 9 32 35 35 42 117 354 980 856 816 886 782 829 612 441 337 417 570 554 443 475 482 225 279 203 22 6 11 3 4 8 9 5 41 36 14 0 0
3 0 0 0 0 0 0 0 0 0 2 9 16 70 74 24 177 443 1100 1010 871 802 852 786 556 405 335 315 469 450 458 249 189 192 358 107 1 4 7 4 8 13 11 16 46 50 28 5 0
0 0 0 0 0 0 0 0 0 2 6 9 0 57 69 87 244 324 453 822 722 734 741 583 592 303 255 132 275 349 365 240 230 231 138 8 3 7 9 5 8 14 13 43 39 18 0 0 0
0 0 0 0 0 0 0 0 0 4 5 2 20 23 79 119 204 213 0 0 0 0 712 616 538 292 182 36 0 212 183 137 55 1 0 2 2 3 3 5 9 10 46 62 32 8 0 0 0
0 0 0 0 0 0 0 0 0 0 10 10 21 61 102 280 193 55 0 0 0 0 0 617 541 126 7 0 0 6 11 7 0 0 0 1 5 5 4 5 6 36 82 66 31 1 0 0 0
0 0 0 0 0 0 0 0 0 0 13 23 25 50 34 439 300 35 0 0 0 0 0 1 439 22 2 15 0 0 0 0 0 0 1 0 0 1 7 9 9 40 51 33 17 0 0 0 0
3 0 0 0 0 0 0 9 10 2 5 44 13 70 179 482 393 93 15 28 0 0 21 0 233 55 3 44 0 0 0 0 0 1 2 1 0 0 3 6 7 20 2 0 0 0 0 0 0
0 1 0 0 0 0 15 19 27 24 49 67 37 72 158 197 173 150 38 48 26 5 0 0 40 72 25 56 21 1 0 0 1 1 0 1 2 0 0 0 0 0 0 0 0 0 0 0 0
5 0 0 0 0 0 0 10 41 2 15 58 91 85 60 96 222 160 84 40 13 0 0 0 13 34 151 113 169 21 4 0 0 9 6 1 0 0 0 0 0 0 0 0 0 0 0 0 0
8 9 7 1 0 0 0 0 1 23 22 46 170 133 61 13 162 141 124 13 25 26 1 0 111 95 89 102 204 240 24 16 6 0 0 0 0 0 0 0 0 0 0 0 0 0 0 0 0
9 11 7 0 1 2 1 6 11 7 53 100 143 89 79 30 145 73 77 10 19 0 0 0 17 215 198 131 170 254 244 146 11 62 3 0 0 0 0 0 23 8 0 0 0 0 0 0 0
7 4 0 0 2 2 24 0 1 7 77 99 116 167 112 51 64 112 80 46 34 2 0 7 130 189 299 271 178 87 167 444 358 163 180 93 65 64 42 109 87 43 19 3 0 0 0 0 0
7 0 0 0 5 19 16 9 88 85 128 102 86 121 99 20 3 101 77 22 3 28 1 30 121 143 248 349 231 159 103 156 314 426 502 388 229 162 182 209 182 111 50 27 12 0 0 0 3
1 4 4 15 3 4 26 14 86 76 115 83 69 171 28 5 21 78 35 84 55 62 10 1 60 92 82 311 325 235 251 226 191 204 274 445 411 319 258 226 204 188 118 52 11 5 0 4 32
6 1 0 5 0 9 16 15 20 39 11 16 20 133 5 0 29 86 57 118 124 171 77 24 34 71 73 215 277 291 249 269 373 361 246 207 306 375 334 307 257 229 180 83 18 0 1 40 89
9 2 0 48 30 4 18 32 38 5 0 0 0 1 65 44 26 4 49 140 163 99 1 19 11 61 62 100 264 266 366 402 392 351 325 298 264 258 315 286 271 254 185 124 46 21 46 109 105
3 2 9 18 6 31 7 34 13 3 0 0 0 0 96 91 38 3 17 115 116 22 47 19 35 63 80 109 97 199 319 367 427 409 446 397 362 299 270 227 204 172 105 86 121 110 159 104 90
2 15 5 0 0 4 24 1 0 0 0 0 0 0 144 36 0 4 1 66 48 22 26 20 18 34 52 86 54 64 79 149 197 304 318 228 191 230 278 226 149 142 95 78 65 48 50 54 66
14 12 4 0 0 0 1 0 0 3 3 0 0 3 43 9 0 2 0 19 0 0 1 23 34 51 29 31 74 83 53 52 108 113 195 151 136 149 131 129 90 64 29 10 7 3 0 0 0
0 12 14 12 5 1 0 0 0 1 1 3 3 0 1 0 0 15 0 21 27 40 63 42 31 49 80 111 45 45 18 1 31 82 151 90 52 73 77 72 19 27 2 0 0 14 7 0 0
9 0 0 2 0 0 0 0 0 1 1 0 0 0 0 0 0 0 0 1 5 29 38 45 59 158 177 192 187 116 39 0 8 14 36 74 29 7 6 17 2 7 15 4 1 0 0 0 0
6 0 1 5 2 1 4 0 0 0 5 0 0 0 0 0 0 0 0 0 0 0 0 0 0 0 7 83 318 358 357 74 21 14 61 127 72 13 1 1 1 1 1 0 0 0 0 0 0
9 1 0 4 2 0 1 0 2 0 0 0 0 0 0 0 0 0 0 0 0 0 0 0 0 0 0 0 9 184 272 291 314 309 316 289 150 40 0 1 7 0 0 0 0 0 0 0 0
1 0 1 0 0 0 0 0 0 1 2 0 0 0 0 0 0 0 0 0 0 0 0 0 0 0 0 0 0 21 85 183 239 231 189 79 43 0 1 1 0 0 0 0 0 0 0 0 0
1 0 0 0 0 0 0 0 0 0 0 0 0 0 0 0 0 0 0 0 0 0 0 0 0 0 0 0 0 0 0 0 0 5 34 3 2 0 0 0 0 0 0 0 0 0 0 0 0
0 0 0 0 0 0 0 0 0 0 0 0 0 0 0 0 0 0 0 0 0 0 0 0 0 0 0 0 0 0 0 0 0 0 0 0 1 0 0 0 0 0 0 0 0 0 0 0 0

GFSSGP_con_mlcape_102.txt.gz
CAPE
0 0 1 4 1 0 0 0 0 0 0 0 0 19 42 45 153 103 423 288 1025 1195 1038 954 899 618 510 227 529 258 66 903 929 723 676 673 488 257 382 543 66 194 120 0 0 2 5 2 3
0 0 0 4 0 0 0 0 0 0 0 0 3 59 48 57 480 817 682 316 984 1185 1006 913 832 526 496 541 739 676 97 975 916 653 751 774 631 158 562 545 94 349 0 0 2 3 0 0 0
0 0 2 2 0 0 0 0 0 0 0 0 1 60 67 57 474 833 824 558 1223 1160 945 856 641 443 523 699 731 709 313 808 753 692 657 652 501 112 249 244 13 235 8 0 3 3 0 0 0
0 0 0 0 0 0 0 0 0 0 0 0 0 36 49 46 357 681 890 730 1113 1227 884 782 549 449 468 589 699 718 509 698 628 520 537 462 230 46 54 0 8 3 0 0 4 0 0 0 0
0 0 0 0 0 0 0 0 0 0 0 0 3 3 64 40 265 685 891 872 985 1120 966 785 537 380 379 457 693 657 415 653 429 398 514 379 158 19 0 7 3 1 4 1 4 0 0 0 0
3 0 0 0 0 0 0 0 0 0 0 0 0 3 41 60 73 242 1005 968 887 1058 939 833 430 424 287 389 654 465 501 388 445 453 328 317 91 4 6 5 5 10 1 27 38 29 0 0 0
0 0 0 0 0 0 0 0 0 0 0 0 0 0 0 159 120 359 1178 1125 553 721 946 733 504 440 193 319 493 378 540 431 416 207 198 70 1 2 8 5 9 7 7 59 64 52 23 4 0
0 0 0 0 0 0 0 0 0 0 0 0 0 0 0 83 236 524 756 731 314 204 0 0 1 333 249 187 386 304 443 354 200 218 69 0 0 2 7 4 11 5 7 27 31 16 0 0 0
0 0 0 0 0 0 0 0 0 0 0 0 0 0 29 203 198 133 64 85 112 14 0 0 0 0 163 63 230 277 269 228 185 40 0 0 0 3 2 2 13 7 11 27 17 0 0 0 0
0 0 0 0 0 0 0 0 0 0 0 0 0 0 0 154 192 134 70 27 1 8 0 1 0 0 0 78 72 148 166 36 0 0 0 0 1 2 4 5 8 9 26 38 16 0 0 0 0
0 0 0 0 0 0 0 0 0 0 0 0 0 1 0 52 242 113 28 21 3 0 0 0 0 1 0 0 63 79 22 0 0 0 0 0 1 0 5 3 7 4 6 14 1 0 0 0 0
0 0 0 0 0 0 0 0 0 0 0 0 0 0 2 53 102 50 37 29 14 0 0 0 0 0 0 0 0 0 0 2 1 0 0 0 0 0 0 0 0 0 0 0 0 0 0 0 0
0 0 0 0 0 0 0 0 0 0 0 0 0 0 2 27 131 159 124 131 83 24 3 0 0 0 0 28 0 0 0 0 2 0 0 0 0 0 0 0 0 0 0 0 0 0 0 0 0
0 0 0 1 2 0 0 0 0 0 0 0 0 0 0 92 54 39 91 96 88 67 2 0 0 16 51 18 6 0 0 0 0 0 0 0 0 0 0 0 0 0 0 0 0 0 0 0 0
6 0 0 0 0 0 1 0 0 0 0 0 0 0 0 26 39 0 47 66 146 104 47 3 0 92 6 39 98 134 0 0 0 0 0 0 0 0 0 0 0 0 0 0 0 0 0 0 0
0 6 0 0 0 0 4 0 0 0 0 0 0 7 18 58 92 29 33 0 46 39 25 54 11 13 7 74 136 202 136 8 0 0 0 0 0 0 0 0 2 4 0 0 0 0 0 0 0
0 0 0 0 0 0 0 0 0 0 0 0 0 71 0 16 105 139 112 98 47 39 14 78 1 0 0 0 44 80 87 103 77 89 19 31 18 0 27 87 57 44 29 2 2 0 0 0 0
0 0 2 0 0 0 0 0 0 0 0 0 60 115 41 53 97 103 145 125 48 42 21 35 2 0 0 0 73 122 69 138 150 222 220 183 104 118 90 174 155 110 70 43 20 7 0 0 0
0 1 0 0 0 1 0 0 0 0 0 24 87 81 230 235 144 160 181 39 46 53 33 40 21 0 0 6 108 218 219 178 146 208 342 364 334 228 222 224 184 176 145 73 42 21 7 0 26
2 1 0 0 2 0 0 0 0 0 0 30 15 61 95 191 100 120 167 80 102 34 42 34 26 36 43 22 102 207 330 366 353 302 226 208 331 403 304 275 262 243 234 209 102 12 11 29 93
1 0 0 1 0 4 10 1 2 14 38 6 6 0 0 160 178 83 53 22 46 33 36 11 11 24 69 56 53 100 138 216 350 392 366 273 269 293 349 327 286 252 239 217 161 142 102 110 97
0 5 11 1 0 0 8 1 8 0 0 0 0 0 0 151 90 40 0 3 12 32 25 13 17 33 60 73 42 99 93 83 112 255 344 346 346 314 298 247 282 250 206 162 143 133 94 101 84
0 0 3 3 0 0 0 0 0 1 2 0 0 1 97 98 42 3 9 1 15 2 6 18 28 30 54 48 45 45 51 60 57 101 117 127 161 172 192 230 240 194 166 127 120 84 35 24 0
0 0 0 0 1 0 0 0 0 0 1 1 35 173 123 43 12 1 8 11 3 11 22 23 35 20 34 51 59 44 39 38 30 55 84 84 75 89 98 123 122 102 79 92 66 10 5 7 0
1 1 0 0 0 0 0 0 0 1 2 0 2 18 18 1 1 5 8 3 15 0 10 8 23 37 42 59 74 65 53 34 16 17 54 61 30 16 17 43 48 23 45 33 32 1 0 4 6
2 0 0 0 0 0 0 0 0 4 1 1 2 1 0 0 0 0 0 1 3 4 17 19 14 18 20 55 60 72 49 15 25 18 6 1 6 4 8 16 21 7 3 11 5 0 0 0 0
2 1 0 0 0 0 0 0 3 4 1 0 0 0 0 0 0 0 0 0 0 0 0 0 0 0 0 0 13 209 285 174 102 36 25 7 2 7 25 18 22 20 6 1 0 0 0 0 0
0 0 0 0 0 0 0 0 0 0 2 0 0 0 0 0 0 0 0 0 0 0 0 0 0 0 0 0 0 10 47 84 154 215 156 94 83 62 11 8 8 8 11 2 0 0 0 0 0
0 0 0 0 0 0 0 0 5 4 0 0 0 0 0 0 0 0 0 0 0 0 0 0 0 0 0 0 0 0 0 0 0 0 24 0 0 2 6 3 0 0 0 0 0 0 0 0 0
0 0 0 0 0 0 0 0 0 0 0 0 0 0 0 0 0 0 0 0 0 0 0 0 0 0 0 0 0 0 0 0 0 0 0 0 0 0 0 0 0 0 0 0 0 0 0 0 0

GFSSGP_con_mlcape_105.txt.gz
CAPE
0 0 0 0 0 0 0 0 0 0 0 0 0 0 0 78 76 26 307 845 1079 973 947 828 648 449 325 302 170 58 801 1002 824 835 788 733 398 333 478 155 498 151 53 7 5 4 6 3 0
0 0 0 0 0 0 0 0 0 0 0 0 0 0 15 109 609 599 333 984 1132 1021 991 950 815 530 364 363 501 58 542 1048 870 788 800 795 507 540 643 252 467 57 2 2 2 3 5 3 0
0 0 0 0 0 0 0 0 0 0 0 0 0 0 29 342 779 833 582 857 1183 1088 1065 943 756 566 412 600 723 318 305 965 820 723 756 673 483 770 542 312 290 15 0 2 2 0 0 0 0
0 0 0 0 0 0 0 0 0 0 0 0 0 9 41 82 601 845 867 1135 1221 1075 1052 993 739 620 454 556 566 648 304 820 858 661 607 571 431 613 450 327 117 2 0 3 2 0 0 0 0
0 0 0 0 0 0 0 0 0 0 0 0 0 0 46 481 721 697 854 1129 1107 1001 1026 990 710 491 413 365 623 724 452 768 796 680 599 490 268 291 168 93 0 0 0 1 0 0 0 0 0
0 0 0 0 0 0 0 0 0 0 0 0 0 0 25 288 482 603 811 933 1175 1045 940 896 721 409 387 337 616 746 369 706 587 575 606 357 157 89 0 7 1 0 0 2 1 0 0 0 0
0 0 0 0 0 0 0 0 0 0 0 0 0 0 0 97 241 761 634 668 823 788 630 274 442 370 422 424 538 537 266 629 404 386 414 239 48 0 0 4 8 1 0 3 3 0 0 0 0
0 0 0 0 0 0 0 0 0 0 0 0 0 0 0 36 423 574 554 370 261 98 50 0 0 0 11 471 421 424 147 415 273 193 249 87 0 4 5 4 5 6 4 15 13 27 16 0 0
0 0 0 0 0 0 0 0 0 0 0 0 0 0 0 147 258 232 194 117 70 47 7 0 0 0 0 0 299 325 125 334 137 228 90 0 0 2 3 4 3 2 0 1 0 0 0 0 0
0 0 0 0 0 0 0 0 0 0 0 0 0 0 42 243 206 151 145 141 59 37 8 0 0 0 0 0 0 103 142 176 213 62 0 0 0 1 4 4 4 7 1 0 0 0 0 0 0
0 0 0 0 0 0 0 0 0 0 0 0 0 0 0 0 114 106 82 76 21 3 0 0 0 0 0 0 0 0 49 78 58 8 0 0 0 4 6 5 6 10 6 0 0 0 0 0 0
0 0 0 0 0 0 0 0 0 0 0 0 0 0 0 0 1 106 94 65 2 7 0 0 0 0 0 0 0 0 0 30 7 0 0 2 0 2 3 2 5 6 2 0 0 0 0 0 0
0 0 0 0 0 0 0 0 0 0 0 0 0 0 0 0 0 0 80 83 21 17 2 0 0 0 0 0 0 0 4 17 0 0 0 0 0 0 2 0 1 1 0 0 0 0 0 0 0
0 0 0 0 0 0 0 0 0 0 0 0 0 0 0 0 0 0 13 42 95 55 12 0 1 0 0 0 0 0 18 57 7 1 0 0 0 0 0 0 0 0 0 0 0 0 0 0 0
2 0 0 0 0 0 0 0 0 0 0 0 0 0 0 0 0 0 0 0 72 88 46 4 36 17 3 3 2 5 0 18 32 0 0 0 0 0 0 0 0 0 0 0 0 0 0 0 0
0 0 0 0 0 0 0 0 0 0 0 0 0 0 0 0 0 0 34 90 126 144 96 19 24 140 18 26 2 17 7 4 21 2 0 0 0 0 0 0 0 0 0 0 0 0 0 0 0
0 0 0 0 0 0 0 0 0 0 0 0 0 0 0 0 2 0 29 88 48 75 72 56 108 30 33 34 0 27 39 23 5 0 0 0 0 0 0 0 0 0 0 0 0 0 0 0 0
0 0 0 0 0 0 0 0 0 0 0 0 0 0 0 0 1 5 74 144 120 59 27 32 44 2 60 9 0 68 59 144 64 13 0 0 0 0 0 0 7 26 18 4 4 0 0 0 0
0 0 0 0 0 2 0 0 0 0 0 0 0 0 0 6 81 99 111 199 166 120 37 7 60 3 8 26 5 74 73 68 100 116 38 87 25 23 44 136 108 81 72 56 32 21 6 0 0
0 0 0 0 0 0 0 0 0 0 0 0 0 0 1 28 135 211 235 148 116 81 58 38 19 1 10 0 9 8 0 10 63 122 197 240 145 160 116 209 209 184 148 101 74 42 28 7 0
0 0 0 0 0 0 0 0 0 0 0 0 0 0 3 22 50 176 198 112 113 58 62 49 49 13 10 14 40 1 0 52 48 52 84 173 247 286 258 298 265 243 231 206 171 106 67 84 73
0 0 4 5 0 0 0 0 0 0 0 0 0 0 5 0 130 142 147 102 86 48 36 62 47 5 30 51 37 31 26 27 37 54 102 258 322 362 407 362 347 320 261 241 204 159 126 117 110
0 0 0 0 2 0 0 0 0 0 0 0 0 0 7 57 115 116 43 35 39 36 7 25 32 43 41 40 36 37 35 36 63 92 93 85 118 186 268 224 204 212 158 97 114 52 55 84 62
0 1 0 0 0 0 0 0 0 0 1 0 0 0 22 142 60 43 22 2 16 4 22 27 9 11 34 36 19 6 43 52 66 85 71 50 80 107 157 155 142 154 128 100 74 49 34 22 13
1 2 0 0 0 0 0 0 0 0 1 0 17 15 91 64 33 14 7 0 4 10 1 0 18 7 18 14 32 36 37 40 30 26 29 41 30 38 69 93 93 57 22 14 33 19 20 12 13
0 0 0 0 0 0 0 0 0 1 11 6 9 2 0 1 0 2 30 2 0 1 3 0 0 8 5 18 25 55 28 39 54 40 30 26 48 36 17 10 23 17 16 7 6 8 9 0 0
3 0 1 0 0 0 0 0 0 0 0 0 4 1 1 1 0 0 0 8 18 12 0 0 0 0 0 0 0 23 30 88 51 52 47 30 8 6 5 3 1 6 20 16 7 15 0 0 0
0 0 0 0 0 0 0 0 0 0 3 0 2 0 0 0 0 0 0 0 0 0 0 0 0 0 0 0 7 16 110 112 128 97 75 35 12 3 10 6 7 24 15 18 7 2 1 0 0
0 0 0 0 0 0 0 0 1 3 3 0 0 0 0 0 0 0 0 0 0 0 0 0 0 0 0 0 0 0 0 0 0 1 41 52 37 33 25 33 21 26 14 6 8 1 0 0 0
0 0 0 0 0 0 0 0 4 3 0 0 0 0 0 0 0 0 0 0 0 0 0 0 0 0 0 0 0 0 0 0 0 0 0 0 0 0 0 0 0 0 0 0 0 0 0 0 0

GFSSGP_con_mlcape_108.txt.gz
CAPE
0 0 0 0 0 0 0 0 0 0 0 0 0 0 0 0 0 3 458 751 804 355 875 853 789 653 447 300 683 1067 1010 926 874 880 939 893 497 251 333 628 475 338 13 28 8 6 0 10 6
0 0 0 0 0 0 0 0 0 0 0 0 0 0 0 0 596 510 788 897 890 665 785 671 712 616 482 363 90 717 1105 929 867 762 936 777 449 491 380 559 299 40 5 6 7 3 0 1 1
0 0 0 0 0 0 0 0 0 0 0 0 0 0 0 149 585 533 449 1065 963 858 807 730 674 498 431 519 212 42 976 944 914 707 815 756 483 720 403 575 116 16 1 4 3 2 0 0 0
0 0 0 0 0 0 0 0 0 0 0 0 0 0 0 50 763 664 753 1078 1060 889 945 905 679 458 355 550 502 7 736 985 831 755 635 701 441 713 464 419 22 0 0 1 0 0 0 0 0
0 0 0 0 0 0 0 0 0 0 0 0 0 0 0 168 483 642 868 1103 1061 881 926 1043 843 592 406 368 590 375 317 976 752 689 591 637 419 595 379 204 13 0 0 0 0 0 0 0 0
0 0 0 0 0 0 0 0 0 0 0 0 0 0 0 0 388 625 1037 1092 1022 921 989 1020 915 626 333 435 381 693 266 840 784 656 613 604 388 303 396 118 6 0 0 0 0 0 0 0 0
0 0 0 0 0 0 0 0 0 0 0 0 0 0 0 0 92 255 665 897 842 833 688 716 717 469 388 373 559 711 487 615 760 751 481 526 269 166 134 12 0 0 0 0 0 0 0 0 0
0 0 0 0 0 0 0 0 0 0 0 0 0 0 0 0 94 104 161 296 232 215 110 165 81 70 119 293 427 518 484 307 641 557 267 419 153 13 137 0 0 0 0 0 0 0 0 0 0
0 0 0 0 0 0 0 0 0 0 0 0 0 0 0 0 99 72 66 55 39 43 97 35 18 0 0 0 31 220 413 167 477 335 148 175 19 0 0 0 1 4 18 0 12 14 0 0 0
0 0 0 0 0 0 0 0 0 0 0 0 0 0 0 0 0 6 79 101 85 52 31 0 12 1 0 0 0 0 47 113 298 166 127 41 0 1 0 1 6 5 6 1 0 0 0 0 0
0 0 0 0 0 0 0 0 0 0 0 0 0 0 0 0 0 0 6 44 91 71 41 4 10 0 0 0 0 0 0 2 116 80 97 1 0 0 3 11 8 4 0 0 0 0 0 0 0
0 0 0 0 0 0 0 0 0 0 0 0 0 0 0 0 0 0 0 17 24 26 64 30 0 0 0 0 0 0 0 0 3 46 0 0 0 1 0 9 7 5 0 0 0 0 0 0 0
0 0 0 0 0 0 0 0 0 0 0 0 0 0 0 0 0 0 0 0 19 17 16 42 11 11 5 5 0 0 0 0 0 10 0 0 0 0 0 4 6 13 0 0 0 0 0 0 0
0 0 0 0 0 0 0 0 0 0 0 0 0 0 0 0 0 0 0 0 4 32 18 0 0 0 0 0 0 0 0 0 9 3 0 0 0 0 0 0 0 4 0 0 0 0 0 0 0
0 0 0 0 0 0 0 0 0 0 0 0 0 0 0 0 0 0 0 0 0 41 24 13 0 0 0 0 0 0 0 0 21 1 0 0 0 0 0 0 1 0 0 0 0 0 0 0 0
0 0 0 0 0 0 0 0 0 0 0 0 0 0 0 0 0 0 0 0 2 53 37 14 11 28 0 0 0 0 0 12 22 2 8 0 0 0 0 1 0 2 0 0 0 0 0 0 0
0 0 0 0 0 0 0 0 0 0 0 0 0 0 0 0 0 0 0 0 4 125 91 63 31 60 89 35 9 0 0 2 42 0 17 1 0 0 0 12 30 0 0 0 0 0 0 0 0
0 0 0 0 0 0 0 0 0 0 0 0 0 0 0 0 0 0 0 0 11 160 118 117 108 79 121 64 40 24 4 0 0 3 36 8 1 0 1 3 0 0 0 0 0 0 0 0 0
0 0 0 0 0 0 0 0 0 0 0 0 0 0 0 0 0 0 0 12 134 151 123 94 115 90 82 1 9 10 29 7 21 0 15 32 13 3 14 31 0 0 0 0 0 9 0 4 0
0 0 0 0 0 0 0 0 0 0 0 0 0 0 0 0 0 0 17 81 139 170 152 139 122 57 35 16 11 26 62 32 18 17 7 31 24 39 54 22 15 25 45 42 18 22 30 21 0
3 0 0 0 0 0 0 0 0 0 0 0 0 0 0 0 0 38 172 219 228 245 201 142 95 53 20 7 28 35 54 32 27 12 60 91 62 45 63 101 109 129 135 103 109 88 70 78 50
2 0 1 7 2 0 1 0 0 0 0 0 0 0 0 19 24 80 213 187 250 216 196 103 76 30 17 3 10 17 2 3 0 12 51 92 147 192 185 170 244 293 226 196 218 160 105 67 79
0 2 0 0 0 0 0 0 0 0 0 0 0 0 0 0 3 76 265 228 168 101 136 104 61 49 6 17 39 1 0 0 0 10 13 38 65 144 223 245 287 303 271 214 191 138 85 64 44
0 0 0 0 1 0 0 0 0 0 1 0 0 0 0 0 10 139 139 81 72 104 73 78 57 31 7 27 17 1 4 0 5 2 29 32 39 37 71 123 134 121 121 114 81 63 62 66 36
1 0 0 0 0 0 0 0 0 0 0 0 0 0 10 26 71 76 35 49 142 118 90 64 51 35 42 46 55 16 0 9 22 18 24 21 14 28 38 41 64 99 119 108 66 52 51 25 25
1 2 0 0 0 0 0 0 0 3 5 14 10 4 24 2 0 0 0 1 1 2 1 1 1 0 6 0 27 15 31 20 36 24 24 27 34 35 46 29 26 31 52 49 21 17 18 10 5
1 0 1 0 0 0 0 0 0 2 1 1 2 8 2 1 8 2 5 3 0 0 0 0 0 0 0 0 0 32 25 33 20 35 50 40 28 21 31 14 18 9 13 16 13 10 0 0 5
0 2 0 0 0 0 0 0 0 0 3 0 1 1 0 0 0 0 0 0 0 0 0 0 0 0 1 2 0 5 30 37 29 37 41 43 16 1 5 1 4 2 2 5 2 8 1 1 1
0 0 0 0 0 0 0 0 0 1 4 0 1 0 0 0 0 0 0 0 0 0 0 0 0 0 0 0 0 0 0 0 0 1 17 49 29 14 3 8 9 12 24 20 14 11 6 5 11
0 0 0 0 0 0 0 0 4 4 3 0 0 0 0 0 0 0 0 0 0 0 0 0 0 0 0 0 0 0 0 0 0 0 0 0 0 0 0 0 0 0 0 0 7 8 2 0 1

GFSSGP_con_mlcape_111.txt.gz
CAPE
0 0 0 0 0 0 0 0 0 0 0 0 0 0 0 0 0 0 382 734 752 687 1012 894 863 889 1114 1151 1130 999 839 884 781 659 459 515 24 126 562 654 408 108 308 165 46 5 11 7 11
0 0 0 0 0 0 0 0 0 0 0 0 0 0 0 0 171 339 795 704 744 773 894 830 810 635 679 1044 1186 1051 916 686 709 729 753 723 199 433 721 627 423 38 84 4 3 10 11 14 1
0 0 0 0 0 0 0 0 0 0 0 0 0 0 0 0 561 428 527 873 706 729 920 837 809 633 392 243 806 1102 911 816 766 614 807 722 472 579 659 469 94 4 4 4 2 6 5 0 0
0 0 0 0 0 0 0 0 0 0 0 0 0 0 0 2 396 477 688 926 884 693 880 944 806 485 389 188 31 763 1124 927 825 579 557 629 302 581 610 327 12 0 1 5 3 3 0 0 0
0 0 0 0 0 0 0 0 0 0 0 0 0 0 0 0 231 506 864 945 920 685 738 995 824 576 424 339 69 8 875 1028 881 681 613 597 338 411 578 94 2 0 0 0 0 0 0 0 0
0 0 0 0 0 0 0 0 0 0 0 0 0 0 0 0 1 191 666 725 805 853 839 887 815 608 532 382 641 102 257 998 823 684 686 704 324 285 468 54 0 0 1 0 0 0 0 0 0
0 0 0 0 0 0 0 0 0 0 0 0 0 0 0 0 0 0 94 231 422 657 884 934 937 798 522 536 573 703 110 943 746 649 641 569 292 227 381 94 0 0 0 0 0 0 0 0 0
0 0 0 0 0 0 0 0 0 0 0 0 0 0 0 0 0 0 10 54 39 126 355 514 519 461 453 521 500 646 609 650 612 552 598 481 258 195 298 82 5 0 0 0 0 0 0 0 0
0 0 0 0 0 0 0 0 0 0 0 0 0 0 0 0 0 0 2 20 31 37 55 66 60 55 89 122 117 260 512 320 450 474 435 280 213 128 44 0 0 0 0 0 0 0 0 0 0
0 0 0 0 0 0 0 0 0 0 0 0 0 0 0 0 0 0 0 2 27 35 32 18 23 22 37 0 0 0 253 218 275 336 265 217 150 36 0 0 0 0 0 0 0 0 0 0 0
0 0 0 0 0 0 0 0 0 0 0 0 0 0 0 0 0 0 0 0 0 0 11 1 1 17 23 15 0 0 1 70 148 228 156 102 13 2 0 0 0 0 6 11 0 0 0 0 0
0 0 0 0 0 0 0 0 0 0 0 0 0 0 0 0 0 0 0 0 0 0 1 1 0 4 13 10 3 0 0 0 21 140 79 20 1 1 0 0 0 1 11 10 0 0 0 0 0
0 0 0 0 0 0 0 0 0 0 0 0 0 0 0 0 0 0 0 0 0 0 0 0 0 0 0 0 0 0 0 0 0 31 40 9 1 0 0 0 0 2 0 2 0 0 0 0 0
0 0 0 0 0 0 0 0 0 0 0 0 0 0 0 0 0 0 0 0 0 0 0 0 0 1 0 0 0 0 0 0 1 0 40 18 7 3 0 0 0 0 0 0 0 0 0 0 0
0 0 0 0 0 0 0 0 0 0 0 0 0 0 0 0 0 0 0 0 0 0 0 0 0 0 0 0 0 0 0 0 6 12 16 50 20 7 0 0 0 1 0 0 0 0 0 0 0
0 0 0 0 0 0 0 0 0 0 0 0 0 0 0 0 0 0 0 0 0 0 0 0 0 0 0 0 0 0 0 0 6 28 26 37 10 46 0 0 0 0 5 0 0 0 0 0 0
0 0 0 0 0 0 0 0 0 0 0 0 0 0 0 0 0 0 0 0 0 0 0 0 16 0 0 0 0 0 0 0 0 35 44 12 4 8 0 0 0 0 0 0 0 0 0 0 0
0 0 0 0 0 0 0 0 0 0 0 0 0 0 0 0 0 0 0 0 0 0 0 55 67 37 41 11 4 6 4 7 0 27 15 23 0 0 1 13 8 10 34 14 3 0 0 0 0
0 2 0 0 0 0 0 0 0 0 0 0 0 0 0 0 0 0 0 0 0 0 0 27 87 99 102 60 71 43 41 24 0 19 23 7 8 1 12 35 38 38 35 20 20 0 0 0 0
0 2 0 0 0 0 0 0 0 0 0 0 0 0 0 0 0 0 0 0 0 1 12 96 145 138 114 92 74 33 17 19 2 6 41 48 13 0 0 0 0 29 31 28 8 0 0 1 0
0 0 0 1 0 0 1 0 0 0 0 0 0 0 0 0 0 0 0 0 1 33 81 159 159 135 97 117 41 21 10 25 15 11 25 27 32 6 4 7 21 60 61 61 27 8 12 35 16
0 0 1 0 1 0 0 0 0 0 0 0 0 0 0 0 0 0 0 10 124 119 142 188 183 136 80 89 41 23 1 21 23 57 56 26 41 11 41 43 35 70 99 73 73 77 53 55 59
0 0 0 2 1 0 0 0 0 0 0 0 0 0 0 0 0 4 51 91 137 203 193 199 150 114 83 56 21 16 16 19 3 29 42 42 31 29 45 83 81 131 148 192 187 138 119 84 84
1 0 0 0 0 0 0 0 0 0 2 1 0 0 0 0 0 67 97 157 153 156 97 120 136 91 39 44 35 10 0 2 4 17 13 22 20 21 30 43 65 125 187 171 163 139 121 109 75
1 2 0 0 0 0 0 0 0 2 0 1 0 1 23 36 31 61 71 80 130 92 70 91 71 25 10 39 24 18 8 2 7 2 4 1 12 33 26 12 41 56 62 83 61 40 79 56 42
0 0 0 0 0 0 0 0 0 3 4 4 3 3 15 8 0 3 19 10 7 18 34 48 44 31 9 5 8 4 4 4 7 7 12 16 0 1 8 31 16 23 22 22 42 23 27 33 26
1 1 1 0 0 0 0 0 0 1 1 1 1 2 1 1 1 2 0 3 3 2 1 1 1 0 0 1 1 1 6 12 21 33 24 28 28 44 37 34 29 12 26 23 18 20 16 4 4
1 2 0 0 0 0 0 0 0 0 0 2 5 3 1 0 0 0 0 1 2 1 1 0 1 0 0 0 0 0 2 18 27 41 39 32 31 17 21 12 13 12 5 16 9 5 3 3 0
0 0 0 1 0 0 0 0 0 0 1 3 5 1 2 0 0 0 0 0 0 0 0 0 0 0 0 0 0 0 0 0 0 0 1 19 18 1 1 2 3 2 5 2 7 1 1 5 2
0 0 0 0 0 0 0 0 2 3 4 1 0 0 0 0 0 0 0 0 0 0 0 0 0 0 0 0 0 0 0 0 0 0 0 0 0 0 0 0 0 0 0 0 0 0 1 0 0

GFSSGP_con_mlcape_114.txt.gz
CAPE
0 0 0 0 0 0 0 0 0 0 0 0 0 0 0 0 0 0 296 678 648 662 1206 1054 1080 1398 1290 1059 1015 866 801 792 561 579 352 279 145 254 341 35 5 205 383 12 7 9 2 12 5
0 0 0 0 0 0 0 0 0 0 0 0 0 0 0 0 0 73 665 729 697 843 1113 924 976 1096 1156 1105 1108 807 786 751 648 396 487 290 103 445 641 296 211 303 261 13 6 10 7 9 0
0 0 0 0 0 0 0 0 0 0 0 0 0 0 0 0 264 407 359 693 845 921 1004 842 950 958 1085 1258 1123 1055 805 719 618 614 637 404 208 732 696 586 226 70 0 5 10 12 11 0 0
0 0 0 0 0 0 0 0 0 0 0 0 0 0 0 0 0 50 289 674 877 887 917 960 966 752 813 1009 1151 1144 1063 821 588 533 520 572 479 866 500 307 31 0 0 0 9 9 0 0 0
0 0 0 0 0 0 0 0 0 0 0 0 0 0 0 0 0 0 163 770 807 806 966 1033 923 819 450 312 786 1033 1024 988 817 584 567 659 453 403 546 81 0 0 1 4 6 2 0 0 0
0 0 0 0 0 0 0 0 0 0 0 0 0 0 0 0 0 0 4 417 696 644 820 959 868 889 610 330 113 600 1084 1083 930 746 659 623 409 254 509 45 0 0 0 3 1 0 0 0 0
0 0 0 0 0 0 0 0 0 0 0 0 0 0 0 0 0 0 0 12 269 616 512 482 887 857 776 790 431 83 716 1058 976 818 759 447 202 179 401 111 0 0 0 0 0 0 0 0 0
0 0 0 0 0 0 0 0 0 0 0 0 0 0 0 0 0 0 0 0 4 98 355 322 477 609 464 567 754 739 169 680 931 718 707 505 267 230 372 62 0 0 0 0 0 0 0 0 0
0 0 0 0 0 0 0 0 0 0 0 0 0 0 0 0 0 0 0 0 0 0 1 16 247 378 372 297 349 447 767 363 713 625 593 434 284 272 185 49 9 0 0 0 0 0 0 0 0
0 0 0 0 0 0 0 0 0 0 0 0 0 0 0 0 0 0 0 0 0 0 0 0 5 29 77 73 123 226 425 351 354 519 411 425 255 200 177 29 14 0 0 0 0 0 0 0 0
0 0 0 0 0 0 0 0 0 0 0 0 0 0 0 0 0 0 0 0 0 0 0 0 0 0 7 11 7 84 154 229 178 216 304 258 224 127 57 1 0 0 0 0 0 0 0 0 0
0 0 0 0 0 0 0 0 0 0 0 0 0 0 0 0 0 0 0 0 0 0 0 0 0 0 0 0 0 0 79 118 143 152 204 172 68 32 3 1 0 0 0 0 0 0 0 0 0
0 0 0 0 0 0 0 0 0 0 0 0 0 0 0 0 0 0 0 0 0 0 0 0 0 0 0 1 0 0 0 11 62 110 123 152 79 10 0 0 0 0 1 1 0 0 0 0 0
0 0 0 0 0 0 0 0 0 0 0 0 0 0 0 0 0 0 0 0 0 0 0 0 0 0 0 3 0 0 0 0 0 20 134 99 85 46 0 0 2 0 0 0 8 0 0 0 0
0 0 0 0 0 0 0 0 0 0 0 0 0 0 0 0 0 0 0 0 0 0 0 0 0 0 0 0 0 0 0 0 0 0 12 120 111 60 13 2 1 1 0 1 0 0 0 0 0
0 0 0 0 0 0 0 0 0 0 0 0 0 0 0 0 0 0 0 0 0 0 0 0 0 0 0 0 0 0 0 0 0 2 8 37 111 106 50 22 21 3 0 2 0 0 0 0 0
0 0 0 0 0 0 0 0 0 0 0 0 0 0 0 0 0 0 0 0 0 0 0 0 0 0 0 0 0 0 0 0 0 0 5 42 94 121 72 53 24 16 0 7 5 0 0 0 0
0 0 0 0 0 0 0 0 0 0 0 0 0 0 0 0 0 0 0 0 0 0 0 0 0 0 0 0 0 0 0 0 0 0 1 22 43 110 98 70 18 1 1 5 50 23 22 0 0
0 0 0 0 0 0 0 0 0 0 0 0 0 0 0 0 0 0 0 0 0 0 0 0 0 0 0 0 0 0 0 0 0 0 0 8 29 62 59 37 4 6 0 35 30 67 57 14 0
0 0 0 0 0 0 0 0 0 0 0 0 0 0 0 0 0 0 0 0 0 0 0 0 0 0 47 42 30 1 12 0 13 0 0 35 31 53 32 6 0 1 11 31 35 62 83 17 1
0 0 0 0 0 0 0 0 0 0 0 0 0 0 0 0 0 0 0 0 0 0 0 0 0 4 88 131 87 25 34 3 1 0 2 29 27 53 21 7 0 0 0 0 0 42 79 38 32
0 0 0 0 0 0 0 0 0 0 0 0 0 0 0 0 0 0 0 0 0 0 0 0 14 72 124 148 81 60 35 0 0 3 5 19 27 39 1 16 1 0 0 0 15 92 86 97 74
0 0 0 0 1 0 0 0 0 0 0 0 0 0 0 0 0 0 0 0 0 6 33 67 81 145 131 98 94 61 25 18 9 17 10 5 10 27 22 0 0 0 0 2 70 92 92 105 128
0 0 0 0 0 0 0 0 0 1 1 0 0 0 0 0 0 0 0 54 88 95 107 132 116 142 117 115 76 64 53 29 12 10 16 6 27 10 35 34 79 41 40 19 44 84 90 124 101
0 0 0 0 0 0 0 0 0 0 3 1 4 12 6 1 0 0 27 70 90 100 100 114 109 117 147 115 80 54 31 10 6 1 13 5 3 10 2 0 0 21 17 22 35 50 63 57 59
0 1 0 0 0 0 0 0 0 2 2 3 6 3 0 0 1 2 1 38 80 82 90 101 65 73 91 111 46 30 28 4 5 1 25 4 2 2 10 4 8 18 25 37 43 32 18 27 41
1 0 2 0 0 0 0 0 1 0 0 1 1 1 0 0 3 2 1 2 1 13 36 45 44 39 53 38 14 2 1 0 0 3 10 5 0 0 1 5 19 24 45 51 37 35 22 18 27
1 1 0 0 0 0 0 0 0 0 0 1 3 2 2 2 0 2 3 1 3 3 2 0 1 1 1 0 0 0 1 13 30 33 17 31 31 35 17 17 24 35 42 29 16 0 4 14 8
0 0 0 0 0 0 0 0 0 0 0 1 4 1 2 1 0 0 2 2 2 2 1 1 2 3 2 0 0 0 0 0 0 0 0 0 0 0 0 0 2 5 5 1 2 8 10 10 0
0 0 1 0 0 0 0 0 2 1 3 3 1 0 0 0 0 0 0 0 0 0 0 0 0 0 0 0 0 0 0 0 0 0 0 0 0 0 0 0 0 0 0 0 0 1 1 1 1

GFSSGP_con_mlcape_117.txt.gz
CAPE
0 0 0 0 0 0 0 0 0 0 0 0 0 0 0 0 0 0 241 360 630 774 1414 1255 1387 1271 1133 1024 941 898 934 944 778 714 588 395 90 94 142 27 5 5 10 8 16 23 2 7 4
0 0 0 0 0 0 0 0 0 0 0 0 0 0 0 0 60 234 574 467 694 1061 1523 1151 1316 1457 1195 1004 876 854 791 740 655 487 372 326 264 444 155 50 133 415 26 2 8 5 4 5 2
0 0 0 0 0 0 0 0 0 0 0 0 0 0 0 0 0 20 39 338 836 1095 1315 1126 1307 1406 1239 1079 920 833 838 749 574 441 287 370 395 623 469 238 494 266 10 0 4 6 6 0 0
0 0 0 0 0 0 0 0 0 0 0 0 0 0 0 0 0 0 1 619 992 1056 1130 1072 1108 1225 1302 1178 1163 874 848 795 783 590 597 324 314 556 343 385 214 14 0 0 9 6 0 0 0
0 0 0 0 0 0 0 0 0 0 0 0 0 0 0 0 0 0 2 424 964 1021 1090 1115 1001 978 1076 1360 1251 1167 984 901 756 761 607 624 431 214 492 331 10 0 0 5 15 0 0 0 0
0 0 0 0 0 0 0 0 0 0 0 0 0 0 0 0 0 0 1 67 661 866 947 1023 841 726 825 838 1062 1146 1114 1026 967 771 755 759 524 167 262 136 0 0 0 1 6 0 0 0 0
0 0 0 0 0 0 0 0 0 0 0 0 0 0 0 0 0 0 0 16 74 491 440 510 766 706 676 560 439 846 852 924 878 765 736 665 509 260 303 100 17 0 0 5 3 0 0 0 0
0 0 0 0 0 0 0 0 0 0 0 0 0 0 0 0 0 0 0 0 2 44 153 330 386 488 721 740 457 183 428 796 907 816 682 680 431 312 324 92 34 0 0 0 0 0 0 0 0
0 0 0 0 0 0 0 0 0 0 0 0 0 0 0 0 0 0 0 0 0 3 8 1 44 329 361 356 432 274 167 92 691 893 717 600 582 419 353 148 4 0 0 0 0 0 0 0 0
0 0 0 0 0 0 0 0 0 0 0 0 0 0 0 0 0 0 0 0 0 0 0 0 1 2 147 191 270 304 347 378 788 907 761 731 617 501 422 154 5 4 0 0 0 0 0 0 0
0 0 0 0 0 0 0 0 0 0 0 0 0 0 0 0 0 0 0 0 0 0 0 0 0 0 0 2 65 91 131 89 309 593 619 588 561 449 392 267 79 24 0 0 0 0 0 0 0
0 0 0 0 0 0 0 0 0 0 0 0 0 0 0 0 0 0 0 0 0 0 0 0 0 0 0 0 1 64 37 112 270 163 402 456 464 424 391 307 130 68 27 0 0 0 0 0 0
0 0 0 0 0 0 0 0 0 0 0 0 0 0 0 0 0 0 0 0 0 0 0 0 0 0 0 0 0 0 8 63 211 250 187 183 273 328 179 205 100 86 40 2 0 3 0 0 0
0 0 0 0 0 0 0 0 0 0 0 0 0 0 0 0 0 0 0 0 0 0 0 0 0 0 0 0 0 0 0 8 30 153 187 166 181 115 76 86 68 67 52 21 1 1 0 0 0
0 0 0 0 0 0 0 0 0 0 0 0 0 0 0 0 0 0 0 0 0 0 0 0 0 0 0 0 0 0 0 0 0 0 19 152 127 101 55 79 77 43 62 20 4 12 0 0 0
0 0 0 0 0 0 0 0 0 0 0 0 0 0 0 0 0 0 0 0 0 0 0 0 0 0 0 1 0 0 0 0 0 0 0 0 38 111 74 53 90 75 30 12 13 17 17 0 0
0 0 0 0 0 0 0 0 0 0 0 0 0 0 0 0 0 0 0 0 0 0 0 0 0 0 0 0 1 0 0 0 0 0 0 1 3 64 111 94 77 67 31 25 16 8 25 15 2
0 0 0 0 0 0 0 0 0 0 0 0 0 0 0 0 0 0 0 0 0 0 0 0 0 0 0 0 0 0 0 0 0 0 0 6 20 56 84 115 83 60 44 37 38 9 1 39 60
0 0 0 0 0 0 0 0 0 0 0 0 0 0 0 0 0 0 0 0 0 0 0 0 0 0 0 0 0 0 0 0 0 0 0 0 3 40 70 100 108 61 30 16 12 2 0 9 53
0 0 0 0 0 0 0 0 0 0 0 0 0 0 0 0 0 0 0 0 0 0 0 0 0 0 0 0 14 7 4 4 0 0 0 1 1 17 29 53 73 63 33 6 1 1 0 6 16
0 0 0 0 0 0 0 0 0 0 0 0 0 0 0 0 0 0 0 0 0 0 0 0 0 0 0 1 34 39 51 33 13 20 25 0 1 1 8 4 4 14 19 3 2 0 0 0 0
0 0 0 0 1 0 0 0 0 0 0 0 0 0 0 0 0 0 0 0 0 0 0 0 0 0 0 0 37 53 24 6 19 38 16 6 2 8 6 8 6 3 14 8 0 0 1 0 0
0 0 0 0 2 2 0 1 0 0 0 0 0 0 0 0 0 0 0 0 0 0 0 0 0 0 0 35 78 83 27 12 24 29 15 24 22 21 1 2 1 2 0 0 0 0 0 0 0
0 0 0 0 1 0 0 0 0 1 1 0 0 23 7 0 0 0 0 0 0 0 0 5 7 4 52 71 118 85 57 54 28 27 34 44 29 29 4 1 0 0 0 0 0 0 0 3 2
0 0 0 0 0 0 0 0 0 1 1 1 4 2 2 2 0 0 1 0 39 48 70 92 100 44 65 79 93 70 88 66 73 55 42 31 12 9 10 6 1 1 0 0 0 0 0 26 24
0 0 0 0 0 0 0 0 0 0 2 0 2 0 0 3 0 2 1 16 61 110 105 121 106 110 98 97 86 94 81 82 67 40 43 19 8 8 10 3 3 1 1 9 7 3 16 28 22
1 1 1 0 0 0 0 0 0 0 0 1 2 0 1 1 1 3 2 3 0 21 42 84 111 130 125 101 94 67 91 67 16 12 34 23 6 3 2 3 2 0 9 15 18 15 26 23 24
1 1 0 0 0 0 0 0 0 0 0 0 3 4 2 0 2 2 3 2 0 2 1 1 0 13 1 0 2 1 0 0 0 0 1 1 3 1 5 2 1 5 8 18 12 18 23 25 15
0 0 0 0 0 0 0 0 0 0 0 1 3 2 0 0 0 2 2 2 2 1 2 3 4 5 4 3 4 2 3 2 0 0 1 1 1 1 0 0 0 0 2 1 8 20 14 14 2
0 0 0 0 0 0 0 0 0 1 3 2 0 0 0 0 0 0 0 0 1 0 1 1 0 2 0 2 0 0 0 0 0 0 0 0 0 0 0 0 0 0 0 0 0 1 0 0 0